[[{"header":{"parameterUnit":"m.s-1","parameterCategory":1,"la1":30.6,"la2":29.2853,"lo1":-89.7004,"lo2":-87.6739,"dy":0.0162,"dx":0.0183,"nx":112,"ny":82,"refTime":"2024-03-21T18:00:00:Z","depth":0,"parameterNumber":2,"parameterNumberName":"U-component_of_WINDS"},"data":[0.0,0.0,0.0,0.0,0.0,0.0,0.0,0.0,0.0,0.0,0.0,0.0,0.0,0.0,0.0,0.0,0.0,0.0,0.0,0.0,0.0,0.0,0.0,0.0,0.0,0.0,0.0,0.0,0.0,0.0,0.0,0.0,0.0,0.0,0.0,0.0,0.0,0.0,0.0,0.0,0.0,0.0,0.0,0.0,0.0,0.0,0.0,0.0,0.0,0.0,0.0,0.0,0.0,0.0,0.0,0.0,0.0,0.0,0.0,0.0,0.0,0.0,0.0,0.0,0.0,0.0,0.0,0.0,0.0,0.0,0.0,0.0,0.0,0.0,0.0,0.0,0.0,0.0,0.0,0.0,0.0,0.0,0.0,0.0,0.0,0.0,0.0,0.0,0.0,0.0,-2.8533,-3.0493,-3.3801,-3.5948,-3.6175,-3.5276,-3.3271,-2.9888,0.0,0.0,0.0,0.0,0.0,0.0,0.0,0.0,0.0,0.0,0.0,0.0,0.0,0.0,0.0,0.0,0.0,0.0,0.0,0.0,0.0,0.0,0.0,0.0,0.0,0.0,0.0,0.0,0.0,0.0,0.0,0.0,0.0,0.0,0.0,0.0,0.0,0.0,0.0,0.0,0.0,0.0,0.0,0.0,0.0,0.0,0.0,0.0,0.0,0.0,0.0,0.0,0.0,0.0,0.0,0.0,0.0,0.0,0.0,0.0,0.0,0.0,0.0,0.0,0.0,0.0,0.0,0.0,0.0,0.0,0.0,0.0,0.0,0.0,0.0,0.0,0.0,0.0,0.0,0.0,0.0,0.0,0.0,0.0,0.0,0.0,0.0,0.0,0.0,0.0,0.0,0.0,0.0,0.0,0.0,0.0,0.0,0.0,0.0,0.0,0.0,0.0,0.0,0.0,-3.0905,-3.4731,-3.6774,-3.756,-3.6777,-3.6356,-3.4256,-2.9816,0.0,0.0,0.0,0.0,0.0,0.0,0.0,0.0,0.0,0.0,0.0,0.0,0.0,0.0,0.0,0.0,0.0,0.0,0.0,0.0,0.0,0.0,0.0,0.0,0.0,0.0,0.0,0.0,0.0,0.0,0.0,0.0,0.0,0.0,0.0,0.0,0.0,0.0,0.0,0.0,0.0,0.0,0.0,0.0,0.0,0.0,0.0,0.0,0.0,0.0,0.0,0.0,0.0,0.0,0.0,0.0,0.0,0.0,0.0,0.0,0.0,0.0,0.0,0.0,0.0,0.0,0.0,0.0,0.0,0.0,0.0,0.0,0.0,0.0,0.0,0.0,0.0,0.0,0.0,0.0,0.0,0.0,0.0,0.0,0.0,0.0,0.0,0.0,0.0,0.0,0.0,0.0,0.0,0.0,0.0,0.0,0.0,0.0,0.0,0.0,0.0,0.0,0.0,-3.0992,-3.3596,-3.6796,-3.7724,-3.806,-3.7898,-3.7501,-3.5409,-3.1098,-2.8245,0.0,0.0,0.0,0.0,0.0,0.0,0.0,0.0,0.0,0.0,0.0,0.0,0.0,0.0,0.0,0.0,0.0,0.0,0.0,0.0,0.0,0.0,0.0,0.0,0.0,0.0,0.0,0.0,0.0,0.0,0.0,0.0,0.0,0.0,0.0,0.0,0.0,0.0,0.0,0.0,0.0,0.0,0.0,0.0,0.0,0.0,0.0,0.0,0.0,0.0,0.0,0.0,0.0,0.0,0.0,0.0,0.0,0.0,0.0,0.0,0.0,0.0,0.0,0.0,0.0,0.0,0.0,0.0,0.0,0.0,0.0,0.0,0.0,0.0,0.0,0.0,0.0,0.0,0.0,0.0,0.0,0.0,0.0,0.0,0.0,0.0,0.0,0.0,0.0,0.0,0.0,0.0,0.0,0.0,0.0,0.0,0.0,0.0,0.0,0.0,0.0,0.0,-3.4142,-3.5946,-3.7962,-3.8417,-3.8714,-3.8981,-3.8173,-3.6033,-3.2102,-2.9429,0.0,0.0,0.0,0.0,0.0,0.0,0.0,0.0,0.0,0.0,0.0,0.0,0.0,0.0,0.0,0.0,0.0,0.0,0.0,0.0,0.0,0.0,0.0,0.0,0.0,0.0,0.0,0.0,0.0,0.0,0.0,0.0,0.0,0.0,0.0,0.0,0.0,0.0,0.0,0.0,0.0,0.0,0.0,0.0,0.0,0.0,0.0,0.0,0.0,0.0,0.0,0.0,0.0,0.0,0.0,0.0,0.0,0.0,0.0,0.0,0.0,0.0,0.0,0.0,0.0,0.0,0.0,0.0,0.0,0.0,0.0,0.0,0.0,0.0,0.0,0.0,0.0,0.0,0.0,0.0,0.0,0.0,0.0,0.0,0.0,0.0,0.0,0.0,0.0,0.0,0.0,0.0,0.0,0.0,0.0,0.0,0.0,0.0,0.0,0.0,0.0,0.0,-3.5283,-3.7633,-3.8542,-3.9626,-4.0133,-3.9596,-3.8018,-3.5504,-3.1955,-2.89,0.0,0.0,0.0,0.0,0.0,0.0,0.0,0.0,0.0,0.0,0.0,0.0,0.0,0.0,0.0,0.0,0.0,0.0,0.0,0.0,0.0,0.0,0.0,0.0,0.0,0.0,0.0,0.0,0.0,0.0,0.0,0.0,0.0,0.0,0.0,0.0,0.0,0.0,0.0,0.0,0.0,0.0,0.0,0.0,0.0,0.0,0.0,0.0,0.0,0.0,0.0,0.0,0.0,0.0,0.0,0.0,0.0,0.0,0.0,0.0,0.0,0.0,0.0,0.0,0.0,0.0,0.0,0.0,0.0,0.0,0.0,0.0,0.0,0.0,0.0,0.0,0.0,0.0,0.0,0.0,0.0,0.0,0.0,0.0,0.0,0.0,0.0,0.0,0.0,0.0,0.0,0.0,0.0,0.0,0.0,0.0,0.0,0.0,0.0,0.0,0.0,0.0,-3.7264,-3.9443,-4.03,-4.0969,-4.0976,-4.021,-3.9424,-3.6845,-3.2016,0.0,0.0,0.0,0.0,0.0,0.0,0.0,0.0,0.0,0.0,0.0,0.0,0.0,0.0,0.0,0.0,0.0,0.0,0.0,0.0,0.0,0.0,0.0,0.0,0.0,0.0,0.0,0.0,0.0,0.0,0.0,0.0,0.0,0.0,0.0,0.0,0.0,0.0,0.0,0.0,0.0,0.0,0.0,0.0,0.0,0.0,0.0,0.0,0.0,0.0,0.0,0.0,0.0,0.0,0.0,0.0,0.0,0.0,0.0,0.0,0.0,0.0,0.0,0.0,0.0,0.0,0.0,0.0,0.0,0.0,0.0,0.0,0.0,0.0,0.0,0.0,0.0,0.0,0.0,0.0,0.0,0.0,0.0,0.0,0.0,0.0,0.0,0.0,0.0,0.0,0.0,0.0,0.0,0.0,0.0,0.0,0.0,0.0,0.0,0.0,0.0,0.0,-3.5443,-3.8686,-4.0924,-4.1339,-4.1777,-4.1794,-4.1206,-4.0333,-3.7753,-3.2886,0.0,0.0,0.0,0.0,0.0,0.0,0.0,0.0,0.0,0.0,0.0,0.0,0.0,0.0,0.0,0.0,0.0,0.0,0.0,0.0,0.0,0.0,0.0,0.0,0.0,0.0,0.0,0.0,0.0,0.0,0.0,0.0,0.0,0.0,0.0,0.0,0.0,0.0,0.0,0.0,0.0,0.0,0.0,0.0,0.0,0.0,0.0,0.0,0.0,0.0,0.0,0.0,0.0,0.0,0.0,0.0,0.0,0.0,0.0,0.0,0.0,0.0,0.0,0.0,0.0,0.0,0.0,0.0,0.0,0.0,0.0,0.0,0.0,0.0,0.0,0.0,0.0,0.0,0.0,0.0,0.0,0.0,0.0,0.0,0.0,0.0,0.0,0.0,0.0,0.0,0.0,0.0,0.0,0.0,0.0,0.0,0.0,0.0,0.0,0.0,0.0,0.0,-3.4927,-3.9316,-4.1986,-4.1441,-4.2138,-4.2624,-4.2624,-4.0516,-3.7882,0.0,0.0,0.0,0.0,0.0,0.0,0.0,0.0,0.0,0.0,0.0,0.0,0.0,0.0,0.0,0.0,0.0,0.0,0.0,0.0,0.0,0.0,0.0,0.0,0.0,0.0,0.0,0.0,0.0,0.0,0.0,0.0,0.0,0.0,0.0,0.0,0.0,0.0,0.0,0.0,0.0,0.0,0.0,0.0,0.0,0.0,0.0,0.0,0.0,0.0,0.0,0.0,0.0,0.0,0.0,0.0,0.0,0.0,0.0,0.0,0.0,0.0,0.0,0.0,0.0,0.0,0.0,0.0,0.0,0.0,0.0,0.0,0.0,0.0,0.0,0.0,0.0,0.0,0.0,0.0,0.0,0.0,0.0,0.0,0.0,0.0,0.0,0.0,0.0,0.0,0.0,0.0,0.0,0.0,0.0,0.0,0.0,0.0,0.0,0.0,0.0,0.0,0.0,-3.7748,-4.118,-4.3568,-4.4156,-4.4306,-4.4087,-4.3504,-4.1972,-3.9574,-3.6109,0.0,0.0,0.0,0.0,0.0,0.0,0.0,0.0,0.0,0.0,0.0,0.0,0.0,0.0,0.0,0.0,0.0,0.0,0.0,0.0,0.0,0.0,0.0,0.0,0.0,0.0,0.0,0.0,0.0,0.0,0.0,0.0,0.0,0.0,0.0,0.0,0.0,0.0,0.0,0.0,0.0,0.0,0.0,0.0,0.0,0.0,0.0,0.0,0.0,0.0,0.0,0.0,0.0,0.0,0.0,0.0,0.0,0.0,0.0,0.0,0.0,0.0,0.0,0.0,0.0,0.0,0.0,0.0,0.0,0.0,0.0,0.0,0.0,0.0,0.0,0.0,0.0,0.0,0.0,0.0,0.0,0.0,0.0,0.0,0.0,0.0,0.0,0.0,0.0,0.0,0.0,0.0,0.0,0.0,0.0,0.0,0.0,0.0,0.0,0.0,0.0,0.0,-3.8372,-4.1841,-4.4124,-4.4452,-4.4884,-4.4783,-4.4061,-4.3034,-4.1072,-3.783,0.0,0.0,0.0,0.0,0.0,0.0,0.0,0.0,0.0,0.0,0.0,0.0,0.0,0.0,0.0,0.0,0.0,0.0,0.0,0.0,0.0,0.0,0.0,0.0,0.0,0.0,0.0,0.0,0.0,0.0,0.0,0.0,0.0,0.0,0.0,0.0,0.0,0.0,0.0,0.0,0.0,0.0,0.0,0.0,0.0,0.0,0.0,0.0,0.0,0.0,0.0,0.0,0.0,0.0,0.0,0.0,0.0,0.0,0.0,0.0,0.0,0.0,0.0,0.0,0.0,0.0,0.0,0.0,0.0,0.0,0.0,0.0,0.0,0.0,0.0,0.0,0.0,0.0,0.0,0.0,0.0,0.0,0.0,0.0,0.0,0.0,0.0,0.0,0.0,0.0,0.0,0.0,0.0,0.0,0.0,0.0,0.0,0.0,0.0,0.0,0.0,0.0,-3.7687,-4.1684,-4.4023,-4.3394,-4.4421,-4.4972,-4.4472,-4.3888,-4.2417,-3.9728,0.0,0.0,0.0,0.0,0.0,0.0,0.0,0.0,0.0,0.0,0.0,0.0,0.0,0.0,0.0,0.0,0.0,0.0,0.0,0.0,0.0,0.0,0.0,0.0,0.0,0.0,0.0,0.0,0.0,0.0,0.0,0.0,0.0,0.0,0.0,0.0,0.0,0.0,0.0,0.0,0.0,0.0,0.0,0.0,0.0,0.0,0.0,0.0,0.0,0.0,0.0,0.0,0.0,0.0,0.0,0.0,0.0,0.0,0.0,0.0,-2.3063,-2.1835,0.0,0.0,0.0,0.0,0.0,0.0,0.0,0.0,0.0,0.0,0.0,0.0,0.0,0.0,0.0,0.0,0.0,0.0,0.0,0.0,0.0,0.0,0.0,0.0,0.0,0.0,0.0,0.0,0.0,0.0,0.0,0.0,0.0,0.0,0.0,0.0,0.0,0.0,0.0,0.0,-3.9145,-4.2258,-4.4594,-4.5522,-4.562,-4.5545,-4.5288,-4.4709,-4.3576,-4.1688,-3.884,0.0,0.0,0.0,0.0,0.0,0.0,0.0,0.0,0.0,0.0,0.0,0.0,0.0,0.0,0.0,0.0,0.0,0.0,0.0,0.0,0.0,0.0,0.0,0.0,0.0,0.0,0.0,0.0,0.0,0.0,0.0,0.0,0.0,0.0,0.0,0.0,0.0,0.0,0.0,0.0,0.0,0.0,0.0,0.0,0.0,0.0,0.0,0.0,0.0,0.0,0.0,0.0,0.0,0.0,0.0,0.0,0.0,0.0,0.0,-2.7535,-2.5664,0.0,0.0,0.0,0.0,0.0,0.0,0.0,0.0,0.0,0.0,0.0,0.0,0.0,0.0,0.0,0.0,0.0,0.0,0.0,0.0,0.0,0.0,0.0,0.0,0.0,0.0,0.0,0.0,0.0,0.0,0.0,0.0,0.0,0.0,0.0,0.0,0.0,0.0,0.0,0.0,-3.9297,-4.2549,-4.4817,-4.5413,-4.5795,-4.5895,-4.5522,-4.5221,-4.4443,-4.3037,-4.0943,0.0,0.0,0.0,0.0,0.0,0.0,0.0,0.0,0.0,0.0,0.0,0.0,0.0,0.0,0.0,0.0,0.0,0.0,0.0,0.0,0.0,0.0,0.0,0.0,0.0,0.0,0.0,0.0,0.0,0.0,0.0,0.0,0.0,0.0,0.0,0.0,0.0,0.0,0.0,0.0,0.0,0.0,0.0,0.0,0.0,0.0,0.0,0.0,0.0,0.0,0.0,0.0,0.0,-3.2805,-3.3523,-3.421,-3.5179,-3.525,-3.4475,-3.1995,-2.9913,-2.807,-2.7092,0.0,0.0,0.0,0.0,0.0,0.0,0.0,0.0,0.0,0.0,0.0,0.0,0.0,0.0,0.0,0.0,0.0,0.0,0.0,0.0,0.0,0.0,0.0,0.0,-3.4273,-3.3956,-3.0613,0.0,0.0,0.0,0.0,0.0,0.0,0.0,0.0,0.0,0.0,0.0,-3.907,-4.2557,-4.4789,-4.4711,-4.557,-4.5945,-4.5614,-4.5547,-4.5095,-4.4166,-4.2961,-4.1031,0.0,0.0,0.0,0.0,0.0,0.0,0.0,0.0,0.0,0.0,0.0,0.0,0.0,0.0,0.0,0.0,0.0,0.0,0.0,0.0,0.0,0.0,0.0,0.0,0.0,0.0,0.0,0.0,0.0,0.0,0.0,0.0,-2.1152,-2.157,0.0,0.0,0.0,0.0,0.0,0.0,0.0,0.0,0.0,0.0,0.0,0.0,0.0,-2.9721,-3.1181,-3.258,-3.3768,-3.4519,-3.517,-3.5251,-3.4928,-3.657,-3.6462,-3.5045,-3.6003,0.0,-3.1519,-2.9764,0.0,0.0,0.0,0.0,0.0,0.0,0.0,0.0,0.0,0.0,0.0,0.0,0.0,0.0,0.0,0.0,0.0,0.0,0.0,0.0,0.0,0.0,-3.4383,-3.5005,-3.5838,-3.6187,0.0,-3.3057,-3.1363,-3.1513,-3.0458,0.0,0.0,0.0,0.0,0.0,0.0,0.0,-3.9655,-4.2348,-4.4426,-4.5121,-4.5354,-4.555,-4.5718,-4.557,-4.5422,-4.5271,-4.3765,-4.2233,-4.0799,-3.9396,0.0,0.0,0.0,0.0,0.0,0.0,0.0,0.0,0.0,0.0,0.0,0.0,0.0,0.0,0.0,0.0,0.0,0.0,0.0,0.0,0.0,0.0,0.0,0.0,0.0,0.0,0.0,0.0,0.0,-2.2148,-2.3428,-2.4432,-2.3126,-2.2586,0.0,0.0,0.0,0.0,0.0,0.0,0.0,0.0,0.0,-2.9555,-3.1232,-3.2547,-3.3496,-3.4403,-3.4939,-3.5242,-3.5661,-3.5823,-3.5827,-3.6749,-3.6928,-3.6427,-3.692,-3.6108,-3.439,-3.3065,-3.2132,-3.141,0.0,0.0,0.0,0.0,-2.6053,-2.6222,-2.7685,-2.8545,-2.9221,-3.0158,0.0,0.0,0.0,0.0,0.0,0.0,0.0,-3.049,0.0,0.0,-3.628,-3.7154,-3.7806,-3.826,-3.8401,-3.7414,-3.6086,0.0,-3.4193,-3.3686,-3.279,0.0,0.0,0.0,0.0,-3.9712,-4.0716,-4.2988,-4.4573,-4.4976,-4.5,-4.5245,-4.5757,-4.526,-4.5051,-4.5254,-4.413,-4.2866,-4.1619,-4.089,-3.8843,0.0,0.0,0.0,0.0,0.0,0.0,0.0,0.0,0.0,0.0,0.0,0.0,0.0,0.0,0.0,0.0,0.0,0.0,0.0,0.0,0.0,0.0,0.0,0.0,0.0,0.0,0.0,0.0,-2.4391,-2.5854,-2.7112,-2.602,-2.559,0.0,0.0,0.0,0.0,0.0,0.0,-2.892,-3.0424,-3.1633,-3.2353,-3.3585,-3.4527,-3.5168,-3.5438,-3.5604,-3.5604,-3.6039,-3.6286,-3.6423,-3.6985,-3.731,-3.7374,-3.7284,-3.6946,-3.6427,-3.5408,-3.4418,-3.338,-3.2408,-3.1337,-3.0316,-2.9746,-2.9445,-2.9556,-3.096,-3.2261,-3.3505,-3.4484,-3.5371,-3.5619,-3.3215,0.0,0.0,0.0,0.0,-3.2895,-3.4932,-3.6535,-3.7844,-3.8647,-3.9176,-3.9744,-4.0208,-4.0319,-3.9708,0.0,-3.7642,-3.7504,-3.6294,0.0,0.0,-3.7063,-3.9277,-4.1161,-4.1523,-4.3396,-4.4594,-4.4422,-4.4669,-4.5,-4.5489,-4.4752,-4.4615,-4.5276,-4.4238,-4.3204,-4.2239,-4.2042,-4.0412,-3.7312,0.0,0.0,0.0,0.0,0.0,0.0,0.0,0.0,0.0,0.0,0.0,0.0,0.0,0.0,0.0,0.0,0.0,0.0,0.0,0.0,0.0,0.0,0.0,0.0,0.0,0.0,0.0,0.0,0.0,-2.8195,-2.8657,0.0,0.0,0.0,0.0,-3.0554,-3.0922,-3.2031,-3.4302,-3.4113,-3.4281,-3.517,-3.49,-3.5148,-3.6039,-3.6059,-3.608,-3.608,-3.6854,-3.6918,-3.6444,-3.765,-3.7938,-3.7396,-3.7876,-3.7789,-3.7248,-3.6149,-3.5418,-3.4928,-3.4438,-3.3649,-3.2857,-3.3187,-3.2316,-3.1106,-3.2731,-3.3671,-3.4411,-3.5645,-3.7141,-3.8188,-3.6872,-3.5123,0.0,0.0,-3.459,-3.401,-3.6034,-3.7784,-3.9001,-3.8925,-3.9503,-4.0104,-4.0383,-4.0594,-4.0753,0.0,-4.0313,-3.9721,-3.9323,0.0,-3.934,-3.9345,-4.0789,-4.1834,-4.1787,-4.3276,-4.4099,-4.3451,-4.4199,-4.4816,-4.4853,-4.4168,-4.4367,-4.5783,-4.4086,-4.3129,-4.3305,-4.2585,-4.1331,-3.9546,-3.8691,0.0,0.0,0.0,0.0,0.0,0.0,0.0,0.0,0.0,0.0,0.0,0.0,0.0,0.0,0.0,0.0,0.0,0.0,0.0,0.0,0.0,0.0,0.0,0.0,0.0,0.0,0.0,0.0,-3.0158,-3.0538,0.0,-3.1511,-3.1209,-3.1554,-3.2875,-3.3323,-3.3834,-3.441,-3.4758,-3.4902,-3.4777,-3.5314,-3.5665,-3.5785,-3.6284,-3.6556,-3.6556,-3.6559,-3.6499,-3.6559,-3.6912,-3.7111,-3.7093,-3.751,-3.7527,-3.7374,-3.6958,-3.6604,-3.6192,-3.5757,-3.5163,-3.447,-3.3798,-3.3296,-3.2939,-3.3446,-3.4266,-3.5273,-3.6891,-3.757,-3.7852,-3.7799,-3.6971,-3.6209,-3.6582,-3.6649,-3.6875,-3.7838,-3.8978,-3.9909,-4.0098,-4.0634,-4.1171,-4.1307,-4.1702,-4.2218,-4.2711,-4.2101,-4.1459,-4.1303,-4.1749,-4.2117,-4.2303,-4.2772,-4.3264,-4.3545,-4.3621,-4.3576,-4.3326,-4.3451,-4.3701,-4.4113,-4.3276,-4.2992,-4.3637,-4.3062,-4.2429,-4.1833,-4.222,-4.1533,-3.9626,-3.8656,-3.7103,0.0,0.0,0.0,0.0,0.0,0.0,0.0,0.0,0.0,0.0,0.0,0.0,0.0,0.0,0.0,0.0,0.0,0.0,0.0,0.0,0.0,0.0,0.0,0.0,0.0,-3.0372,-3.1849,-3.1951,-3.2635,-3.3233,-3.3466,-3.3743,-3.4063,-3.4486,-3.4962,-3.5149,-3.4903,-3.5521,-3.5705,-3.5182,-3.5597,-3.5949,-3.6257,-3.6401,-3.6694,-3.7032,-3.6722,-3.6685,-3.6834,-3.6683,-3.6841,-3.7148,-3.734,-3.7374,-3.7374,-3.7374,-3.7253,-3.6967,-3.614,-3.5477,-3.4798,-3.3512,-3.2975,-3.3008,-3.3902,-3.4964,-3.6226,-3.7811,-3.8248,-3.8174,-3.8452,-3.81,-3.761,-3.7484,-3.7724,-3.8133,-3.861,-3.9409,-4.019,-4.0668,-4.1229,-4.1651,-4.1605,-4.2253,-4.2918,-4.3251,-4.2756,-4.2459,-4.2877,-4.3168,-4.3444,-4.3979,-4.4013,-4.4141,-4.4516,-4.3947,-4.3436,-4.3435,-4.3105,-4.3263,-4.3927,-4.2866,-4.2452,-4.2981,-4.2718,-4.2087,-4.1076,-4.1843,-4.1386,-3.9389,-3.8357,-3.7252,-3.614,0.0,0.0,0.0,0.0,0.0,0.0,0.0,0.0,0.0,0.0,0.0,0.0,0.0,0.0,0.0,0.0,0.0,0.0,0.0,0.0,0.0,0.0,0.0,-3.05,-3.2652,-3.4052,-3.3353,-3.5008,-3.5691,-3.4334,-3.5225,-3.5747,-3.5438,-3.5873,-3.6142,-3.6142,-3.6556,-3.6804,-3.672,-3.5733,-3.5872,-3.7401,-3.6404,-3.6424,-3.7508,-3.7488,-3.7369,-3.7317,-3.7107,-3.7271,-3.7582,-3.7432,-3.7396,-3.7396,-3.7374,-3.7374,-3.7287,-3.5736,-3.4724,-3.3989,-3.2557,-3.1616,-3.1426,-3.406,-3.5888,-3.7271,-3.8391,-3.9122,-3.9509,-3.9182,-3.8625,-3.8073,-3.8051,-3.7702,-3.7558,-3.8252,-3.9045,-3.9774,-4.0557,-4.1013,-4.1279,-4.1215,-4.204,-4.2669,-4.2337,-4.2328,-4.2698,-4.4031,-4.3481,-4.3168,-4.4165,-4.4285,0.0,-4.4603,-4.4135,-4.3765,-4.3671,-4.3442,-4.3553,-4.4175,-4.3059,-4.2839,-4.4156,-4.3199,-4.2217,-4.1335,-4.1595,-4.0873,-3.9194,-3.8054,-3.7551,-3.7644,0.0,0.0,0.0,0.0,0.0,0.0,0.0,0.0,0.0,0.0,0.0,0.0,0.0,0.0,0.0,0.0,0.0,0.0,0.0,0.0,0.0,-3.1645,-3.345,-3.3034,-3.5091,-3.6396,-3.5583,-3.6226,-3.6492,-3.5797,-3.6141,-3.6248,-3.5914,-3.6349,-3.649,-3.6298,-3.6614,-3.6061,-3.4516,-3.5986,-3.6404,-3.552,-3.6851,-3.7662,-3.7984,-3.6844,-3.6705,-3.7411,-3.6473,-3.6498,-3.7361,-3.752,-3.7551,-3.753,-3.7466,-3.7374,-3.7309,-3.654,-3.6221,-3.5994,-3.4602,-3.4299,-3.4578,-3.5613,-3.6563,-3.7475,-3.8345,-3.8773,-3.8896,-3.8882,-3.8439,-3.7862,-3.7355,-3.7052,-3.6997,-3.7473,-3.8495,-3.9519,-3.9693,-4.0523,-4.129,-4.1275,-4.1665,-4.2161,-4.2599,-4.2373,-4.2488,-4.3707,-4.3897,-4.413,-4.4765,-4.4338,0.0,-4.5764,-4.4247,-4.3388,-4.4309,-4.3505,-4.3012,-4.32,-4.2942,-4.2819,-4.2864,-4.2602,-4.2164,-4.1622,-4.1681,-4.1168,-4.0131,-3.9164,-3.8751,0.0,0.0,0.0,0.0,0.0,0.0,0.0,0.0,0.0,0.0,0.0,0.0,0.0,0.0,0.0,0.0,0.0,0.0,0.0,0.0,0.0,0.0,-3.2997,-3.4863,-3.4709,-3.6576,-3.7584,-3.6706,-3.6768,-3.6728,-3.6239,-3.6225,-3.6227,-3.6101,-3.6535,-3.6823,-3.6814,-3.6999,-3.6375,-3.4675,-3.5956,-3.6228,-3.5291,-3.6602,-3.7586,-3.8171,-3.6901,-3.6799,-3.7757,-3.6632,-3.6703,-3.7826,-3.7888,-3.7987,-3.8068,-3.7837,-3.768,-3.7593,0.0,0.0,0.0,0.0,-3.471,-3.5563,-3.5781,-3.6566,-3.7478,-3.8089,-3.8454,-3.8625,-3.8678,-3.8589,-3.8236,-3.7323,-3.7248,-3.7489,-3.7527,-3.8481,-3.9503,-3.9702,-4.0443,-4.1052,-4.0905,-4.132,-4.1861,-4.2101,-4.235,0.0,-4.3255,-4.3574,-4.3993,-4.4669,-4.4352,-4.452,-4.5981,-4.4491,-4.3739,-4.4681,-4.3828,-4.3316,-4.3529,-4.326,0.0,0.0,0.0,-4.2722,-4.2238,-4.1588,0.0,0.0,0.0,-4.0451,-4.1226,-4.1482,0.0,0.0,-4.0383,-4.0913,0.0,0.0,0.0,0.0,0.0,0.0,0.0,0.0,0.0,0.0,0.0,0.0,0.0,0.0,0.0,0.0,-3.3968,-3.5702,-3.5811,-3.7331,-3.7998,-3.6967,-3.6828,-3.6627,-3.6056,-3.5996,-3.6081,-3.6225,-3.6701,-3.7136,-3.7484,-3.7545,0.0,0.0,0.0,-3.5658,-3.5865,-3.5991,-3.6696,-3.8037,-3.7167,-3.7253,-3.8083,-3.715,-3.7374,-3.8442,-3.8338,-3.8462,-3.8755,-3.8339,-3.8182,-3.799,-3.6096,-3.5382,-3.5157,-3.3807,-3.4191,-3.5382,-3.5382,0.0,0.0,-3.7698,-3.8089,-3.8486,-3.8464,-3.8648,-3.8586,-3.7622,-3.7826,-3.8262,-3.7928,-3.8676,-3.9644,-4.0082,-4.0516,-4.0726,-4.0423,-4.1108,-4.1747,-4.1438,-4.2343,-4.3075,-4.2822,-4.2997,-4.3436,-4.4185,-4.4319,-4.4741,-4.5726,-4.4903,-4.4377,-4.4872,0.0,0.0,-4.4515,-4.3879,-4.3758,-4.4511,-4.4094,-4.3489,-4.2932,-4.1667,-4.1389,-4.219,-4.1826,-4.2398,-4.4068,-4.444,-4.5183,-4.6113,-4.4157,-4.4152,0.0,0.0,0.0,0.0,0.0,0.0,0.0,0.0,0.0,0.0,0.0,0.0,0.0,0.0,0.0,-3.2835,-3.4924,-3.6443,-3.6844,-3.7577,-3.7686,-3.6812,-3.6635,-3.6572,-3.683,-3.6708,-3.6786,-3.7198,-3.7653,-3.781,-3.7627,-3.7575,-3.681,-3.517,-3.6154,-3.6241,-3.5084,-3.6289,-3.6998,-3.728,-3.6216,0.0,-3.7662,-3.6602,-3.6867,-3.8291,-3.8398,-3.8509,-3.853,-3.8651,-3.8622,-3.8513,-3.7384,-3.697,-3.6888,-3.6655,-3.6698,-3.697,-3.697,-3.7161,-3.7374,-3.7193,-3.7375,-3.7703,-3.7786,-3.7477,0.0,-3.7808,-3.7403,-3.6939,-3.7392,-3.8251,-3.9054,-3.9478,-4.0201,-4.0904,-4.1366,-4.167,-4.1865,-4.2086,-4.2328,-4.2593,-4.2759,-4.3608,-4.4247,-4.4151,-4.4365,-4.4896,-4.5774,-4.5071,-4.4737,-4.526,-4.4942,-4.4594,-4.4347,-4.4364,-4.4514,-4.4953,-4.4609,-4.3919,-4.2913,-4.2906,-4.3083,-4.3521,-4.3884,-4.4549,-4.5599,-4.6348,-4.6784,-4.6973,-4.6599,-4.7232,0.0,0.0,0.0,0.0,0.0,0.0,0.0,0.0,0.0,0.0,0.0,-2.7484,-2.9286,0.0,-3.1619,-3.3192,-3.4626,-3.5813,-3.6465,-3.6978,-3.7166,-3.6806,-3.6578,-3.6553,-3.6833,-3.6582,-3.6531,-3.666,-3.7373,-3.7509,-3.6803,-3.7159,-3.6609,-3.4969,-3.5984,-3.6003,-3.4883,-3.6166,-3.7011,-3.7348,-3.6368,-3.6656,-3.7904,-3.6924,-3.7191,-3.8482,-3.8561,-3.8739,-3.8805,-3.8614,-3.8434,-3.8174,-3.7597,-3.7527,-3.7724,-3.7461,-3.7374,-3.7374,-3.7374,-3.7374,-3.7314,-3.7011,-3.7191,-3.7455,-3.7166,-3.7148,-3.7213,-3.7402,-3.7591,-3.7716,-3.7905,-3.876,-3.9622,-3.9983,-4.0487,-4.0971,-4.1678,-4.201,-4.2321,-4.2642,-4.3042,-4.3267,-4.3332,-4.4137,-4.4648,-4.4155,-4.4617,-4.5174,-4.5565,-4.5331,-4.5113,-4.5137,-4.5282,-4.5201,-4.4687,-4.4728,-4.4894,-4.4943,-4.4903,-4.4481,-4.3597,-4.3838,-4.4023,-4.4087,-4.4339,-4.4967,-4.5996,-4.657,-4.7001,-4.7284,-4.7553,-4.82,0.0,0.0,0.0,0.0,0.0,0.0,0.0,-2.5178,-2.63,-2.734,-2.8411,-2.9725,-3.1381,-3.1731,-3.2169,-3.3375,-3.4115,-3.4815,-3.5656,-3.6208,-3.653,-3.6556,-3.642,-3.6389,-3.6708,-3.6372,-3.6154,-3.6253,-3.6947,-3.7019,-3.6203,-3.6676,-3.6447,-3.5152,-3.5704,-3.5704,-3.5152,-3.5955,-3.6674,-3.728,-3.6674,-3.6944,-3.7837,-3.7348,-3.7616,-3.8482,-3.8615,-3.888,-3.9146,-3.8552,-3.8227,-3.7989,-3.7606,-3.7815,-3.8313,-3.7636,-3.7374,-3.7396,-3.7483,-3.7527,-3.7466,-3.7126,-3.7286,-3.7484,-3.6876,-3.7148,-3.7633,-3.7247,-3.8036,-3.8916,-3.8786,-3.9455,-4.0279,-4.0712,-4.0777,-4.0993,-4.1663,-4.2153,-4.26,-4.2951,-4.3556,-4.3897,-4.3611,-4.4245,-4.4645,-4.4225,-4.4913,-4.5432,-4.5432,-4.5592,-4.5554,-4.5089,-4.5532,-4.5605,-4.493,-4.5015,-4.502,-4.4704,-4.5086,-4.5009,-4.4401,-4.4678,-4.4749,-4.4617,-4.4819,-4.532,-4.6215,-4.6598,-4.7042,-4.7481,-4.808,-4.8626,-2.0103,-2.1371,-2.3543,-2.4896,-2.5459,-2.6101,0.0,-2.838,-2.905,-2.9424,-3.0812,-3.2023,-3.2301,-3.2598,-3.3044,-3.3858,-3.4218,-3.4482,-3.4898,-3.5441,-3.5742,-3.5423,-3.572,-3.6268,-3.7149,-3.6658,-3.677,-3.7831,-3.7467,-3.7065,-3.6931,-3.6702,-3.6384,-3.5869,-3.5996,-3.5928,-3.5869,-3.5996,-3.6084,-3.6152,-3.6084,-3.6268,-3.6722,-3.6944,-3.7348,-3.775,-3.8416,-3.888,-3.9167,-3.8721,-3.8851,-3.9325,-3.8075,-3.8347,-3.9294,-3.7876,-3.7374,-3.744,-3.7876,-3.8029,-3.7972,-3.7423,-3.7592,-3.7798,-3.7147,-3.7258,-3.7739,-3.8336,-3.8621,-3.8861,-3.9408,-3.9648,-3.9953,-4.0647,-4.0777,-4.1017,-4.181,-4.201,-4.2167,-4.2659,-4.286,-4.2882,-4.2816,-4.3332,-4.3894,-4.4451,-4.5139,-4.5559,-4.5559,-4.5893,-4.5959,-4.5559,-4.5742,-4.5605,-4.4906,-4.5154,-4.5087,-4.4419,-4.4963,-4.5182,-4.4948,-4.5431,-4.5737,-4.5804,-4.6643,-4.6945,-4.6786,-4.7866,-4.8241,-4.8116,-4.8958,-4.9808,-2.1913,-2.2953,-2.4527,-2.6444,-2.6915,-2.7327,-2.882,-2.9486,-2.9833,-3.0122,-3.1369,-3.2164,-3.1559,-3.1855,-3.2253,-3.2588,-3.2853,-3.3452,-3.4633,-3.4657,-3.4644,-3.4858,-3.4386,-3.4759,-3.6531,-3.5881,-3.5685,-3.6523,-3.6871,-3.6709,-3.5846,-3.6245,-3.6336,-3.6016,-3.6016,-3.6016,-3.6016,-3.6016,-3.6084,-3.6268,-3.6084,-3.6287,-3.6876,-3.6789,-3.7079,-3.7616,-3.8171,-3.8503,-3.8594,-3.8329,-3.8357,-3.8552,-3.8143,-3.8285,-3.8641,-3.8029,-3.7986,-3.8248,-3.8466,-3.8532,-3.8366,-3.753,-3.7611,-3.79,-3.7225,-3.7269,-3.775,-3.8482,-3.8681,-3.8814,-3.9297,-3.9407,-3.9538,-4.004,-4.0389,-4.0716,-4.1265,-4.1838,-4.2279,-4.2478,-4.2947,-4.3283,-4.3283,-4.3688,-4.4096,-4.4369,-4.5025,-4.5381,-4.5279,-4.5712,-4.5966,-4.5766,-4.5762,-4.5544,-4.5208,-4.5198,-4.4951,-4.4333,-4.4902,-4.5146,-4.4724,-4.5472,-4.5955,-4.6021,-4.6765,-4.7195,-4.7432,-4.8435,-4.9085,-4.9517,-5.0034,-5.1089,-2.2892,-2.4022,-2.5296,-2.7373,-2.8202,-2.8807,-3.0087,-3.0346,-3.0489,-3.0926,-3.171,-3.1991,-3.09,-3.1047,-3.1385,-3.1477,-3.161,-3.2292,-3.3997,-3.3596,-3.3337,-3.3726,-3.2454,-3.2633,-3.5164,-3.4778,-3.4746,-3.5645,-3.6368,-3.64,-3.5412,-3.6023,-3.6268,-3.6016,-3.6016,-3.6016,-3.6016,-3.6016,-3.6152,-3.6384,-3.6152,-3.6287,-3.6809,-3.6742,-3.7079,-3.777,-3.8037,-3.8191,-3.815,-3.8103,-3.8075,-3.8081,-3.8189,-3.8335,-3.8497,-3.8429,-3.8516,-3.8797,-3.8991,-3.9034,-3.8866,-3.7953,-3.7905,-3.8068,-3.7278,-3.7304,-3.7683,-3.8283,-3.8482,-3.8657,-3.9115,-3.925,-3.9339,-3.986,-4.0208,-4.0511,-4.0904,-4.1578,-4.2098,-4.225,-4.2831,-4.328,-4.335,-4.3628,-4.3905,-4.4135,-4.4526,-4.4937,-4.511,-4.559,-4.589,-4.5754,-4.5675,-4.5517,-4.5143,-4.5127,-4.4879,-4.4185,-4.4902,-4.5219,-4.4981,-4.5792,-4.6378,-4.6601,-4.7227,-4.7599,-4.7773,-4.8927,-4.972,-5.0243,-5.0932,-5.1989,-2.2676,-2.4633,-2.6634,-2.8037,-2.9756,-3.1306,-3.18,-3.1582,-3.1462,-3.2173,-3.2302,-3.1991,-3.09,-3.0707,-3.0821,-3.116,-3.0934,-3.1208,-3.2587,-3.2091,-3.1603,-3.1603,-2.9953,-2.9959,-3.2854,-3.3425,-3.4414,-3.6202,-3.6166,-3.6132,-3.6431,-3.62,-3.6016,-3.6016,-3.6016,-3.6016,-3.6016,-3.6016,-3.6016,-3.6016,-3.6016,-3.6016,-3.6084,-3.6742,-3.7502,-3.8191,-3.8191,-3.8191,-3.8191,-3.8171,-3.8416,-3.8663,-3.8157,-3.8654,-3.9627,-3.9174,-3.8891,-3.8903,-3.9425,-3.9601,-3.9474,-3.8887,-3.8639,-3.8461,-3.7394,-3.7348,-3.7616,-3.7616,-3.7904,-3.8408,-3.9181,-3.9284,-3.9444,-4.038,-4.0501,-4.055,-4.113,-4.1273,-4.1444,-4.1912,-4.1997,-4.2159,-4.2581,-4.263,-4.2931,-4.3628,-4.3697,-4.4112,-4.5165,-4.5663,-4.5754,-4.5415,-4.5663,-4.5448,-4.4449,-4.5007,-4.4944,-4.3874,-4.4755,-4.555,-4.625,-4.6824,-4.7475,-4.8146,-4.8726,-4.8634,-4.7793,-4.9516,-5.0125,-4.967,-5.138,-5.2338,-2.3015,-2.4815,-2.6739,-2.8341,-2.9315,-3.0003,-3.0662,-3.07,-3.0563,-3.0539,-3.0903,-3.094,-2.99,-3.0057,-3.048,-3.0821,-3.1003,-3.1529,-3.2856,-3.2428,-3.2226,-3.2685,-3.1463,-3.1344,-3.3344,-3.1899,-3.1891,-3.4401,-3.4595,-3.4689,-3.5008,-3.5656,-3.6016,-3.6016,-3.6016,-3.6016,-3.6016,-3.6016,-3.6016,-3.6016,-3.6016,-3.6016,-3.6016,-3.6471,-3.6876,-3.7079,-3.7616,-3.7837,-3.7837,-3.8125,-3.8204,-3.8262,-3.8408,-3.876,-3.9239,-3.939,-3.9606,-3.9821,-3.9973,-4.0039,-3.9931,-3.9035,-3.8681,-3.8482,-3.7415,-3.7146,-3.7348,-3.7837,-3.813,-3.8377,-3.888,-3.9025,-3.9144,-3.9454,-3.971,-4.0035,-4.0487,-4.08,-4.1121,-4.1268,-4.1452,-4.1686,-4.1827,-4.2018,-4.2441,-4.3211,-4.3707,-4.4233,-4.4892,-4.4777,-4.4844,-4.5324,-4.5483,-4.5203,-4.4383,-4.4966,-4.4967,-4.3874,-4.4755,-4.5539,-4.6105,-4.7227,-4.7974,-4.8392,-4.9276,-4.9663,-4.9591,-5.0582,-5.1386,-5.1976,-5.2794,-5.3288,-2.3422,-2.5028,-2.672,-2.8181,-2.8695,-2.9032,-2.9756,-2.9736,-2.9657,-2.9741,-2.9785,-2.9618,-2.8801,-2.8936,-2.9431,-3.0099,-3.0662,-3.152,-3.2987,-3.2426,-3.2057,-3.2573,-3.1459,-3.1306,-3.2962,-3.1039,-3.0972,-3.3841,-3.4031,-3.4342,-3.5122,-3.5665,-3.6152,-3.6465,-3.6172,-3.6094,-3.625,-3.6094,-3.6016,-3.6016,-3.6016,-3.6084,-3.62,-3.6384,-3.6586,-3.6722,-3.7348,-3.7616,-3.7616,-3.8037,-3.8138,-3.8107,-3.8378,-3.8645,-3.8936,-3.9235,-3.956,-3.9953,-4.0214,-4.0279,-4.0084,-3.888,-3.8461,-3.8262,-3.7079,-3.6929,-3.7252,-3.7679,-3.8072,-3.8438,-3.8807,-3.9019,-3.9204,-3.9441,-3.9889,-4.0277,-4.0462,-4.0709,-4.0915,-4.0915,-4.1007,-4.1188,-4.1473,-4.1756,-4.2159,-4.2651,-4.3007,-4.3579,-4.4504,-4.4301,-4.4323,-4.496,-4.521,-4.4933,-4.4055,-4.4846,-4.5036,-4.397,-4.486,-4.565,-4.6279,-4.7147,-4.7829,-4.8247,-4.9074,-4.9674,-5.0031,-5.0802,-5.1688,-5.2517,-5.3033,-5.3392,-2.3918,-2.5294,-2.6685,-2.7681,-2.8097,-2.841,-2.8989,-2.8842,-2.8747,-2.9607,-2.8896,-2.8014,-2.7605,-2.7415,-2.7799,-2.9126,-2.9987,-3.1093,-3.2835,-3.2029,-3.1317,-3.1375,-3.0284,-3.02,-3.1797,-3.1093,-3.1726,-3.4537,-3.4452,-3.4958,-3.6424,-3.6181,-3.6426,-3.7246,-3.6484,-3.623,-3.6641,-3.625,-3.6035,-3.6016,-3.6035,-3.6171,-3.6491,-3.6471,-3.6674,-3.7119,-3.7435,-3.7549,-3.7616,-3.7971,-3.8191,-3.8191,-3.8191,-3.837,-3.8681,-3.8681,-3.888,-3.9276,-4.0018,-4.0236,-4.004,-3.8615,-3.8171,-3.7924,-3.6482,-3.6573,-3.7183,-3.7252,-3.7778,-3.8497,-3.899,-3.9301,-3.9659,-4.0259,-4.0894,-4.1355,-4.1161,-4.1024,-4.1024,-4.1024,-4.0657,-4.0638,-4.1372,-4.1756,-4.1947,-4.1947,-4.1783,-4.2274,-4.4001,-4.4075,-4.4075,-4.4274,-4.4891,-4.4754,-4.3417,-4.4712,-4.5141,-4.4196,-4.5077,-4.5917,-4.6588,-4.6748,-4.7104,-4.7722,-4.8393,-4.8858,-4.9139,-5.032,-5.111,-5.1416,-5.2165,-5.2765,-2.4161,-2.5138,-2.6155,-2.665,-2.7004,-2.724,-2.7204,-2.7115,-2.6879,-2.631,-2.594,-2.5735,-2.5648,-2.596,-2.688,-2.8704,-2.9924,-3.1149,-3.2749,-3.2774,-3.2853,-3.3436,-3.3077,-3.2991,-3.3819,-3.3474,-3.3803,-3.5109,-3.4423,-3.3966,-3.419,-3.5662,-3.6601,-3.6816,-3.6621,-3.6406,-3.6191,-3.6406,-3.6348,-3.6016,-3.6348,-3.6573,-3.6622,-3.6289,-3.6396,-3.6828,-3.6813,-3.6924,-3.728,-3.7636,-3.7904,-3.8191,-3.8191,-3.837,-3.8681,-3.8681,-3.888,-3.921,-3.9407,-3.9708,-3.9875,-3.8937,-3.8691,-3.8547,-3.7669,-3.7121,-3.6918,-3.7479,-3.7865,-3.83,-3.9289,-3.9858,-4.0399,-4.1187,-4.1477,-4.1645,-4.1915,-4.1936,-4.1936,-4.1936,-4.1565,-4.1328,-4.1544,-4.1632,-4.1615,-4.1615,-4.1507,-4.1891,-4.3214,-4.2945,-4.3084,-4.4183,-4.4204,-4.4072,-4.3848,-4.4453,-4.4801,-4.4672,-4.504,-4.5731,-4.6978,-4.7035,-4.7262,-4.7814,-4.8972,-4.9651,-4.9688,-5.0662,-5.1601,-5.2543,-5.2315,-5.2694,-2.4541,-2.5313,-2.5973,-2.6035,-2.6036,-2.5983,-2.586,-2.5604,-2.5207,-2.46,-2.3833,-2.338,-2.3601,-2.4687,-2.6139,-2.7852,-2.9938,-3.1774,-3.3135,-3.3274,-3.349,-3.4115,-3.4061,-3.4127,-3.4364,-3.3996,-3.4089,-3.4864,-3.4516,-3.4508,-3.5023,-3.6263,-3.7109,-3.75,-3.7148,-3.6836,-3.6582,-3.6816,-3.6738,-3.6309,-3.6738,-3.6738,-3.6387,-3.6523,-3.6504,-3.6387,-3.6719,-3.6921,-3.7146,-3.7482,-3.7837,-3.8191,-3.8191,-3.8304,-3.8503,-3.8503,-3.8636,-3.8769,-3.8769,-3.921,-3.9558,-3.8823,-3.8718,-3.8794,-3.8243,-3.8107,-3.8137,-3.8564,-3.8806,-3.9121,-3.9671,-4.0057,-4.0518,-4.1002,-4.1447,-4.1739,-4.1963,-4.2038,-4.1989,-4.1748,-4.1844,-4.1814,-4.1607,-4.1575,-4.1552,-4.1552,-4.1439,-4.165,-4.2538,-4.2417,-4.2652,-4.37,-4.3927,-4.3934,-4.3759,-4.4661,-4.5079,-4.4883,-4.5262,-4.5773,-4.6454,-4.6526,-4.672,-4.7168,-4.8435,-4.9213,-4.9473,-5.0227,-5.1273,-5.2522,-5.2208,-5.2675,-2.4947,-2.5432,-2.5821,-2.5326,-2.4922,-2.4658,-2.4609,-2.4005,-2.3389,-2.3514,-2.2144,-2.1054,-2.1596,-2.334,-2.511,-2.6461,-2.9446,-3.2057,-3.3387,-3.3418,-3.3511,-3.4088,-3.4185,-3.416,-3.416,-3.3614,-3.365,-3.4545,-3.4838,-3.5666,-3.7105,-3.7273,-3.7643,-3.8384,-3.7643,-3.7234,-3.7305,-3.7344,-3.7168,-3.6758,-3.7129,-3.6914,-3.6211,-3.6894,-3.6816,-3.6133,-3.6848,-3.7004,-3.6864,-3.7327,-3.7662,-3.7955,-3.8083,-3.8191,-3.8191,-3.8191,-3.8191,-3.8191,-3.8191,-3.8709,-3.9247,-3.8585,-3.8688,-3.8945,-3.8733,-3.9242,-3.9907,-3.9803,-4.0164,-4.0409,-4.0112,-4.0262,-4.0543,-4.0603,-4.1298,-4.1903,-4.1903,-4.1882,-4.1791,-4.1338,-4.1904,-4.2207,-4.1814,-4.169,-4.1669,-4.1669,-4.1605,-4.1712,-4.2139,-4.2301,-4.2544,-4.3141,-4.3719,-4.3956,-4.36,-4.4891,-4.5518,-4.5094,-4.5491,-4.5766,-4.5833,-4.5798,-4.5991,-4.6384,-4.7592,-4.8416,-4.8927,-4.9515,-5.0612,-5.2013,-5.1936,-5.2658,-2.5055,-2.5038,-2.4734,-2.395,-2.3577,-2.325,-2.28,-2.1698,-2.0826,-2.0979,-2.0149,-1.9387,-1.9444,-2.1231,-2.2972,-2.3693,-2.6429,-2.9261,-3.144,-3.2218,-3.3046,-3.4344,-3.457,-3.459,-3.459,-3.4051,-3.4418,-3.618,-3.5515,-3.5482,-3.6398,-3.7047,-3.746,-3.7595,-3.7132,-3.6932,-3.7305,-3.7637,-3.7598,-3.7187,-3.7266,-3.7226,-3.707,-3.6875,-3.6699,-3.6562,-3.671,-3.6211,-3.5354,-3.6669,-3.6857,-3.6489,-3.7693,-3.8191,-3.8191,-3.8191,-3.8191,-3.8191,-3.8191,-3.8295,-3.8523,-3.9123,-3.9638,-4.0095,-4.0412,-4.0387,-4.0285,-4.037,-4.042,-4.0524,-4.0825,-4.0924,-4.1155,-4.1895,-4.2439,-4.2749,-4.2749,-4.3034,-4.3145,-4.2774,-4.2714,-4.2787,-4.2704,-4.2373,-4.2219,-4.2219,-4.2429,-4.2752,-4.3116,-4.2493,-4.2355,-4.3093,-4.3023,-4.3236,-4.407,-4.4434,-4.5005,-4.6104,-4.5413,-4.5687,-4.713,-4.6187,-4.6099,-4.7066,-4.8119,-4.8724,-4.8825,-4.9634,-5.0818,-5.2217,-5.182,-5.2581,-2.4267,-2.4476,-2.4525,-2.3628,-2.3001,-2.2349,-2.1457,-2.0076,-1.8883,-1.8611,-1.7595,-1.6934,-1.7456,-1.9594,-2.1525,-2.2082,-2.498,-2.7991,-3.0527,-3.1185,-3.1963,-3.3693,-3.3704,-3.365,-3.3879,-3.3137,-3.3855,-3.6825,-3.5781,-3.5722,-3.708,-3.7523,-3.7701,-3.7701,-3.7272,-3.7177,-3.7321,-3.7731,-3.7662,-3.7003,-3.7449,-3.7285,-3.6641,-3.7109,-3.6953,-3.6348,-3.6797,-3.6573,-3.5818,-3.6729,-3.7025,-3.691,-3.7822,-3.8191,-3.8191,-3.8191,-3.8336,-3.8523,-3.8523,-3.8999,-3.9661,-4.0096,-4.0244,-4.035,-4.1018,-4.1492,-4.1644,-4.1494,-4.149,-4.1483,-4.1186,-4.1168,-4.1284,-4.1656,-4.2082,-4.239,-4.2621,-4.2851,-4.2999,-4.2926,-4.296,-4.2899,-4.2898,-4.2745,-4.26,-4.26,-4.2972,-4.3257,-4.3392,-4.3231,-4.3199,-4.3507,-4.3294,-4.3489,-4.4273,-4.4594,-4.5164,-4.5963,-4.5691,-4.5853,-4.668,-4.6278,-4.6299,-4.6746,-4.772,-4.8252,-4.8252,-4.8953,-5.0167,-5.1778,-5.1499,-5.2506,-2.3424,-2.3883,-2.4306,-2.349,-2.2578,-2.1611,-2.0546,-1.8924,-1.7504,-1.6947,-1.5688,-1.5003,-1.5998,-1.8285,-2.0185,-2.0763,-2.3597,-2.6701,-2.9543,-2.993,-3.0843,-3.3237,-3.2805,-3.2701,-3.3662,-3.2545,-3.3148,-3.6681,-3.5939,-3.6043,-3.774,-3.7817,-3.7862,-3.7715,-3.7421,-3.7329,-3.7421,-3.7715,-3.759,-3.6989,-3.7429,-3.7234,-3.6465,-3.7285,-3.7109,-3.6191,-3.6875,-3.6788,-3.6248,-3.6722,-3.7079,-3.7348,-3.7837,-3.8166,-3.8336,-3.8336,-3.8667,-3.9075,-3.9075,-3.984,-4.0832,-4.0914,-4.079,-4.0737,-4.1501,-4.2303,-4.2932,-4.2377,-4.2337,-4.2313,-4.1405,-4.1172,-4.125,-4.1327,-4.154,-4.1927,-4.2216,-4.237,-4.2423,-4.261,-4.2835,-4.2978,-4.2912,-4.3001,-4.3077,-4.3077,-4.3431,-4.3753,-4.3615,-4.4028,-4.4267,-4.4112,-4.3855,-4.39,-4.4273,-4.4869,-4.5366,-4.5775,-4.5988,-4.6127,-4.6206,-4.6408,-4.6536,-4.6633,-4.7393,-4.7783,-4.7783,-4.8412,-4.957,-5.1047,-5.1348,-5.2412,-2.303,-2.3245,-2.3342,-2.3041,-2.1995,-2.0882,-2.0103,-1.8346,-1.6831,-1.6585,-1.5522,-1.4867,-1.5692,-1.717,-1.8564,-1.9378,-2.1465,-2.4272,-2.7638,-2.8311,-2.9931,-3.4104,-3.2799,-3.2661,-3.5367,-3.349,-3.3106,-3.5471,-3.6014,-3.6581,-3.74,-3.7457,-3.7274,-3.6886,-3.6886,-3.7034,-3.7421,-3.7421,-3.7604,-3.7893,-3.7124,-3.7126,-3.7734,-3.709,-3.6719,-3.6621,-3.6699,-3.6169,-3.5226,-3.618,-3.6451,-3.6336,-3.728,-3.8083,-3.8724,-3.8724,-3.9282,-4.0096,-4.0096,-4.0236,-4.0463,-4.0872,-4.148,-4.2145,-4.2228,-4.2828,-4.3219,-4.2132,-4.237,-4.2697,-4.1483,-4.1172,-4.1327,-4.1695,-4.1773,-4.185,-4.185,-4.2139,-4.2293,-4.1945,-4.2524,-4.3004,-4.2963,-4.3324,-4.3553,-4.3553,-4.4214,-4.457,-4.4172,-4.473,-4.5061,-4.4681,-4.4199,-4.3973,-4.4318,-4.4663,-4.5256,-4.6268,-4.5888,-4.6172,-4.7329,-4.6896,-4.6937,-4.7419,-4.7797,-4.7953,-4.7953,-4.882,-4.9608,-5.0358,-5.148,-5.2093,-2.1552,-2.2257,-2.2852,-2.2396,-2.1611,-2.059,-1.9088,-1.7313,-1.574,-1.4994,-1.3688,-1.3116,-1.447,-1.5978,-1.767,-1.9606,-2.1793,-2.4131,-2.6565,-2.7305,-2.8755,-3.2019,-3.1571,-3.2338,-3.5772,-3.4978,-3.5059,-3.6829,-3.7393,-3.7744,-3.7789,-3.7789,-3.7568,-3.7181,-3.696,-3.6738,-3.6664,-3.7181,-3.7362,-3.7261,-3.7422,-3.7475,-3.7539,-3.7461,-3.7148,-3.6699,-3.7207,-3.646,-3.5056,-3.6652,-3.6946,-3.653,-3.7887,-3.8924,-3.9612,-3.9612,-4.0261,-4.1027,-4.1027,-4.1431,-4.185,-4.1813,-4.2181,-4.2604,-4.2069,-4.2363,-4.2607,-4.1636,-4.185,-4.2082,-4.1074,-4.0997,-4.125,-4.1405,-4.1483,-4.1483,-4.1773,-4.1773,-4.1773,-4.2082,-4.2668,-4.318,-4.3335,-4.3721,-4.4029,-4.4029,-4.4466,-4.473,-4.4579,-4.503,-4.5153,-4.4714,-4.4348,-4.4361,-4.4674,-4.4775,-4.5142,-4.6001,-4.6083,-4.6328,-4.6808,-4.6908,-4.6884,-4.6808,-4.6965,-4.7008,-4.7008,-4.769,-4.8579,-4.9587,-5.0372,-5.1234,-1.9862,-2.0608,-2.1296,-2.0944,-2.0448,-1.9537,-1.7644,-1.6099,-1.4653,-1.3371,-1.2115,-1.1753,-1.3394,-1.4899,-1.6878,0.0,-2.204,-2.4208,-2.6267,-2.7437,-2.8764,-3.0667,-3.1119,-3.238,-3.5204,-3.5477,-3.6131,-3.7637,-3.7842,-3.7797,-3.7671,-3.8005,-3.7936,-3.7421,-3.7107,-3.6812,-3.659,-3.7107,-3.7343,-3.7131,-3.7557,-3.7631,-3.748,-3.7656,-3.7125,-3.6247,-3.7293,-3.6557,-3.471,-3.6897,-3.7411,-3.6953,-3.8401,-3.9478,-4.0241,-4.0365,-4.0986,-4.1793,-4.1917,-4.2328,-4.2741,-4.2438,-4.2358,-4.235,-4.1722,-4.1919,-4.2216,-4.121,-4.1133,-4.1327,-4.0977,-4.1113,-4.1387,-4.1523,-4.1543,-4.1621,-4.1915,-4.1778,-4.17,-4.2305,-4.2779,-4.3116,-4.3308,-4.3755,-4.4024,-4.3978,-4.4335,-4.4579,-4.4428,-4.488,-4.5072,-4.472,-4.4451,-4.4397,-4.4741,-4.4798,-4.5142,-4.589,-4.6136,-4.6271,-4.6405,-4.6697,-4.6697,-4.6405,-4.6271,-4.6271,-4.6405,-4.6974,-4.7766,-4.8834,-4.9544,-5.0303,-1.8063,-1.8114,-1.8212,-1.8467,-1.8157,-1.7425,-1.5777,-1.4729,-1.3663,-1.2068,-1.1283,-1.1298,-1.2673,-1.4035,-1.608,-1.9301,-2.1751,-2.419,-2.6802,-2.899,-3.0544,-3.0946,-3.1989,-3.302,-3.3767,-3.4514,-3.5637,-3.7297,-3.6705,-3.6487,-3.6777,-3.7977,-3.8209,-3.7421,-3.7421,-3.7402,-3.7421,-3.7421,-3.7568,-3.8009,-3.7566,-3.7571,-3.791,-3.75,-3.6487,-3.5097,-3.6654,-3.6008,-3.4033,-3.6777,-3.7679,-3.737,-3.8523,-3.9478,-4.0282,-4.0717,-4.1462,-4.2384,-4.2745,-4.2672,-4.237,-4.237,-4.185,-4.125,-4.125,-4.1773,-4.2139,-4.0899,-4.0509,-4.0684,-4.1601,-4.1797,-4.1894,-4.2305,-4.2422,-4.2422,-4.2402,-4.2422,-4.2422,-4.2422,-4.2822,-4.2923,-4.2486,-4.3034,-4.3437,-4.3086,-4.3691,-4.405,-4.3691,-4.4277,-4.4805,-4.4784,-4.4344,-4.4118,-4.4293,-4.4594,-4.5142,-4.589,-4.589,-4.6025,-4.6405,-4.6405,-4.6405,-4.6405,-4.6092,-4.6092,-4.6405,-4.705,-4.7633,-4.8004,-4.929,-4.9446,-1.5878,-1.6122,-1.6313,-1.6111,-1.5973,-1.5554,-1.4339,-1.3631,-1.2956,-1.2121,-1.17,-1.1728,-1.2647,-1.4388,-1.6492,-1.9135,-2.1594,-2.4055,-2.6494,-2.8247,-2.9735,-3.1034,-3.3983,-3.615,-3.6942,-3.7676,-3.8043,-3.7838,-3.8059,-3.8306,-3.8451,-3.8496,-3.8355,-3.7862,-3.7789,-3.7715,-3.7421,-3.7642,-3.7862,-3.8009,-3.8147,-3.8306,-3.8359,-3.8223,-3.7943,-3.7434,-3.8216,-3.7039,-3.4767,-3.7876,-3.8087,-3.6719,-3.9,-4.0381,-4.1193,-4.1648,-4.2207,-4.2766,-4.3242,-4.3339,-4.3136,-4.26,-4.2216,-4.1927,-4.1405,-4.1405,-4.1444,-4.1032,-4.0925,-4.1075,-4.1647,-4.1987,-4.2266,-4.2402,-4.2422,-4.2422,-4.2422,-4.2422,-4.2422,-4.2422,-4.2978,-4.3439,-4.3319,-4.3733,-4.4062,-4.3921,-4.403,-4.4125,-4.4071,-4.4201,-4.4473,-4.4677,-4.4304,-4.4314,-4.4808,-4.4654,-4.4663,-4.5142,-4.5619,-4.5822,-4.5754,-4.6306,-4.6193,-4.5347,-4.576,-4.576,-4.5347,-4.6496,-4.7398,-4.8146,-4.8913,-4.898,-1.3931,-1.4108,-1.4115,-1.3857,-1.3852,-1.3693,-1.2571,-1.2491,-1.2483,-1.2121,-1.2312,-1.2703,-1.3254,-1.5462,-1.7641,-1.8933,-2.1711,-2.4264,-2.5917,-2.842,-3.1132,-3.3851,-3.5114,-3.6651,-3.893,-3.8928,-3.8795,-3.8883,-3.9407,-3.9592,-3.9433,-3.9205,-3.8915,-3.849,-3.831,-3.8086,-3.787,-3.8092,-3.8262,-3.8267,-3.8464,-3.8511,-3.8375,-3.8501,-3.8164,-3.748,-3.855,-3.7371,0.0,-3.8553,-3.8826,-3.7272,-4.0024,-4.1368,-4.1949,-4.2331,-4.2609,-4.2768,-4.3221,-4.3157,-4.2851,-4.2313,-4.2082,-4.187,-4.1504,-4.1171,-4.1013,-4.1438,-4.1327,-4.1252,-4.1829,-4.2353,-4.2715,-4.2871,-4.291,-4.291,-4.291,-4.291,-4.291,-4.291,-4.3369,-4.3593,-4.324,-4.3679,-4.3935,-4.3612,-4.3772,-4.3954,-4.4016,-4.3974,-4.4172,-4.4646,-4.44,-4.4301,-4.4892,-4.4731,-4.459,-4.48,-4.5347,-4.5619,-4.5415,-4.6058,-4.6035,-4.5028,-4.5599,-4.553,-4.48,-4.5918,-4.6909,-4.7888,-4.8049,-4.8008,0.0,-1.2084,-1.169,-1.1629,-1.1878,-1.1836,-1.0707,-1.1347,0.0,-1.1887,-1.2893,-1.3868,-1.4158,-1.7009,-1.9126,-1.8635,-2.1876,-2.4709,-2.5282,-2.9357,-3.3895,-3.8145,-3.541,-3.4971,-3.9502,-3.8593,-3.8452,-4.0115,-4.0432,-4.036,-3.9889,-3.9893,-3.9732,-3.9259,-3.886,-3.8647,-3.8607,-3.8607,-3.8536,-3.8424,-3.8592,-3.832,-3.7897,-3.8355,-3.7623,-3.5978,-3.7773,-3.708,-3.501,-3.8695,-3.9598,-3.8855,-4.1273,-4.2249,-4.2384,-4.2766,-4.2631,-4.2392,-4.2902,-4.2604,-4.1967,-4.189,-4.16,-4.1367,-4.1797,-4.1281,-4.08,-4.2023,-4.1837,-4.1385,-4.2193,-4.2799,-4.3223,-4.3613,-4.3711,-4.3711,-4.3711,-4.3711,-4.3711,-4.3711,-4.3711,-4.3437,-4.2617,-4.3136,-4.3399,-4.2651,-4.3143,-4.3653,-4.3607,-4.3601,-4.3885,-4.4697,-4.439,-4.4292,-4.4619,-4.4808,-4.4858,-4.4754,-4.5188,-4.5415,-4.5415,-4.5944,-4.5967,-4.5347,-4.5483,-4.5298,-4.4914,-4.539,-4.6216,-4.733,-4.6912,-4.681,-0.9739,0.0,-0.9865,-0.9125,-0.954,-1.0,0.0,-1.0012,-1.0904,-1.1166,-1.2043,-1.3072,-1.404,-1.6967,-1.8891,-1.7897,-2.097,-2.4237,-2.6584,-2.9653,-3.2467,-3.4733,-3.4223,-3.4599,-3.7,-3.8974,-4.0043,-3.9978,-4.0592,-4.0704,-4.0306,-4.005,-3.9807,-3.9732,-3.9612,-3.9254,-3.8595,-3.8595,-3.801,-3.6849,-3.8063,-3.7944,-3.6711,-3.7982,-3.849,-3.8321,-3.7877,-3.7363,-3.684,-3.8391,-3.8823,-3.8835,-4.0906,-4.1953,-4.2384,-4.2766,-4.2857,-4.2885,-4.371,-4.3824,-4.3592,-4.2971,-4.2503,-4.2191,-4.2625,-4.2205,-4.1579,-4.1757,-4.2264,-4.2614,-4.248,-4.2997,-4.3574,-4.3691,-4.3711,-4.3711,-4.3711,-4.3711,-4.3711,-4.3711,-4.3711,-4.3617,-4.3433,-4.3595,-4.3759,-4.3812,-4.3733,-4.3774,-4.4123,-4.3796,-4.3824,-4.4265,-4.4555,-4.4614,-4.466,-4.4579,-4.4369,-4.4019,-4.4978,-4.5551,-4.5551,-4.6675,-4.658,-4.5089,-4.4805,-4.5124,-4.5934,-4.6071,-4.6466,-4.7003,-4.6797,-4.6606,-0.8731,-0.9245,-0.9758,-0.911,-0.9609,-1.0188,-0.974,-1.0414,-1.1168,-1.1511,-1.2849,-1.4102,-1.4658,-1.7883,-2.0031,-1.872,-2.1736,-2.547,-2.9204,-3.1662,-3.3684,-3.5492,-3.5802,-3.6398,-3.754,-3.9672,-4.1024,-4.0975,-4.1603,-4.1661,-4.1008,-4.0808,-4.0621,-4.0162,-4.0009,-3.9606,-3.8955,-3.8766,-3.814,-3.7102,-3.7709,-3.7632,-3.683,-3.7824,-3.8448,-3.8535,-3.7443,-3.7404,-3.8236,-3.8347,-3.8938,-3.9937,-4.1603,-4.244,-4.2686,-4.3063,-4.3063,-4.3004,-4.3746,-4.4054,-4.3984,-4.3277,-4.2961,-4.2804,-4.2999,-4.2654,-4.2183,-4.2505,-4.271,-4.2735,-4.2735,-4.3214,-4.3711,-4.3711,-4.3546,-4.338,-4.338,-4.338,-4.338,-4.338,-4.3546,-4.3656,-4.349,-4.3568,-4.3734,-4.3719,-4.3899,-4.4119,-4.4292,-4.4284,-4.437,-4.4761,-4.4837,-4.4869,-4.4928,-4.4482,-4.4294,-4.4594,-4.4975,-4.5322,-4.5571,-4.6674,-4.674,-4.5608,-4.5185,-4.5278,-4.598,-4.5816,-4.5957,-4.6518,-4.6219,-4.6032,-0.857,-0.9551,-1.0561,-1.0373,-1.1116,-1.1769,-1.1387,-1.1853,-1.2368,-1.24,-1.4019,-1.5528,-1.5565,-1.9205,-2.1725,-2.0104,-2.3367,-2.7494,-3.1499,-3.3785,-3.5501,-3.6859,-3.7822,-3.8543,-3.9031,-4.0435,-4.1651,-4.2233,-4.2651,-4.2535,-4.1791,-4.1728,-4.1385,-4.0588,-4.0216,-3.981,-3.9391,-3.8878,-3.8305,-3.7659,-3.7516,-3.7259,-3.7054,-3.7701,-3.8009,-3.797,-3.6871,0.0,-3.916,-3.8457,-3.9336,-4.1234,-4.2439,-4.2927,-4.3101,-4.3545,-4.3505,-4.3308,-4.378,-4.4007,-4.3957,-4.3499,-4.336,-4.34,-4.3212,-4.288,-4.2751,-4.3448,-4.3048,-4.2569,-4.2902,-4.3297,-4.3711,-4.3711,-4.3463,-4.3234,-4.3234,-4.3292,-4.3311,-4.3234,-4.3521,-4.3672,-4.3242,-4.3476,-4.3621,-4.3379,-4.3839,-4.4281,-4.4278,-4.4591,-4.4914,-4.5216,-4.5047,-4.5027,-4.5183,-4.4546,-4.4576,-4.5788,-4.5225,-4.5186,-4.5868,-4.6489,-4.6694,-4.634,-4.5913,-4.5711,-4.5728,-4.5377,-4.5588,-4.6195,-4.576,-4.5508,-0.8952,-1.0329,-1.1699,-1.1742,-1.3337,-1.4686,-1.3746,-1.4106,-1.4308,-1.3226,-1.3521,-1.4532,-1.6194,-2.0211,-2.2661,-2.0837,-2.5317,-2.9244,-2.985,-3.295,-3.4576,-3.3339,-3.5833,-3.7877,-3.8292,-4.0646,-4.2241,-4.2378,-4.2443,-4.2273,-4.1828,-4.1443,-4.125,-4.1094,-4.0685,-4.0178,-3.9807,-3.8673,-3.7458,-3.6075,-3.6936,-3.6738,-3.5503,-3.7196,-3.8009,-3.797,-3.7105,-3.7667,-3.916,-3.8383,-3.9262,-4.1158,-4.2132,-4.2697,-4.3142,-4.3896,-4.4158,-4.4205,-4.4675,-4.503,-4.5281,-4.4494,-4.4457,-4.4522,-4.3858,-4.3566,-4.3448,-4.3278,-4.3068,-4.2902,-4.2569,-4.3131,-4.3711,-4.3711,-4.3628,-4.3628,-4.3628,-4.394,-4.4096,-4.3706,-4.394,-4.4141,-4.3691,-4.3672,-4.3817,-4.4191,-4.3985,-4.3923,-4.4335,-4.41,-4.3935,-4.3954,-4.4482,-4.4848,-4.487,-4.4646,-4.5077,-4.6404,-4.5497,-4.5703,-4.7225,-4.6815,-4.655,-4.6478,-4.6067,-4.6023,-4.6366,-4.6244,-4.6388,-4.6891,-4.6368,-4.6118,-0.8728,-1.0603,-1.2776,-1.3561,-1.5184,-1.6725,-1.7292,-1.7516,-1.7556,-1.7188,-1.7507,-1.837,-1.9891,-2.226,-2.4378,-2.5845,-2.9898,-3.2947,-3.3381,-3.5457,-3.6495,-3.5204,-3.7652,-3.926,-3.8822,-4.0949,-4.2398,-4.2427,-4.237,-4.2216,-4.185,-4.1618,-4.1405,-4.1172,-4.0763,-4.0431,-4.0197,-3.9233,-3.8143,-3.6909,-3.7246,-3.7028,-3.636,-3.7465,-3.8009,-3.7971,0.0,-3.7904,-3.9467,-3.8531,-3.9312,-4.1284,-4.2339,-4.2887,-4.3221,-4.4304,-4.4807,-4.5026,-4.5002,-4.547,-4.5855,-4.4986,-4.4987,-4.523,-4.4561,-4.4047,-4.3628,-4.3463,-4.3068,-4.2652,-4.2485,-4.2902,-4.338,-4.338,-4.338,-4.3458,-4.3671,-4.3884,-4.4039,-4.4058,-4.4421,-4.459,-4.416,-4.4082,-4.4087,-4.3998,-4.4041,-4.4123,-4.437,-4.4402,-4.4398,-4.4371,-4.4669,-4.493,-4.5127,-4.4854,-4.4772,-4.4997,-4.5493,-4.6149,-4.6851,-4.6815,-4.6735,-4.6518,-4.6569,-4.6312,-4.5755,-4.619,-4.6384,-4.628,-4.634,-4.6085,-0.879,-1.1045,-1.3783,-1.5071,-1.6558,-1.8101,-1.9742,-2.0157,-2.0259,-2.0436,-2.1074,-2.1921,-2.3222,-2.4407,-2.6582,-3.1132,-3.3743,-3.5565,-3.6617,-3.7991,-3.8635,-3.7821,-3.9814,-4.0875,-3.9855,-4.1381,-4.237,-4.237,-4.237,-4.2293,-4.1927,-4.185,-4.1618,-4.1172,-4.0763,-4.0431,-4.0353,-3.9736,-3.8965,-3.8172,-3.7767,-3.7506,-3.7429,-3.7813,-3.7966,-3.8005,-3.7577,-3.8349,-3.9855,-3.9298,-4.0007,-4.1601,-4.2877,-4.3511,-4.383,-4.478,-4.5427,-4.5791,-4.5312,-4.5698,-4.6165,-4.5413,-4.5454,-4.58,-4.5291,-4.4616,-4.3978,-4.3911,-4.3286,-4.2721,-4.2553,-4.2812,-4.3087,-4.31,-4.3119,-4.3299,-4.3606,-4.3922,-4.4218,-4.4431,-4.4842,-4.5039,-4.4609,-4.4453,-4.4277,-4.3926,-4.41,-4.4288,-4.437,-4.4563,-4.4739,-4.4766,-4.4851,-4.5015,-4.5372,-4.524,-4.4765,-4.4,-4.5306,-4.6182,-4.6178,-4.6672,-4.6888,-4.6709,-4.7016,-4.6691,-4.5644,-4.6262,-4.634,-4.5922,-4.6209,-4.5993,-0.9617,-1.2115,-1.4739,-1.57,-1.7257,-1.8715,-1.9472,-2.064,-2.1353,-2.0658,-2.1058,-2.223,-2.4297,-2.626,-2.9308,-3.4757,-3.4752,-3.4713,-3.6535,-3.8542,-3.9503,-3.8823,-4.049,-4.1578,-4.1113,-4.1907,-4.237,-4.237,-4.237,-4.237,-4.237,-4.2005,-4.1618,-4.1172,-4.0763,-4.0353,-3.9981,-3.9883,-3.944,-3.8657,-3.8266,-3.7831,-3.7429,-3.7813,-3.7966,-3.8042,-3.8728,-3.9356,-3.999,-4.111,-4.1854,-4.2505,-4.3832,-4.4813,-4.5502,-4.5664,-4.5954,-4.6163,-4.5791,-4.5915,-4.6204,-4.5791,-4.5936,-4.6185,-4.5779,-4.5291,-4.4798,-4.4449,-4.3981,-4.3476,-4.3054,-4.3021,-4.3081,-4.3044,-4.3308,-4.3645,-4.3683,-4.4659,-4.5469,-4.5012,-4.5351,-4.5488,-4.5058,-4.4648,-4.4394,-4.4355,-4.3984,-4.3876,-4.437,-4.406,-4.3917,-4.4272,-4.4635,-4.4977,-4.5265,-4.6036,-4.5911,-4.4611,-4.492,-4.5395,-4.5707,-4.6334,-4.6825,-4.7215,-4.7259,-4.7237,-4.7096,-4.7215,-4.6972,-4.6559,-4.6559,-4.6337,-0.9356,-1.1685,-1.4202,-1.5098,-1.7527,-2.0123,-2.1756,-2.3336,-2.4776,-2.5961,-2.6266,-2.671,-2.8003,-3.0787,-3.3527,-3.5406,-3.636,-3.7181,-3.8194,-3.9609,-4.0577,-4.0254,-4.1396,-4.2005,-4.1618,-4.185,-4.1927,-4.1695,-4.1618,-4.1618,-4.1618,-4.1463,-4.1483,-4.154,-4.1152,-4.0997,-4.1074,-4.0841,-4.0374,-3.9812,-3.9427,-3.8806,-3.8181,-3.8572,-3.8806,-3.8825,-3.9694,-4.0294,-4.078,-4.2073,-4.2526,-4.2545,-4.3879,-4.5125,-4.6099,-4.6099,-4.6202,-4.6246,-4.5838,-4.596,-4.6246,-4.5838,-4.5981,-4.6266,-4.6104,-4.5372,-4.4634,-4.4739,-4.402,-4.3234,-4.3074,-4.3207,-4.3367,-4.3007,-4.3301,-4.3804,-4.4348,-4.4827,-4.5338,-4.5714,-4.5957,-4.5937,-4.5508,-4.5293,-4.5085,-4.4808,-4.4405,-4.4292,-4.4738,-4.4442,-4.4199,-4.4292,-4.4865,-4.5363,-4.571,-4.6041,-4.5888,-4.5085,-4.5888,-4.6201,-4.5839,-4.6847,-4.7373,-4.7326,-4.7326,-4.7175,-4.695,-4.6889,-4.655,-4.5853,-4.6374,-4.6225,-0.9929,-1.2685,-1.5766,-1.5958,-1.8835,-2.1936,-2.3315,-2.5245,-2.7271,-2.8985,-2.9751,-3.0365,-3.1353,-3.3763,-3.5819,-3.6214,-3.7388,-3.8549,-3.9484,-4.0492,-4.1234,-4.145,-4.2112,-4.239,-4.185,-4.2005,-4.1927,-4.1405,-4.1483,-4.154,-4.154,-4.154,-4.1618,-4.1773,-4.154,-4.1385,-4.1385,-4.125,-4.0919,-4.0509,-4.0238,-3.9691,-3.9035,-3.949,-3.9644,-3.9715,-4.0553,-4.1161,-4.1713,-4.3021,-4.3599,-4.3739,-4.4623,-4.5493,-4.6266,-4.6266,-4.6347,-4.6428,-4.6023,-4.6185,-4.6428,-4.6023,-4.6104,-4.6266,-4.6266,-4.5617,-4.4833,-4.5123,-4.4414,-4.3605,-4.3416,-4.3409,-4.3308,-4.3007,-4.3217,-4.3811,-4.4375,-4.4807,-4.5329,-4.5987,-4.6221,-4.6172,-4.5742,-4.5683,-4.5562,-4.5099,-4.4813,-4.4739,-4.5188,-4.4825,-4.464,-4.4659,-4.5314,-4.5847,-4.6195,-4.6304,-4.6173,-4.5713,-4.6647,-4.6773,-4.5786,-4.6913,-4.749,-4.7342,-4.7342,-4.7191,-4.6963,-4.6633,-4.6155,-4.563,-4.5928,-4.5779,-1.1672,-1.5647,-1.9892,-1.8747,-2.1378,-2.4145,-2.3805,-2.6089,-2.8359,-2.8613,-3.0594,-3.2644,-3.3688,-3.4482,-3.5527,-3.7572,-3.7701,-3.8204,-4.0196,-4.0841,-4.143,-4.2309,-4.2774,-4.2697,-4.185,-4.2544,-4.2621,-4.185,-4.2159,-4.237,-4.237,-4.237,-4.2216,-4.185,-4.1773,-4.1385,-4.0509,-4.0997,-4.0997,-4.0509,-4.0492,-4.0299,-3.9902,-4.0353,-4.0504,-4.0588,-4.1401,-4.2051,-4.2641,-4.3859,-4.5108,-4.6266,-4.6266,-4.6266,-4.6347,-4.6266,-4.659,-4.6933,-4.6428,-4.661,-4.6933,-4.6428,-4.6266,-4.6287,-4.6287,-4.6025,-4.5727,-4.5644,-4.5332,-4.4826,-4.4347,-4.3578,-4.2883,-4.2941,-4.3209,-4.3559,-4.3559,-4.4686,-4.5607,-4.5607,-4.5958,-4.6172,-4.5762,-4.5683,-4.5562,-4.5099,-4.5044,-4.5134,-4.5596,-4.531,-4.5154,-4.5481,-4.591,-4.6247,-4.6588,-4.706,-4.7127,-4.664,-4.706,-4.6682,-4.5369,-4.6243,-4.6963,-4.7466,-4.7488,-4.7488,-4.7488,-4.6507,-4.6031,-4.6002,-4.5181,-4.5031,-1.3169,-1.5777,-1.9038,-2.0828,-2.3181,-2.5285,-2.6021,-2.7771,-2.9626,-3.1164,-3.2684,-3.3852,-3.4221,-3.5142,-3.622,-3.7702,-3.8882,-3.9794,-4.0444,-4.165,-4.2556,-4.2754,-4.3157,-4.3081,-4.2293,-4.2697,-4.2544,-4.1483,-4.1773,-4.185,-4.154,-4.154,-4.1618,-4.1773,-4.154,-4.1385,-4.1385,-4.125,-4.125,-4.1463,-4.1718,-4.1464,-4.0724,-4.0899,-4.1289,-4.1895,-4.2842,-4.3418,-4.3879,-4.4582,-4.5413,-4.6266,-4.5942,-4.6266,-4.6751,-4.6428,-4.6751,-4.7293,-4.659,-4.7041,-4.78,-4.7068,-4.7215,-4.7711,-4.7361,-4.6552,-4.5664,-4.5589,-4.4857,-4.4022,-4.3745,-4.3494,-4.3328,-4.3279,-4.3386,-4.3653,-4.3918,-4.4365,-4.4813,-4.5519,-4.5695,-4.5919,-4.6046,-4.6119,-4.6069,-4.5916,-4.566,-4.5549,-4.5678,-4.5793,-4.6037,-4.6471,-4.6897,-4.7168,-4.7247,-4.7334,-4.7203,-4.6699,-4.648,-4.6239,-4.5806,-4.6745,-4.716,-4.6963,-4.7313,-4.7313,-4.6963,-4.6311,-4.5706,-4.5181,-4.5181,-4.4955,-1.5287,-1.7849,-2.0988,-2.2991,-2.4953,-2.7073,-2.9567,-2.9984,-3.0429,-3.26,-3.3662,-3.4509,-3.5413,-3.6227,-3.7158,-3.8209,-3.9618,-4.0571,-4.0948,-4.2003,-4.2851,-4.3233,-4.3462,-4.3386,-4.2697,-4.2851,-4.2621,-4.1773,-4.1927,-4.2005,-4.1947,-4.1947,-4.1927,-4.2082,-4.1927,-4.185,-4.1773,-4.1695,-4.185,-4.2236,-4.2419,-4.2421,-4.2399,-4.2423,-4.2762,-4.328,-4.416,-4.4724,-4.4987,-4.5332,-4.5861,-4.6266,-4.6266,-4.653,-4.7014,-4.6832,-4.7293,-4.7773,-4.7052,-4.7322,-4.7958,-4.7391,-4.7625,-4.8002,-4.7589,-4.7004,-4.6401,-4.5738,-4.4894,-4.4052,-4.3871,-4.3678,-4.3499,-4.3499,-4.3499,-4.3678,-4.4104,-4.437,-4.4725,-4.5431,-4.5783,-4.59,-4.6074,-4.6237,-4.6247,-4.6065,-4.5978,-4.5922,-4.5902,-4.6274,-4.6617,-4.6854,-4.7139,-4.7257,-4.7432,-4.7455,-4.7258,-4.6708,-4.6624,-4.6505,-4.6308,-4.7051,-4.7247,-4.6745,-4.7225,-4.7171,-4.642,-4.5868,-4.5256,-4.4805,-4.473,-4.4504,-1.741,-2.0737,-2.4318,-2.5069,-2.6679,-2.9199,-3.332,-3.2314,-3.1127,-3.3373,-3.4135,-3.4949,-3.6984,-3.7598,-3.8164,-3.9062,-3.9978,-4.085,-4.163,-4.2165,-4.2754,-4.3539,-4.3539,-4.3386,-4.3004,-4.3004,-4.2851,-4.237,-4.237,-4.2621,-4.2927,-4.2927,-4.2774,-4.2447,-4.2774,-4.26,-4.179,-4.2196,-4.2621,-4.3004,-4.2702,-4.3197,-4.4443,-4.4444,-4.4457,-4.4603,-4.5433,-4.5779,-4.5779,-4.6185,-4.6347,-4.6428,-4.6852,-4.7014,-4.7153,-4.7453,-4.7933,-4.8273,-4.7773,-4.7715,-4.7757,-4.772,-4.7818,-4.7872,-4.736,-4.7441,-4.7484,-4.6048,-4.5299,-4.4902,-4.437,-4.3926,-4.3678,-4.3678,-4.3589,-4.3678,-4.4104,-4.4548,-4.5078,-4.5519,-4.5958,-4.6104,-4.5801,-4.6102,-4.6252,-4.5911,-4.6107,-4.6308,-4.6266,-4.6695,-4.6996,-4.6996,-4.6927,-4.7071,-4.7449,-4.7542,-4.7312,-4.6861,-4.7235,-4.7313,-4.6876,-4.7269,-4.7269,-4.681,-4.7291,-4.7061,-4.6181,-4.5373,-4.4911,-4.4793,-4.4057,-4.3885,-1.7052,-1.9789,-2.3151,-2.6533,-2.898,-3.0803,-3.1552,-3.2353,-3.3463,-3.5389,-3.5931,-3.6412,-3.7509,-3.7575,-3.7884,-3.9004,-4.0172,-4.1174,-4.1646,-4.2622,-4.3386,-4.3615,-4.331,-4.3004,-4.26,-4.2774,-4.2697,-4.2005,-4.2544,-4.2774,-4.2524,-4.2524,-4.2447,-4.237,-4.2447,-4.2285,-4.1735,-4.2132,-4.2621,-4.3024,-4.3661,-4.4468,-4.5374,-4.4711,-4.4939,-4.5879,-4.6063,-4.6185,-4.6185,-4.6266,-4.6509,-4.6852,-4.6933,-4.7394,-4.7954,-4.7693,-4.8092,-4.8648,-4.7853,-4.8248,-4.9118,-4.8755,-4.9203,-4.9652,-4.8859,-4.8493,-4.7971,-4.6588,-4.5793,-4.5343,-4.4902,-4.4636,-4.4636,-4.4636,-4.4282,-4.4104,-4.4193,-4.4548,-4.5078,-4.5519,-4.5695,-4.5832,-4.6104,-4.6563,-4.6836,-4.67,-4.6783,-4.6761,-4.6308,-4.6968,-4.7464,-4.7464,-4.8086,-4.8583,-4.8974,-4.842,-4.8101,-4.8344,-4.7806,-4.7597,-4.7859,-4.7619,-4.7444,-4.7335,-4.7793,-4.7561,-4.6677,-4.6437,-4.5873,-4.4823,-4.4691,-4.4329,-1.7025,-1.9861,-2.3424,-2.7914,-3.0359,-3.179,-3.2232,-3.3739,-3.523,-3.6163,-3.6749,-3.7292,-3.7967,-3.8505,-3.9076,-3.9672,-4.0738,-4.1615,-4.1988,-4.2612,-4.3136,-4.3539,-4.3386,-4.3315,-4.329,-4.3126,-4.3029,-4.3001,-4.2973,-4.3004,-4.3004,-4.2984,-4.2907,-4.2697,-4.283,-4.2882,-4.2581,-4.2882,-4.3259,-4.3946,-4.4436,-4.5116,-4.5995,-4.5507,-4.5651,-4.6266,-4.6266,-4.6266,-4.6266,-4.6266,-4.659,-4.7014,-4.7234,-4.7715,-4.8273,-4.8251,-4.849,-4.8828,-4.841,-4.8735,-4.927,-4.9021,-4.9639,-5.0262,-4.9343,-4.8873,-4.8437,-4.7334,-4.6289,-4.5519,-4.5343,-4.5078,-4.4902,-4.4902,-4.4725,-4.4636,-4.4813,-4.5255,-4.5695,-4.6221,-4.6308,-4.6396,-4.692,-4.7167,-4.7159,-4.6763,-4.6866,-4.6865,-4.6652,-4.7023,-4.7459,-4.7911,-4.81,-4.8396,-4.885,-4.8474,-4.8155,-4.8168,-4.7992,-4.7815,-4.7837,-4.7837,-4.7815,-4.7815,-4.8056,-4.7636,-4.6541,-4.6541,-4.5948,-4.494,-4.494,-4.4738,-1.6424,-2.0127,-2.4449,-2.9465,-3.1671,-3.2925,-3.3958,-3.5509,-3.6643,-3.6452,-3.7233,-3.8085,-3.8543,-3.9576,-4.0438,-4.0514,-4.1231,-4.1979,-4.2427,-4.2524,-4.283,-4.3539,-4.3539,-4.3607,-4.4076,-4.3382,-4.3321,-4.4153,-4.3613,-4.3386,-4.3767,-4.3843,-4.3691,-4.331,-4.3615,-4.3801,-4.3718,-4.3801,-4.4224,-4.4992,-4.5253,-4.5702,-4.6266,-4.6266,-4.6266,-4.6266,-4.6266,-4.6266,-4.6347,-4.6347,-4.667,-4.7153,-4.7453,-4.7933,-4.8432,-4.8757,-4.8937,-4.9038,-4.9126,-4.909,-4.9114,-4.9178,-4.9739,-5.0219,-4.9302,-4.8918,-4.8695,-4.7748,-4.6551,-4.5607,-4.5607,-4.5343,-4.5166,-4.5166,-4.5166,-4.5255,-4.5519,-4.5958,-4.6396,-4.6832,-4.692,-4.7161,-4.7514,-4.7622,-4.7413,-4.6577,-4.6784,-4.7049,-4.6996,-4.6976,-4.7346,-4.823,-4.8039,-4.799,-4.8274,-4.8305,-4.8152,-4.7772,-4.7934,-4.7956,-4.775,-4.8012,-4.8208,-4.8296,-4.8218,-4.7631,-4.6464,-4.6386,-4.5896,-4.5105,-4.5105,-4.5064,-1.3602,-1.9228,-2.5955,-3.1364,-3.3937,-3.5177,-3.5324,-3.6655,-3.7598,-3.7012,-3.8171,-3.9254,-3.9378,-3.99,-4.046,-4.0921,-4.1387,-4.1976,-4.2826,-4.3233,-4.3462,-4.3615,-4.331,-4.3121,-4.3162,-4.3045,-4.3177,-4.3621,-4.394,-4.4201,-4.4654,-4.4654,-4.4654,-4.4579,-4.4579,-4.4464,-4.4039,-4.4464,-4.4888,-4.5452,-4.6295,-4.6566,-4.6266,-4.6266,-4.6266,-4.6266,-4.6266,-4.6266,-4.6347,-4.6772,-4.7153,-4.7533,-4.7613,-4.8092,-4.8793,-4.8966,-4.922,-4.9585,-4.9978,-4.9849,-4.9674,-5.0062,-5.0278,-5.0201,-4.9362,-4.874,-4.8179,-4.6813,-4.6046,-4.5607,-4.5607,-4.587,-4.6133,-4.6133,-4.6133,-4.6046,-4.5695,-4.5958,-4.6308,-4.6396,-4.6745,-4.7061,-4.7113,-4.7419,-4.7497,-4.701,-4.6948,-4.7049,-4.6996,-4.7331,-4.7709,-4.8251,-4.8931,-4.9191,-4.8842,-4.8873,-4.8836,-4.8733,-4.7991,-4.7948,-4.8689,-4.8361,-4.8361,-4.8798,-4.8482,-4.7985,-4.7422,-4.7044,-4.6455,-4.5581,-4.5581,-4.5374,-1.523,-1.9861,-2.4654,-2.9126,-3.2137,-3.3923,-3.3982,-3.5681,-3.7224,-3.6944,-3.8058,-3.9158,-3.9426,-4.0348,-4.1038,-4.1061,-4.1644,-4.2188,-4.2575,-4.3145,-4.3691,-4.3919,-4.3995,-4.4002,-4.4043,-4.4065,-4.4099,-4.4273,-4.4424,-4.4579,-4.4805,-4.4805,-4.4933,-4.5188,-4.4954,-4.4902,-4.5191,-4.5179,-4.5571,-4.6294,-4.7029,-4.7213,-4.7052,-4.7052,-4.673,-4.6266,-4.6266,-4.6266,-4.6347,-4.6509,-4.6832,-4.7314,-4.7533,-4.8012,-4.8612,-4.8829,-4.9228,-4.965,-4.9869,-5.0121,-5.0457,-5.0072,-5.0391,-5.0649,-4.9679,-4.8973,-4.8265,-4.7681,-4.6551,-4.5695,-4.5958,-4.5958,-4.5958,-4.6221,-4.6308,-4.6221,-4.6046,-4.6396,-4.6745,-4.7007,-4.7421,-4.7632,-4.7115,-4.764,-4.7834,-4.7093,-4.7194,-4.7438,-4.7716,-4.7864,-4.8172,-4.8591,-4.9185,-4.9432,-4.8951,-4.9185,-4.917,-4.8929,-4.8292,-4.8118,-4.8492,-4.8558,-4.8558,-4.8492,-4.836,-4.8092,-4.7592,-4.7234,-4.6667,-4.6057,-4.6057,-4.6034,-1.6683,-1.9744,-2.2343,-2.6499,-2.9622,-3.1739,-3.2356,-3.443,-3.637,-3.6637,-3.7732,-3.8854,-3.9364,-4.0468,-4.1224,-4.1182,-4.1805,-4.2358,-4.2461,-4.3174,-4.3843,-4.3974,-4.4504,-4.4803,-4.4705,-4.4791,-4.4878,-4.5011,-4.4996,-4.5031,-4.5106,-4.5106,-4.5277,-4.562,-4.5298,-4.5492,-4.6269,-4.6201,-4.6442,-4.7069,-4.7538,-4.7693,-4.7592,-4.7592,-4.7213,-4.667,-4.6633,-4.6532,-4.6368,-4.6677,-4.6879,-4.7014,-4.758,-4.796,-4.8374,-4.8851,-4.9417,-4.9847,-5.0087,-5.0573,-5.0996,-5.0162,-5.0397,-5.076,-4.9827,-4.8973,-4.8351,-4.8113,-4.6987,-4.587,-4.6046,-4.6036,-4.6025,-4.6377,-4.6543,-4.6562,-4.6348,-4.6571,-4.7007,-4.7441,-4.7854,-4.8041,-4.7267,-4.7729,-4.7941,-4.7154,-4.7336,-4.7659,-4.8043,-4.8248,-4.8475,-4.9003,-4.9439,-4.9446,-4.8967,-4.93,-4.922,-4.8771,-4.8161,-4.7956,-4.8165,-4.8405,-4.8349,-4.8031,-4.8093,-4.7933,-4.7592,-4.7073,-4.667,-4.6266,-4.6428,-4.667,-1.6088,-1.7853,-1.9571,-2.5005,-2.7678,-2.9412,-3.1388,-3.3436,-3.517,-3.6152,-3.7353,-3.8481,-3.9302,-3.9951,-4.0572,-4.1421,-4.1979,-4.2435,-4.2795,-4.3606,-4.4071,-4.3691,-4.4277,-4.4676,-4.4243,-4.46,-4.4977,-4.5374,-4.5352,-4.5555,-4.5928,-4.5928,-4.5928,-4.5971,-4.5928,-4.6168,-4.6647,-4.7563,-4.7887,-4.7483,-4.8036,-4.8012,-4.7592,-4.7592,-4.7613,-4.7554,-4.7596,-4.7148,-4.6409,-4.767,-4.7687,-4.7056,-4.7941,-4.8259,-4.8381,-4.9286,-4.9958,-5.0415,-5.1354,-5.1452,-5.1054,-5.0527,-5.0379,-5.0231,-4.9401,-4.8695,-4.8179,-4.7334,-4.6658,-4.6133,-4.5783,-4.6249,-4.6806,-4.6894,-4.7207,-4.7285,-4.6484,-4.6308,-4.6483,-4.692,-4.7441,-4.7733,-4.7695,-4.7667,-4.7568,-4.7113,-4.7004,-4.7196,-4.7554,-4.8034,-4.8605,-4.9461,-4.9616,-4.9459,-4.9065,-4.9046,-4.8837,-4.8316,-4.7389,-4.7242,-4.8143,-4.7793,-4.7518,-4.7561,-4.7618,-4.7592,-4.7592,-4.673,-4.6347,-4.6347,-4.6772,-4.7014,-1.4328,-1.6309,-1.8505,-2.1861,-2.495,-2.7614,-2.9422,-3.2114,-3.4595,-3.5582,-3.6823,-3.8026,-3.8869,-3.9702,-4.0406,-4.1027,-4.1503,-4.1876,-4.2021,-4.3278,-4.3985,-4.361,-4.4539,-4.4955,-4.4277,-4.4805,-4.4902,-4.423,-4.5158,-4.5574,-4.5175,-4.5679,-4.6155,-4.6461,-4.6177,-4.6395,-4.7204,-4.7859,-4.8261,-4.8409,-4.8583,-4.8569,-4.8432,-4.8735,-4.8726,-4.8527,-4.9136,-4.845,-4.6814,-4.7583,-4.7375,-4.6673,-4.7811,-4.8301,-4.8387,-4.9377,-5.0136,-5.0851,-5.1201,-5.1445,-5.1455,-5.1013,-5.0844,-5.0675,-4.9742,-4.9159,-4.8606,-4.8016,-4.7052,-4.6257,-4.6434,-4.6268,-4.6171,-4.6435,-4.6855,-4.7012,-4.6426,-4.6308,-4.6483,-4.692,-4.7181,-4.7388,-4.763,-4.766,-4.7647,-4.7444,-4.7645,-4.792,-4.806,-4.8704,-4.9163,-4.917,-4.999,-5.0126,-4.9018,-4.9768,-4.9855,-4.8735,-4.8344,-4.8314,-4.8645,-4.8492,-4.8314,-4.8014,-4.8067,-4.775,-4.7234,-4.659,-4.6266,-4.6266,-4.6428,-4.667,-1.3399,-1.5178,-1.7261,-1.9427,-2.2248,-2.5097,-2.7389,-3.0177,-3.2755,-3.4432,-3.5867,-3.7082,-3.8218,-3.9158,-3.9951,-4.0551,-4.1172,-4.1565,-4.1565,-4.2942,-4.3732,-4.3359,-4.4432,-4.4955,-4.4277,-4.4805,-4.4827,-4.3985,-4.5062,-4.5574,-4.4953,-4.5605,-4.6155,-4.6483,-4.6505,-4.681,-4.7488,-4.8255,-4.8815,-4.9065,-4.9065,-4.921,-4.9386,-4.9555,-4.9555,-4.9486,-5.0115,-4.9364,-4.7761,-4.8352,-4.8082,-4.7375,-4.8521,-4.8871,-4.8858,-4.9842,-5.0561,-5.1092,-5.1267,-5.1529,-5.1707,-5.1265,-5.1097,-5.0929,-5.0146,-4.9628,-4.9112,-4.8675,-4.774,-4.697,-4.7059,-4.6784,-4.6578,-4.6845,-4.7051,-4.707,-4.6797,-4.6504,-4.6483,-4.7094,-4.7268,-4.7428,-4.809,-4.8076,-4.7894,-4.7755,-4.8166,-4.8486,-4.8337,-4.9195,-4.9737,-4.941,-4.9996,-5.011,-4.9454,-4.9865,-4.9914,-4.9432,-4.8929,-4.8798,-4.9126,-4.882,-4.8575,-4.8251,-4.8484,-4.8085,-4.7223,-4.6737,-4.6493,-4.6575,-4.6985,-4.7451,0.0,0.0,0.0,-1.8036,-1.9766,-2.1805,-2.5504,-2.7548,-2.9584,-3.2691,-3.4278,-3.5642,-3.735,-3.8253,-3.9075,-3.9964,-4.0924,-4.1524,-4.1617,-4.2679,-4.3318,-4.289,-4.3983,-4.4633,-4.4201,-4.4579,-4.4805,-4.4784,-4.5181,-4.5405,-4.5384,-4.5779,-4.6024,-4.6024,-4.6985,-4.7509,-4.7509,-4.884,-4.946,-4.946,-4.946,-4.9703,-5.0144,-4.9789,-4.9912,-5.0327,-5.0349,-4.9881,-4.9249,-5.0017,-4.9847,-4.9185,-5.0048,-5.0127,-4.9864,-5.0752,-5.1092,-5.1157,-5.1638,-5.1791,-5.1707,-5.1265,-5.1097,-5.1013,-5.0591,-5.0057,-4.9655,-4.9133,-4.8687,-4.8226,-4.7758,-4.7891,-4.8203,-4.8183,-4.7871,-4.7578,-4.7558,-4.6894,-4.6571,-4.7548,-4.7721,-4.7961,-4.8887,-4.8686,-4.8231,-4.7775,-4.8461,-4.8868,-4.84,-4.9475,-5.0327,-5.0305,-4.9532,-4.9368,-5.0224,-4.9081,-4.8935,-5.0159,-4.8973,-4.8645,-4.9585,-4.8733,-4.8292,-4.8294,-4.8769,-4.8601,-4.7685,-4.7297,-4.7051,-4.7072,-4.8394,-4.9192,-1.4654,0.0,0.0,0.0,0.0,0.0,-2.3487,-2.5392,-2.7621,-3.1054,-3.2994,-3.4606,-3.6347,-3.7822,-3.8697,-3.8432,-3.9646,-4.0717,-4.1027,-4.1928,-4.2575,-4.2467,-4.3276,-4.3844,-4.3801,-4.4125,-4.4075,-4.3515,-4.4388,-4.4806,-4.4464,-4.5781,-4.6526,-4.6526,-4.7466,-4.799,-4.799,-4.868,-4.9065,-4.9065,-4.9065,-4.9307,-4.9789,-4.9978,-5.0393,-5.0895,-5.1245,-5.1231,-5.1065,-5.0623,-4.9903,-4.9206,-5.0079,-5.0351,-5.0256,-5.0898,-5.1344,-5.1616,-5.1747,-5.1791,-5.1791,-5.1623,-5.1623,-5.1604,-5.1422,-5.0799,-5.0104,-4.9991,-4.9102,-4.815,-4.7746,-4.7891,-4.8125,-4.7832,-4.7656,-4.75,-4.7187,-4.6944,-4.6999,-4.7491,-4.7661,-4.7874,-4.8458,-4.8527,-4.8366,-4.8252,-4.8944,-4.9358,-4.889,-4.9972,-5.072,-5.0349,-5.0713,-5.0713,-4.9831,-5.0105,-5.0018,-4.9344,-4.9257,-4.9344,-4.9628,-4.9366,-4.9053,-4.8798,-4.9274,-4.8929,-4.7651,-4.792,-4.8003,-4.8024,-4.8728,-4.9303,0.0,0.0,-1.8769,-1.9187,0.0,0.0,-2.2591,-2.4067,-2.5865,-2.888,-3.078,-3.2368,-3.3684,-3.5308,-3.6269,-3.5861,-3.7005,-3.8588,-4.0356,-4.1367,-4.196,-4.2011,-4.2761,-4.3239,-4.3284,-4.3718,-4.3718,-4.3221,-4.4205,-4.4752,-4.4624,-4.5588,-4.6225,-4.642,-4.7411,-4.799,-4.8165,-4.8824,-4.9144,-4.9144,-4.9144,-4.9386,-4.9869,-5.0168,-5.0589,-5.1092,-5.1594,-5.1791,-5.1769,-5.1235,-5.0703,-5.026,-5.0798,-5.1009,-5.1065,-5.1263,-5.1539,-5.1791,-5.1791,-5.1791,-5.1791,-5.1791,-5.1922,-5.2056,-5.2063,-5.1397,-5.0558,-5.0648,-4.9613,-4.8509,-4.8456,-4.8483,-4.8359,-4.7949,-4.8032,-4.8134,-4.7789,-4.7928,-4.8089,-4.7994,-4.8144,-4.8397,-4.8917,-4.9004,-4.8949,-4.8733,-4.947,-4.9931,-4.9628,-5.0656,-5.1179,-5.0677,-5.097,-5.0883,-5.0,-5.0099,-5.0121,-4.9825,-4.9497,-4.9606,-5.0196,-5.0021,-4.9719,-4.9286,-5.0361,-5.0499,-4.966,-4.9175,-4.9006,-4.9258,-4.9339,-4.9692,0.0,0.0,0.0,-2.0262,-2.0269,0.0,-2.2354,-2.3186,-2.4245,-2.6591,-2.8179,-2.9418,-3.0303,-3.1667,-3.2672,-3.2758,-3.3842,-3.5911,-3.9404,-4.0646,-4.1245,-4.1462,-4.2207,-4.2745,-4.2911,-4.3284,-4.3553,-4.3615,-4.4277,-4.488,-4.533,-4.5448,-4.5707,-4.6279,-4.7138,-4.7793,-4.8252,-4.9082,-4.946,-4.946,-4.946,-4.9703,-5.0167,-5.0205,-5.0502,-5.1026,-5.1507,-5.1725,-5.1725,-5.1791,-5.1791,-5.1791,-5.1791,-5.1791,-5.1791,-5.1791,-5.1791,-5.1791,-5.1791,-5.1791,-5.1813,-5.1856,-5.214,-5.2512,-5.2514,-5.1847,-5.1087,-5.0881,-4.9924,-4.9032,-4.9512,-4.9328,-4.8954,-4.8561,-4.8808,-4.906,-4.906,-4.94,-4.9508,-4.8763,-4.8993,-4.9369,-4.9763,-4.9804,-4.9687,-4.928,-4.9934,-5.0484,-5.0515,-5.1278,-5.1638,-5.1201,-5.0804,-5.0505,-5.0355,-4.9697,-4.9806,-5.0939,-4.9905,-4.9796,-5.1026,-5.0759,-5.036,-4.9933,-5.1499,-5.2345,-5.2412,-5.074,-5.0187,-5.0549,-5.0101,-5.0374,-2.155,-2.1091,-2.119,-2.1118,-2.0922,0.0,-2.1074,-2.1758,-2.2977,-2.5308,-2.6099,-2.6917,-2.8596,-2.9901,-3.0487,-3.0057,-3.1992,-3.4556,-3.7402,-3.8199,-3.9158,-4.0811,-4.1172,-4.171,-4.2807,-4.2994,-4.3201,-4.3594,-4.405,-4.4504,-4.488,-4.5545,-4.6355,-4.7181,-4.7793,-4.8274,-4.8755,-4.8943,-4.8986,-4.8986,-4.8986,-4.9227,-4.9708,-4.9716,-5.0021,-5.0502,-5.0983,-5.1223,-5.1245,-5.1638,-5.1791,-5.1791,-5.1791,-5.1791,-5.1791,-5.1791,-5.1791,-5.1791,-5.1791,-5.1791,-5.1856,-5.2228,-5.2402,-5.2536,-5.2975,-5.2358,-5.1417,-5.0186,-4.9708,-4.9512,-4.9604,-4.9787,-5.0042,-4.9962,-4.9753,-4.9603,-4.9603,-4.9668,-4.978,-4.9977,-5.0087,-5.0089,-4.9825,-5.0052,-5.0144,-4.9657,-5.0336,-5.0975,-5.0927,-5.1474,-5.1769,-5.166,-5.1576,-5.138,-5.0961,-5.1076,-5.1004,-5.048,-5.122,-5.1501,-5.1152,-5.1768,-5.1849,-5.1399,-5.1402,-5.1595,-5.1938,-5.1594,-5.1423,-5.1487,-5.1458,-5.1452,-2.313,-2.2472,-2.2527,-2.2633,-2.2102,0.0,0.0,-2.247,-2.299,-2.4824,-2.4881,-2.5037,-2.617,-2.6981,-2.7323,-2.6673,-2.8663,-3.1011,-3.2906,-3.5665,-3.8085,-3.9695,-3.9935,-4.0442,-4.1793,-4.175,-4.2195,-4.3427,-4.3924,-4.4352,-4.4805,-4.588,-4.6735,-4.7444,-4.8157,-4.8718,-4.9201,-4.8986,-4.8986,-4.9223,-4.8986,-4.9118,-4.9518,-4.9599,-4.9759,-5.0021,-5.0742,-5.107,-5.1114,-5.1594,-5.1791,-5.1791,-5.1791,-5.1791,-5.1791,-5.1791,-5.1791,-5.1791,-5.1791,-5.1944,-5.2184,-5.2402,-5.2817,-5.3212,-5.3234,-5.25,-5.1571,-5.0621,-5.0154,-4.9971,-5.0245,-5.0337,-5.0337,-5.0337,-5.0358,-5.0378,-5.0378,-5.0556,-5.0812,-5.1039,-5.128,-5.1322,-5.0881,-5.0777,-5.0722,-5.0697,-5.1146,-5.1466,-5.1436,-5.1819,-5.2053,-5.1834,-5.1958,-5.1905,-5.1422,-5.1624,-5.1596,-5.1353,-5.1819,-5.2086,-5.2061,-5.2791,-5.3071,-5.2866,-5.2197,-5.2175,-5.2866,-5.2866,-5.2325,-5.1464,-5.1648,-5.1969,-2.4611,-2.406,-2.4325,-2.4936,-2.4022,-2.3275,0.0,0.0,0.0,-2.4327,-2.3965,-2.3581,-2.389,-2.4267,-2.4296,-2.3742,-2.5552,-2.7377,-2.8407,-3.2598,-3.6158,-3.7499,-3.7854,-3.8506,-3.9836,-3.9941,-4.0802,-4.2983,-4.3434,-4.391,-4.4528,-4.602,-4.7039,-4.7575,-4.8466,-4.9107,-4.9617,-4.939,-4.9434,-4.975,-4.9544,-4.9566,-4.9747,-4.9825,-4.984,-4.9803,-5.0699,-5.107,-5.1114,-5.1594,-5.1791,-5.1791,-5.1791,-5.1791,-5.1791,-5.1791,-5.1791,-5.1813,-5.19,-5.2184,-5.2512,-5.2708,-5.3191,-5.3646,-5.3185,-5.2376,-5.161,-5.1248,-5.0793,-5.0519,-5.0975,-5.0884,-5.0611,-5.0611,-5.0884,-5.1248,-5.1248,-5.152,-5.1791,-5.1791,-5.2102,-5.2263,-5.1857,-5.1652,-5.158,-5.1874,-5.2024,-5.2066,-5.1925,-5.2249,-5.2315,-5.1856,-5.2187,-5.226,-5.1861,-5.2004,-5.225,-5.2518,-5.2444,-5.2667,-5.3213,-5.3664,-5.3816,-5.3626,-5.2975,-5.2996,-5.3757,-5.3757,-5.306,-5.1676,-5.195,-5.2298,-2.68,-2.6737,-2.7589,-2.8661,-2.7369,-2.5983,-2.647,0.0,-2.3456,-2.2891,0.0,-2.2672,-2.2774,0.0,0.0,-2.2741,-2.421,-2.5649,-2.6404,-2.8463,-3.0781,-3.3342,-3.4037,-3.4918,-3.6476,-3.7569,-3.9158,-4.1659,-4.1524,-4.203,-4.3602,-4.5651,-4.7191,-4.8056,-4.885,-4.9573,-5.0143,-5.0512,-5.0657,-5.0736,-5.1183,-5.1224,-5.0844,-5.0807,-5.0586,-5.0262,-5.083,-5.107,-5.1114,-5.1594,-5.1791,-5.1791,-5.1791,-5.1791,-5.1791,-5.1791,-5.1791,-5.1856,-5.2271,-5.2446,-5.2621,-5.3495,-5.3514,-5.3145,-5.2698,-5.191,-5.1157,-5.1157,-5.1066,-5.1066,-5.1066,-5.1338,-5.161,-5.161,-5.1701,-5.1701,-5.1701,-5.1791,-5.1791,-5.1791,-5.1853,-5.1889,-5.1794,-5.245,-5.2872,-5.2454,-5.2779,-5.2909,-5.2427,-5.2446,-5.2315,-5.1856,-5.2187,-5.2415,-5.2348,-5.3093,-5.3446,-5.3011,-5.4101,-5.4479,-5.3856,-5.3864,-5.349,-5.2693,-5.2974,-5.3191,-5.3298,-5.3235,-5.3343,-5.3604,-5.3168,-5.3101,-3.2121,-3.2135,-3.219,-3.1475,-2.9822,-2.8121,-2.7001,-2.5288,-2.3958,-2.3842,0.0,0.0,0.0,0.0,0.0,0.0,-2.367,-2.4755,-2.4823,-2.5853,-2.7919,-3.1486,-3.2176,-3.2991,-3.4639,-3.6127,-3.7677,-3.9219,-3.964,-4.0864,-4.3271,-4.526,-4.7068,-4.8718,-4.9387,-4.9982,-5.0555,-5.0524,-5.0771,-5.1278,-5.1266,-5.1455,-5.1725,-5.1483,-5.13,-5.1079,-5.1322,-5.146,-5.1504,-5.1678,-5.1791,-5.1834,-5.2097,-5.2031,-5.1791,-5.1791,-5.1966,-5.2228,-5.2424,-5.2861,-5.3364,-5.3777,-5.3593,-5.314,-5.2671,-5.2041,-5.152,-5.152,-5.152,-5.152,-5.152,-5.161,-5.1791,-5.1791,-5.1791,-5.1791,-5.1791,-5.1791,-5.1965,-5.2507,-5.2639,-5.2758,-5.3379,-5.3119,-5.2911,-5.3278,-5.3452,-5.343,-5.2992,-5.2905,-5.2815,-5.2609,-5.2697,-5.2935,-5.3183,-5.3536,-5.3783,-5.382,-5.4673,-5.4918,-5.435,-5.4297,-5.3897,-5.2952,-5.3408,-5.3648,-5.3582,-5.3931,-5.415,-5.4346,-5.356,-5.3363,-3.627,-3.6448,-3.6149,-3.409,-3.2197,-3.0303,-2.8213,-2.6423,-2.5107,-2.5006,-2.4572,0.0,0.0,0.0,-2.3805,-2.2994,0.0,-2.453,-2.3945,-2.4394,-2.6011,-2.9271,-3.0386,-3.154,-3.3115,-3.4185,-3.5471,-3.7061,-3.7591,-3.9214,-4.2401,-4.4453,-4.6547,-4.8634,-4.9564,-5.0298,-5.0716,-5.0779,-5.1141,-5.1877,-5.1719,-5.2058,-5.2694,-5.2371,-5.221,-5.2047,-5.2079,-5.2048,-5.2093,-5.1971,-5.2042,-5.2169,-5.2547,-5.2462,-5.2177,-5.214,-5.2402,-5.2708,-5.2839,-5.3429,-5.4106,-5.3835,-5.3498,-5.3051,-5.2513,-5.2062,-5.1833,-5.1957,-5.1998,-5.2019,-5.2143,-5.2081,-5.1998,-5.1998,-5.1895,-5.1791,-5.1791,-5.1985,-5.2353,-5.3051,-5.3275,-5.366,-5.4586,-5.3719,-5.3161,-5.3953,-5.4019,-5.3822,-5.3451,-5.3407,-5.3361,-5.3171,-5.3276,-5.3401,-5.3806,-5.4001,-5.4362,-5.4829,-5.5145,-5.5199,-5.4642,-5.4606,-5.4268,-5.3407,-5.3757,-5.3997,-5.415,-5.463,-5.4849,-5.4827,-5.3997,-5.38,-3.7616,-3.8273,-3.8605,-3.6774,-3.4608,-3.2544,-3.0982,-2.9066,-2.7201,-2.5678,-2.6579,-2.7201,-2.5589,0.0,0.0,0.0,0.0,0.0,0.0,-2.4301,-2.4902,-2.5848,-2.816,-3.0243,-3.171,-3.1219,-3.2228,-3.5725,-3.5352,-3.6621,-4.0192,-4.3051,-4.5292,-4.7019,-4.9019,-5.0269,-5.0574,-5.1638,-5.2395,-5.2878,-5.3406,-5.3668,-5.3738,-5.3738,-5.3468,-5.3033,-5.3056,-5.3056,-5.2973,-5.2581,-5.2664,-5.3062,-5.3136,-5.3167,-5.3149,-5.3163,-5.3167,-5.3254,-5.3735,-5.4215,-5.4542,-5.3498,-5.323,-5.3051,-5.2062,-5.1791,-5.1895,-5.235,-5.2474,-5.2578,-5.3013,-5.2806,-5.2474,-5.2474,-5.2122,-5.1791,-5.1791,-5.2507,-5.3184,-5.3184,-5.3548,-5.4092,-5.4586,-5.4245,-5.3989,-5.463,-5.4237,-5.3844,-5.3931,-5.391,-5.3733,-5.3215,-5.3588,-5.3783,-5.3828,-5.4651,-5.538,-5.5839,-5.5921,-5.5563,-5.4664,-5.4598,-5.4345,-5.391,-5.3844,-5.4172,-5.4719,-5.5133,-5.5351,-5.5351,-5.4849,-5.463,0.0,0.0,-4.4003,-4.1492,-3.9478,-3.7465,-3.4819,-3.3351,-3.1872,-2.9597,-3.0987,0.0,0.0,0.0,0.0,0.0,0.0,0.0,0.0,-2.4605,-2.538,-2.6182,-2.7885,-2.9144,-2.9595,-3.0269,-3.1303,-3.2942,-3.4006,-3.6046,-3.9544,-4.1704,-4.4208,-4.7265,-4.8411,-4.9651,-5.1133,-5.15,-5.2097,-5.2901,-5.3084,-5.3532,-5.4171,-5.4171,-5.4089,-5.3925,-5.3678,-5.3694,-5.3965,-5.3213,-5.3398,-5.4086,-5.3735,-5.3853,-5.4118,-5.3792,-5.3666,-5.3757,-5.4588,-5.4785,-5.4564,-5.3854,-5.3409,-5.3114,-5.2437,-5.2267,-5.235,-5.2826,-5.295,-5.2992,-5.3137,-5.2847,-5.2495,-5.2495,-5.2143,-5.1791,-5.1791,-5.2255,-5.3036,-5.3971,-5.4054,-5.431,-5.5448,-5.4669,-5.4105,-5.4609,-5.4521,-5.4412,-5.4412,-5.3866,-5.371,-5.4484,-5.4159,-5.4243,-5.507,-5.5503,-5.5748,-5.5931,-5.5966,-5.5608,-5.4664,-5.4931,-5.4939,-5.4412,-5.474,-5.5133,-5.5613,-5.5788,-5.6034,-5.6304,-5.5881,-5.5439,-4.7889,-4.7772,0.0,-4.4275,-4.2632,0.0,-3.7989,0.0,-3.5779,0.0,0.0,0.0,0.0,0.0,0.0,0.0,0.0,0.0,0.0,-2.5353,-2.6014,-2.6544,-2.7733,-2.86,-2.8778,-2.9394,-3.047,-3.2002,-3.3098,-3.5208,-3.8774,-4.0784,-4.3354,-4.6677,-4.7904,-4.9342,-5.1133,-5.15,-5.2097,-5.2901,-5.3084,-5.3612,-5.4416,-5.4416,-5.4508,-5.4691,-5.4385,-5.4576,-5.4903,-5.4168,-5.4333,-5.5004,-5.4759,-5.4856,-5.5037,-5.4386,-5.4171,-5.4237,-5.4895,-5.4829,-5.4298,-5.3854,-5.3426,-5.3098,-5.2666,-5.2599,-5.2826,-5.3282,-5.3427,-5.3447,-5.3613,-5.3323,-5.293,-5.2764,-5.2392,-5.204,-5.204,-5.2686,-5.3604,-5.4691,-5.4781,-5.5021,-5.596,-5.5045,-5.4303,-5.4609,-5.4521,-5.439,-5.439,-5.3866,-5.3862,-5.4942,-5.449,-5.4733,-5.6077,-5.6207,-5.6276,-5.6459,-5.6341,-5.5956,-5.5117,-5.5445,-5.5445,-5.4914,-5.5395,-5.581,-5.6116,-5.6269,-5.6538,-5.6811,-5.6538,-5.6181]},{"header":{"parameterUnit":"m.s-1","parameterCategory":1,"la1":30.6,"la2":29.2853,"lo1":-89.7004,"lo2":-87.6739,"dy":0.0162,"dx":0.0183,"nx":112,"ny":82,"refTime":"2024-03-21T18:00:00:Z","depth":0,"parameterNumber":3,"parameterNumberName":"V-component_of_WINDS"},"data":[0.0,0.0,0.0,0.0,0.0,0.0,0.0,0.0,0.0,0.0,0.0,0.0,0.0,0.0,0.0,0.0,0.0,0.0,0.0,0.0,0.0,0.0,0.0,0.0,0.0,0.0,0.0,0.0,0.0,0.0,0.0,0.0,0.0,0.0,0.0,0.0,0.0,0.0,0.0,0.0,0.0,0.0,0.0,0.0,0.0,0.0,0.0,0.0,0.0,0.0,0.0,0.0,0.0,0.0,0.0,0.0,0.0,0.0,0.0,0.0,0.0,0.0,0.0,0.0,0.0,0.0,0.0,0.0,0.0,0.0,0.0,0.0,0.0,0.0,0.0,0.0,0.0,0.0,0.0,0.0,0.0,0.0,0.0,0.0,0.0,0.0,0.0,0.0,0.0,0.0,3.3114,3.4618,3.8627,4.0901,4.0176,3.9093,3.7114,3.4006,0.0,0.0,0.0,0.0,0.0,0.0,0.0,0.0,0.0,0.0,0.0,0.0,0.0,0.0,0.0,0.0,0.0,0.0,0.0,0.0,0.0,0.0,0.0,0.0,0.0,0.0,0.0,0.0,0.0,0.0,0.0,0.0,0.0,0.0,0.0,0.0,0.0,0.0,0.0,0.0,0.0,0.0,0.0,0.0,0.0,0.0,0.0,0.0,0.0,0.0,0.0,0.0,0.0,0.0,0.0,0.0,0.0,0.0,0.0,0.0,0.0,0.0,0.0,0.0,0.0,0.0,0.0,0.0,0.0,0.0,0.0,0.0,0.0,0.0,0.0,0.0,0.0,0.0,0.0,0.0,0.0,0.0,0.0,0.0,0.0,0.0,0.0,0.0,0.0,0.0,0.0,0.0,0.0,0.0,0.0,0.0,0.0,0.0,0.0,0.0,0.0,0.0,0.0,0.0,3.4932,3.8743,4.1474,4.2082,3.9785,3.9589,3.7962,3.4224,0.0,0.0,0.0,0.0,0.0,0.0,0.0,0.0,0.0,0.0,0.0,0.0,0.0,0.0,0.0,0.0,0.0,0.0,0.0,0.0,0.0,0.0,0.0,0.0,0.0,0.0,0.0,0.0,0.0,0.0,0.0,0.0,0.0,0.0,0.0,0.0,0.0,0.0,0.0,0.0,0.0,0.0,0.0,0.0,0.0,0.0,0.0,0.0,0.0,0.0,0.0,0.0,0.0,0.0,0.0,0.0,0.0,0.0,0.0,0.0,0.0,0.0,0.0,0.0,0.0,0.0,0.0,0.0,0.0,0.0,0.0,0.0,0.0,0.0,0.0,0.0,0.0,0.0,0.0,0.0,0.0,0.0,0.0,0.0,0.0,0.0,0.0,0.0,0.0,0.0,0.0,0.0,0.0,0.0,0.0,0.0,0.0,0.0,0.0,0.0,0.0,0.0,0.0,3.6048,3.9423,4.3369,4.4169,4.3879,4.2461,4.1558,3.9499,3.5853,3.3513,0.0,0.0,0.0,0.0,0.0,0.0,0.0,0.0,0.0,0.0,0.0,0.0,0.0,0.0,0.0,0.0,0.0,0.0,0.0,0.0,0.0,0.0,0.0,0.0,0.0,0.0,0.0,0.0,0.0,0.0,0.0,0.0,0.0,0.0,0.0,0.0,0.0,0.0,0.0,0.0,0.0,0.0,0.0,0.0,0.0,0.0,0.0,0.0,0.0,0.0,0.0,0.0,0.0,0.0,0.0,0.0,0.0,0.0,0.0,0.0,0.0,0.0,0.0,0.0,0.0,0.0,0.0,0.0,0.0,0.0,0.0,0.0,0.0,0.0,0.0,0.0,0.0,0.0,0.0,0.0,0.0,0.0,0.0,0.0,0.0,0.0,0.0,0.0,0.0,0.0,0.0,0.0,0.0,0.0,0.0,0.0,0.0,0.0,0.0,0.0,0.0,0.0,4.0241,4.3317,4.6463,4.6089,4.5429,4.4942,4.3052,4.046,3.7257,3.4609,0.0,0.0,0.0,0.0,0.0,0.0,0.0,0.0,0.0,0.0,0.0,0.0,0.0,0.0,0.0,0.0,0.0,0.0,0.0,0.0,0.0,0.0,0.0,0.0,0.0,0.0,0.0,0.0,0.0,0.0,0.0,0.0,0.0,0.0,0.0,0.0,0.0,0.0,0.0,0.0,0.0,0.0,0.0,0.0,0.0,0.0,0.0,0.0,0.0,0.0,0.0,0.0,0.0,0.0,0.0,0.0,0.0,0.0,0.0,0.0,0.0,0.0,0.0,0.0,0.0,0.0,0.0,0.0,0.0,0.0,0.0,0.0,0.0,0.0,0.0,0.0,0.0,0.0,0.0,0.0,0.0,0.0,0.0,0.0,0.0,0.0,0.0,0.0,0.0,0.0,0.0,0.0,0.0,0.0,0.0,0.0,0.0,0.0,0.0,0.0,0.0,0.0,4.0858,4.4553,4.6239,4.6499,4.627,4.565,4.2877,4.0042,3.7332,3.4289,0.0,0.0,0.0,0.0,0.0,0.0,0.0,0.0,0.0,0.0,0.0,0.0,0.0,0.0,0.0,0.0,0.0,0.0,0.0,0.0,0.0,0.0,0.0,0.0,0.0,0.0,0.0,0.0,0.0,0.0,0.0,0.0,0.0,0.0,0.0,0.0,0.0,0.0,0.0,0.0,0.0,0.0,0.0,0.0,0.0,0.0,0.0,0.0,0.0,0.0,0.0,0.0,0.0,0.0,0.0,0.0,0.0,0.0,0.0,0.0,0.0,0.0,0.0,0.0,0.0,0.0,0.0,0.0,0.0,0.0,0.0,0.0,0.0,0.0,0.0,0.0,0.0,0.0,0.0,0.0,0.0,0.0,0.0,0.0,0.0,0.0,0.0,0.0,0.0,0.0,0.0,0.0,0.0,0.0,0.0,0.0,0.0,0.0,0.0,0.0,0.0,0.0,4.3534,4.7216,4.8027,4.8075,4.7555,4.6358,4.4658,4.1829,3.7486,0.0,0.0,0.0,0.0,0.0,0.0,0.0,0.0,0.0,0.0,0.0,0.0,0.0,0.0,0.0,0.0,0.0,0.0,0.0,0.0,0.0,0.0,0.0,0.0,0.0,0.0,0.0,0.0,0.0,0.0,0.0,0.0,0.0,0.0,0.0,0.0,0.0,0.0,0.0,0.0,0.0,0.0,0.0,0.0,0.0,0.0,0.0,0.0,0.0,0.0,0.0,0.0,0.0,0.0,0.0,0.0,0.0,0.0,0.0,0.0,0.0,0.0,0.0,0.0,0.0,0.0,0.0,0.0,0.0,0.0,0.0,0.0,0.0,0.0,0.0,0.0,0.0,0.0,0.0,0.0,0.0,0.0,0.0,0.0,0.0,0.0,0.0,0.0,0.0,0.0,0.0,0.0,0.0,0.0,0.0,0.0,0.0,0.0,0.0,0.0,0.0,0.0,4.0149,4.5196,4.888,4.9704,4.9131,4.8397,4.7717,4.5991,4.2955,3.8335,0.0,0.0,0.0,0.0,0.0,0.0,0.0,0.0,0.0,0.0,0.0,0.0,0.0,0.0,0.0,0.0,0.0,0.0,0.0,0.0,0.0,0.0,0.0,0.0,0.0,0.0,0.0,0.0,0.0,0.0,0.0,0.0,0.0,0.0,0.0,0.0,0.0,0.0,0.0,0.0,0.0,0.0,0.0,0.0,0.0,0.0,0.0,0.0,0.0,0.0,0.0,0.0,0.0,0.0,0.0,0.0,0.0,0.0,0.0,0.0,0.0,0.0,0.0,0.0,0.0,0.0,0.0,0.0,0.0,0.0,0.0,0.0,0.0,0.0,0.0,0.0,0.0,0.0,0.0,0.0,0.0,0.0,0.0,0.0,0.0,0.0,0.0,0.0,0.0,0.0,0.0,0.0,0.0,0.0,0.0,0.0,0.0,0.0,0.0,0.0,0.0,0.0,4.0804,4.5427,4.9159,5.0834,4.9337,4.871,4.9796,4.6506,4.3101,0.0,0.0,0.0,0.0,0.0,0.0,0.0,0.0,0.0,0.0,0.0,0.0,0.0,0.0,0.0,0.0,0.0,0.0,0.0,0.0,0.0,0.0,0.0,0.0,0.0,0.0,0.0,0.0,0.0,0.0,0.0,0.0,0.0,0.0,0.0,0.0,0.0,0.0,0.0,0.0,0.0,0.0,0.0,0.0,0.0,0.0,0.0,0.0,0.0,0.0,0.0,0.0,0.0,0.0,0.0,0.0,0.0,0.0,0.0,0.0,0.0,0.0,0.0,0.0,0.0,0.0,0.0,0.0,0.0,0.0,0.0,0.0,0.0,0.0,0.0,0.0,0.0,0.0,0.0,0.0,0.0,0.0,0.0,0.0,0.0,0.0,0.0,0.0,0.0,0.0,0.0,0.0,0.0,0.0,0.0,0.0,0.0,0.0,0.0,0.0,0.0,0.0,0.0,4.2855,4.7792,5.1351,5.1929,5.1647,5.1165,5.0378,4.8604,4.603,4.2465,0.0,0.0,0.0,0.0,0.0,0.0,0.0,0.0,0.0,0.0,0.0,0.0,0.0,0.0,0.0,0.0,0.0,0.0,0.0,0.0,0.0,0.0,0.0,0.0,0.0,0.0,0.0,0.0,0.0,0.0,0.0,0.0,0.0,0.0,0.0,0.0,0.0,0.0,0.0,0.0,0.0,0.0,0.0,0.0,0.0,0.0,0.0,0.0,0.0,0.0,0.0,0.0,0.0,0.0,0.0,0.0,0.0,0.0,0.0,0.0,0.0,0.0,0.0,0.0,0.0,0.0,0.0,0.0,0.0,0.0,0.0,0.0,0.0,0.0,0.0,0.0,0.0,0.0,0.0,0.0,0.0,0.0,0.0,0.0,0.0,0.0,0.0,0.0,0.0,0.0,0.0,0.0,0.0,0.0,0.0,0.0,0.0,0.0,0.0,0.0,0.0,0.0,4.3659,4.8666,5.2007,5.1932,5.2437,5.2318,5.1136,5.0164,4.809,4.4489,0.0,0.0,0.0,0.0,0.0,0.0,0.0,0.0,0.0,0.0,0.0,0.0,0.0,0.0,0.0,0.0,0.0,0.0,0.0,0.0,0.0,0.0,0.0,0.0,0.0,0.0,0.0,0.0,0.0,0.0,0.0,0.0,0.0,0.0,0.0,0.0,0.0,0.0,0.0,0.0,0.0,0.0,0.0,0.0,0.0,0.0,0.0,0.0,0.0,0.0,0.0,0.0,0.0,0.0,0.0,0.0,0.0,0.0,0.0,0.0,0.0,0.0,0.0,0.0,0.0,0.0,0.0,0.0,0.0,0.0,0.0,0.0,0.0,0.0,0.0,0.0,0.0,0.0,0.0,0.0,0.0,0.0,0.0,0.0,0.0,0.0,0.0,0.0,0.0,0.0,0.0,0.0,0.0,0.0,0.0,0.0,0.0,0.0,0.0,0.0,0.0,0.0,4.3737,4.8698,5.1887,5.1601,5.2472,5.2772,5.207,5.1387,4.9664,4.6515,0.0,0.0,0.0,0.0,0.0,0.0,0.0,0.0,0.0,0.0,0.0,0.0,0.0,0.0,0.0,0.0,0.0,0.0,0.0,0.0,0.0,0.0,0.0,0.0,0.0,0.0,0.0,0.0,0.0,0.0,0.0,0.0,0.0,0.0,0.0,0.0,0.0,0.0,0.0,0.0,0.0,0.0,0.0,0.0,0.0,0.0,0.0,0.0,0.0,0.0,0.0,0.0,0.0,0.0,0.0,0.0,0.0,0.0,0.0,0.0,3.7269,3.5457,0.0,0.0,0.0,0.0,0.0,0.0,0.0,0.0,0.0,0.0,0.0,0.0,0.0,0.0,0.0,0.0,0.0,0.0,0.0,0.0,0.0,0.0,0.0,0.0,0.0,0.0,0.0,0.0,0.0,0.0,0.0,0.0,0.0,0.0,0.0,0.0,0.0,0.0,0.0,0.0,4.5934,5.0361,5.35,5.4251,5.473,5.464,5.3734,5.3047,5.1703,4.9463,4.6803,0.0,0.0,0.0,0.0,0.0,0.0,0.0,0.0,0.0,0.0,0.0,0.0,0.0,0.0,0.0,0.0,0.0,0.0,0.0,0.0,0.0,0.0,0.0,0.0,0.0,0.0,0.0,0.0,0.0,0.0,0.0,0.0,0.0,0.0,0.0,0.0,0.0,0.0,0.0,0.0,0.0,0.0,0.0,0.0,0.0,0.0,0.0,0.0,0.0,0.0,0.0,0.0,0.0,0.0,0.0,0.0,0.0,0.0,0.0,4.2807,4.0479,0.0,0.0,0.0,0.0,0.0,0.0,0.0,0.0,0.0,0.0,0.0,0.0,0.0,0.0,0.0,0.0,0.0,0.0,0.0,0.0,0.0,0.0,0.0,0.0,0.0,0.0,0.0,0.0,0.0,0.0,0.0,0.0,0.0,0.0,0.0,0.0,0.0,0.0,0.0,0.0,4.6215,5.0933,5.4127,5.4241,5.494,5.506,5.4251,5.3892,5.2965,5.1289,4.9119,0.0,0.0,0.0,0.0,0.0,0.0,0.0,0.0,0.0,0.0,0.0,0.0,0.0,0.0,0.0,0.0,0.0,0.0,0.0,0.0,0.0,0.0,0.0,0.0,0.0,0.0,0.0,0.0,0.0,0.0,0.0,0.0,0.0,0.0,0.0,0.0,0.0,0.0,0.0,0.0,0.0,0.0,0.0,0.0,0.0,0.0,0.0,0.0,0.0,0.0,0.0,0.0,0.0,5.1493,5.1868,5.1932,5.2649,5.2507,5.1474,4.8339,4.6061,4.4596,4.378,0.0,0.0,0.0,0.0,0.0,0.0,0.0,0.0,0.0,0.0,0.0,0.0,0.0,0.0,0.0,0.0,0.0,0.0,0.0,0.0,0.0,0.0,0.0,0.0,5.0102,4.9988,4.3417,0.0,0.0,0.0,0.0,0.0,0.0,0.0,0.0,0.0,0.0,0.0,4.6254,5.1282,5.4454,5.3759,5.467,5.512,5.4481,5.4281,5.3743,5.2636,5.1199,4.879,0.0,0.0,0.0,0.0,0.0,0.0,0.0,0.0,0.0,0.0,0.0,0.0,0.0,0.0,0.0,0.0,0.0,0.0,0.0,0.0,0.0,0.0,0.0,0.0,0.0,0.0,0.0,0.0,0.0,0.0,0.0,0.0,3.6637,3.6619,0.0,0.0,0.0,0.0,0.0,0.0,0.0,0.0,0.0,0.0,0.0,0.0,0.0,4.9587,5.0758,5.2649,5.3519,5.341,5.4941,5.4936,5.3656,5.5382,5.5219,5.358,5.3883,0.0,4.8651,4.6946,0.0,0.0,0.0,0.0,0.0,0.0,0.0,0.0,0.0,0.0,0.0,0.0,0.0,0.0,0.0,0.0,0.0,0.0,0.0,0.0,0.0,0.0,5.0736,5.2389,5.3383,5.3524,0.0,4.7762,4.4275,4.3976,4.0974,0.0,0.0,0.0,0.0,0.0,0.0,0.0,4.8106,5.2412,5.5353,5.5596,5.5758,5.575,5.546,5.467,5.4132,5.3952,5.2157,5.0331,4.873,4.695,0.0,0.0,0.0,0.0,0.0,0.0,0.0,0.0,0.0,0.0,0.0,0.0,0.0,0.0,0.0,0.0,0.0,0.0,0.0,0.0,0.0,0.0,0.0,0.0,0.0,0.0,0.0,0.0,0.0,3.8362,3.9378,4.0461,3.9556,3.9417,0.0,0.0,0.0,0.0,0.0,0.0,0.0,0.0,0.0,5.005,5.1596,5.2853,5.3735,5.5057,5.5643,5.5452,5.6111,5.5961,5.5169,5.5919,5.5661,5.4775,5.5385,5.4424,5.2328,5.0674,4.9836,4.9185,0.0,0.0,0.0,0.0,4.4451,4.6112,4.7117,4.7742,4.8155,4.8497,0.0,0.0,0.0,0.0,0.0,0.0,0.0,4.7176,0.0,0.0,5.4684,5.5604,5.5919,5.5799,5.5227,5.2817,5.0358,0.0,4.6955,4.4804,4.254,0.0,0.0,0.0,0.0,4.937,5.0618,5.3802,5.6036,5.6164,5.6195,5.5998,5.5631,5.5028,5.4288,5.3456,5.236,5.0973,4.9163,4.8194,4.5985,0.0,0.0,0.0,0.0,0.0,0.0,0.0,0.0,0.0,0.0,0.0,0.0,0.0,0.0,0.0,0.0,0.0,0.0,0.0,0.0,0.0,0.0,0.0,0.0,0.0,0.0,0.0,0.0,4.0896,4.2294,4.3813,4.3198,4.3228,0.0,0.0,0.0,0.0,0.0,0.0,4.8974,5.076,5.2129,5.2926,5.414,5.5256,5.6145,5.6713,5.6978,5.6978,5.6981,5.6685,5.6086,5.6278,5.597,5.5409,5.5799,5.5555,5.4775,5.3622,5.2496,5.1401,5.0263,4.9787,4.9593,4.8659,4.9616,5.1451,5.2169,5.3165,5.4143,5.4128,5.3693,5.2683,4.9592,0.0,0.0,0.0,0.0,5.1759,5.328,5.5593,5.7584,5.7566,5.7538,5.729,5.6631,5.5878,5.4778,0.0,5.1692,5.0338,4.7729,0.0,0.0,4.6386,4.9267,5.1862,5.2671,5.4925,5.6567,5.6603,5.6409,5.6195,5.58,5.5141,5.4243,5.3129,5.2371,5.1148,4.9456,4.9008,4.7421,4.4466,0.0,0.0,0.0,0.0,0.0,0.0,0.0,0.0,0.0,0.0,0.0,0.0,0.0,0.0,0.0,0.0,0.0,0.0,0.0,0.0,0.0,0.0,0.0,0.0,0.0,0.0,0.0,0.0,0.0,4.4471,4.575,0.0,0.0,0.0,0.0,5.1229,5.1463,5.2527,5.5028,5.4593,5.4995,5.642,5.5852,5.6249,5.7674,5.7707,5.774,5.774,5.8269,5.7672,5.6119,5.729,5.6913,5.5442,5.6154,5.6025,5.5353,5.5005,5.4409,5.3656,5.2903,5.2946,5.3487,5.4156,5.4453,5.4839,5.6835,5.6737,5.5879,5.7044,5.6784,5.5564,5.315,5.1224,0.0,0.0,5.2384,5.2622,5.629,5.8043,5.8645,5.7709,5.7883,5.7944,5.6746,5.6259,5.5708,0.0,5.3015,5.1649,5.0672,0.0,4.9017,4.8913,5.0709,5.2475,5.3606,5.5516,5.6954,5.7401,5.6827,5.6342,5.6262,5.4909,5.3941,5.3724,5.2192,5.1058,5.0704,4.9314,4.8073,4.713,4.5603,0.0,0.0,0.0,0.0,0.0,0.0,0.0,0.0,0.0,0.0,0.0,0.0,0.0,0.0,0.0,0.0,0.0,0.0,0.0,0.0,0.0,0.0,0.0,0.0,0.0,0.0,0.0,0.0,4.7111,4.8166,0.0,5.0185,5.0557,5.1491,5.3385,5.398,5.4675,5.5742,5.5895,5.6264,5.703,5.7066,5.7354,5.7969,5.8349,5.8502,5.8502,5.8224,5.7707,5.6974,5.6839,5.6336,5.5645,5.5742,5.5636,5.5409,5.5312,5.5172,5.507,5.4281,5.4667,5.5567,5.5018,5.5551,5.6624,5.678,5.6608,5.6448,5.6807,5.636,5.5463,5.4361,5.3793,5.3556,5.3728,5.472,5.5977,5.7167,5.8473,5.9307,5.8754,5.8574,5.839,5.791,5.753,5.7055,5.6295,5.4992,5.3909,5.3585,5.3437,5.3546,5.4145,5.4869,5.5625,5.6493,5.6977,5.7306,5.7495,5.7401,5.7211,5.6844,5.5516,5.4049,5.2467,5.1777,5.0677,4.8981,4.9215,4.8415,4.6294,4.4862,4.2589,0.0,0.0,0.0,0.0,0.0,0.0,0.0,0.0,0.0,0.0,0.0,0.0,0.0,0.0,0.0,0.0,0.0,0.0,0.0,0.0,0.0,0.0,0.0,0.0,0.0,4.6881,4.9042,4.9674,5.0859,5.1915,5.2785,5.335,5.4117,5.5189,5.5951,5.6387,5.654,5.7122,5.7559,5.7835,5.7947,5.8235,5.8734,5.8966,5.9152,5.9264,5.8767,5.8283,5.7818,5.6894,5.6326,5.6124,5.5621,5.5409,5.5409,5.5409,5.5491,5.5588,5.4731,5.5023,5.5824,5.4552,5.5015,5.6176,5.6007,5.6364,5.6863,5.6856,5.6705,5.633,5.5429,5.5435,5.5627,5.5052,5.5928,5.7205,5.792,5.8702,5.9305,5.9311,5.9017,5.8528,5.7793,5.7757,5.7606,5.6621,5.5721,5.5209,5.5627,5.5501,5.5731,5.68,5.6971,5.7267,5.8014,5.7662,5.751,5.7902,5.7856,5.7543,5.6988,5.5488,5.3729,5.1793,5.1249,5.0046,4.7881,4.8561,4.782,4.5312,4.3931,4.2199,4.005,0.0,0.0,0.0,0.0,0.0,0.0,0.0,0.0,0.0,0.0,0.0,0.0,0.0,0.0,0.0,0.0,0.0,0.0,0.0,0.0,0.0,0.0,0.0,4.619,4.9216,5.1569,5.1977,5.3651,5.4698,5.4547,5.5694,5.6519,5.6713,5.7409,5.7839,5.7839,5.8502,5.8899,5.8906,5.8597,5.897,6.0,5.9698,5.9731,6.0026,5.9993,5.9514,5.8576,5.769,5.7119,5.6915,5.5888,5.5442,5.5442,5.5409,5.5409,5.528,5.4248,5.4114,5.4394,5.3259,5.3142,5.3753,5.504,5.6198,5.7119,5.7456,5.8,5.8163,5.6349,5.6069,5.6446,5.6413,5.5895,5.5945,5.8484,5.885,5.8691,5.9149,5.912,5.8409,5.6338,5.6944,5.7402,5.5549,5.5163,5.5519,5.6611,5.5653,5.5253,5.6656,5.681,0.0,5.7996,5.7518,5.7555,5.875,5.8043,5.7275,5.6796,5.4743,5.302,5.1929,5.0691,4.9321,4.7761,4.743,4.6402,4.4496,4.3106,4.2351,4.2269,0.0,0.0,0.0,0.0,0.0,0.0,0.0,0.0,0.0,0.0,0.0,0.0,0.0,0.0,0.0,0.0,0.0,0.0,0.0,0.0,0.0,4.5936,4.744,4.773,5.082,5.2956,5.2754,5.4345,5.5527,5.5653,5.6593,5.7311,5.7475,5.8171,5.8681,5.88,5.888,5.8991,5.9186,5.9449,5.9698,6.0001,6.0431,6.0712,6.0788,5.9978,5.9605,5.958,5.8369,5.7985,5.8084,5.6955,5.6466,5.6433,5.5677,5.5409,5.5312,5.4558,5.4724,5.5293,5.4053,5.3968,5.467,5.5632,5.5901,5.5953,5.645,5.6679,5.6594,5.5272,5.5153,5.5219,5.4098,5.4164,5.4721,5.5295,5.6537,5.7635,5.7753,5.8414,5.8831,5.8268,5.8278,5.8162,5.7307,5.6745,5.6512,5.696,5.6567,5.6484,5.7426,5.7263,0.0,5.8182,5.7925,5.784,5.827,5.7996,5.7731,5.759,5.6217,5.4683,5.305,5.2609,5.1606,4.9824,4.9673,4.8522,4.6064,4.3687,4.2849,0.0,0.0,0.0,0.0,0.0,0.0,0.0,0.0,0.0,0.0,0.0,0.0,0.0,0.0,0.0,0.0,0.0,0.0,0.0,0.0,0.0,0.0,4.7566,4.9216,4.9801,5.2357,5.4177,5.4164,5.5157,5.5886,5.6205,5.6725,5.7278,5.7773,5.8469,5.9072,5.9491,5.979,5.9944,5.9907,6.0287,6.0443,6.0362,6.0765,6.1035,6.1086,6.0218,6.0051,6.0423,5.9053,5.8594,5.8807,5.7789,5.7256,5.7108,5.6228,5.5863,5.5733,0.0,0.0,0.0,0.0,5.3705,5.4502,5.4966,5.5245,5.5433,5.5679,5.595,5.6069,5.5367,5.5239,5.5246,5.4688,5.4834,5.519,5.5636,5.6783,5.7883,5.8173,5.8707,5.8902,5.8147,5.8332,5.8282,5.7287,5.7103,0.0,5.7402,5.6915,5.669,5.7303,5.7153,5.7369,5.8458,5.8377,5.8308,5.8625,5.8827,5.8672,5.8027,5.6761,0.0,0.0,0.0,5.2057,5.0226,4.9343,0.0,0.0,0.0,4.4631,4.6088,4.5171,0.0,0.0,4.2185,4.1999,0.0,0.0,0.0,0.0,0.0,0.0,0.0,0.0,0.0,0.0,0.0,0.0,0.0,0.0,0.0,0.0,4.9079,5.087,5.1984,5.3687,5.5031,5.5588,5.5774,5.5999,5.6461,5.6639,5.7047,5.7972,5.8734,5.9429,6.0133,6.0968,0.0,0.0,0.0,6.1143,6.0886,6.0948,6.1073,6.1169,6.0651,6.0643,6.1094,5.9743,5.9234,5.9479,5.8475,5.7972,5.7729,5.6973,5.6608,5.6455,5.4665,5.3966,5.388,5.2939,5.3156,5.3966,5.3966,0.0,0.0,5.5237,5.5679,5.626,5.6228,5.6101,5.6143,5.6841,5.6611,5.6459,5.7575,5.8157,5.8637,5.9284,5.9367,5.8843,5.7197,5.7764,5.8124,5.6514,5.6963,5.7684,5.7871,5.7059,5.6479,5.6937,5.6981,5.7395,5.8658,5.8652,5.8757,5.9412,0.0,0.0,5.8408,5.6927,5.5882,5.5335,5.361,5.1828,5.0046,4.8145,4.7195,4.7374,4.6862,4.7398,4.8943,4.8711,4.8559,4.8487,4.5926,4.5224,0.0,0.0,0.0,0.0,0.0,0.0,0.0,0.0,0.0,0.0,0.0,0.0,0.0,0.0,0.0,4.9141,5.046,5.1686,5.3359,5.442,5.4961,5.4705,5.548,5.6315,5.6985,5.7899,5.8727,5.9529,6.0258,6.0804,6.1102,6.1317,6.1415,6.138,6.1531,6.1526,6.1384,6.1452,6.1575,6.1588,6.1177,0.0,6.1309,6.0765,6.0605,6.0687,5.9554,5.9016,5.8909,5.7845,5.7395,5.7233,5.5685,5.5069,5.5077,5.4857,5.4922,5.5069,5.5069,5.5223,5.5409,5.5531,5.6067,5.6694,5.6685,5.689,0.0,5.6717,5.6377,5.6075,5.5962,5.6844,5.7763,5.7711,5.8494,5.91,5.8396,5.8419,5.8423,5.7927,5.7993,5.8089,5.7918,5.787,5.7925,5.8194,5.808,5.8115,5.872,5.8473,5.8435,5.9117,5.9505,5.9718,5.9659,5.8474,5.7621,5.7279,5.5457,5.3754,5.2406,5.1703,5.0892,4.9846,5.0151,5.0243,4.9981,5.0248,4.9842,4.8855,4.742,4.7232,0.0,0.0,0.0,0.0,0.0,0.0,0.0,0.0,0.0,0.0,0.0,4.496,4.6416,0.0,4.7885,5.0029,5.0855,5.1745,5.343,5.4309,5.4843,5.5085,5.5658,5.6421,5.7263,5.7978,5.8747,5.9678,6.0248,6.0761,6.11,6.1387,6.1535,6.1495,6.1857,6.1891,6.1499,6.1706,6.175,6.1547,6.1587,6.1461,6.1252,6.1301,6.1139,6.0844,6.0238,5.9938,5.9755,5.8339,5.7521,5.7131,5.5871,5.5636,5.5928,5.5539,5.5409,5.5409,5.5409,5.5409,5.545,5.5653,5.6189,5.6858,5.7094,5.7478,5.7854,5.7732,5.7609,5.7527,5.7403,5.8008,5.8605,5.8312,5.8771,5.9197,5.8701,5.8896,5.9058,5.8827,5.8971,5.9144,5.9097,5.9377,5.9385,5.8729,5.8674,5.8739,5.8981,5.921,5.9327,5.9358,6.0228,6.0532,5.9844,5.8687,5.7721,5.7138,5.6073,5.4807,5.336,5.3062,5.2348,5.1165,5.0894,5.0603,5.0306,4.9722,4.899,4.8116,4.7243,4.7366,0.0,0.0,0.0,0.0,0.0,0.0,0.0,4.4729,4.5211,4.6413,4.682,4.734,4.8787,4.8979,4.93,5.0424,5.1057,5.1858,5.2987,5.3934,5.48,5.5625,5.5948,5.6573,5.7621,5.7926,5.8567,5.9744,6.0144,6.0558,6.1004,6.1495,6.1721,6.166,6.2154,6.2154,6.166,6.1964,6.1951,6.1588,6.1951,6.179,6.1293,6.1547,6.1383,6.0844,6.076,6.0591,6.0279,5.8801,5.7892,5.7395,5.6148,5.6195,5.6802,5.5798,5.5409,5.5442,5.5571,5.5636,5.5677,5.6092,5.6735,5.7446,5.7884,5.8452,5.893,5.9175,5.9276,5.9357,5.9441,5.961,5.9716,5.9375,5.9331,5.9229,5.8951,5.937,5.9723,5.9663,5.9949,6.0281,6.044,6.0897,6.075,5.936,5.9332,5.9477,5.9477,6.0092,6.0316,5.9835,6.1114,6.1352,5.9759,5.8665,5.7623,5.658,5.6176,5.5334,5.3863,5.3481,5.286,5.1894,5.0994,5.0444,5.0105,4.8997,4.808,4.7481,4.7042,4.7266,4.4369,4.4554,4.5346,4.6576,4.7382,4.8323,0.0,5.0546,5.057,5.1481,5.1028,5.0509,5.0702,5.0558,5.0641,5.1275,5.2067,5.2594,5.2601,5.3928,5.5038,5.5336,5.5934,5.6929,5.8312,5.8807,5.9565,6.0837,6.1291,6.1535,6.1616,6.1843,6.2076,6.2285,6.2347,6.2386,6.2285,6.2347,6.2341,6.2302,6.2341,6.2189,6.1877,6.179,6.1547,6.1301,6.0886,6.0591,6.0312,5.9484,5.9399,5.9555,5.7525,5.7391,5.8119,5.6154,5.5409,5.5507,5.6154,5.6381,5.6561,5.7765,5.8725,5.9474,5.9883,6.0503,6.0986,6.0613,6.0478,6.0417,6.0108,6.0044,5.9935,5.9419,5.9331,5.9402,5.985,5.9996,6.022,6.0782,6.0927,6.0959,6.1006,6.1598,6.1822,6.1182,6.0725,6.0459,6.0459,6.0353,6.0303,6.0459,6.1396,6.1352,5.9728,5.9247,5.8362,5.6854,5.6274,5.5546,5.4526,5.4022,5.3198,5.2,5.2144,5.1344,4.9518,4.9459,4.8983,4.8116,4.8322,4.8627,4.8223,4.8257,4.8266,4.9735,4.9571,4.93,5.0297,5.0815,5.1155,5.1393,5.1695,5.185,5.1626,5.1352,5.1241,5.1399,5.1693,5.2006,5.2449,5.3367,5.4119,5.4585,5.5298,5.6583,5.8747,5.9421,6.013,6.1086,6.1515,6.1703,6.1621,6.184,6.215,6.2381,6.2381,6.2381,6.2381,6.2381,6.2341,6.2189,6.2341,6.2223,6.183,6.1837,6.1709,6.1383,6.1086,6.0877,6.0727,5.9876,5.9348,5.8941,5.7901,5.7433,5.7288,5.6381,5.6316,5.6705,5.7029,5.7126,5.7284,5.8207,5.9037,5.9779,6.0156,6.0817,6.1301,6.0844,6.0717,6.0633,6.0368,6.0249,6.0163,5.9783,6.002,6.0364,6.0464,6.116,6.1805,6.2095,6.2342,6.2537,6.2537,6.2684,6.2684,6.2491,6.1972,6.1469,6.0913,6.1077,6.1277,6.1427,6.1283,6.0715,5.9451,5.877,5.7924,5.6871,5.6323,5.5626,5.4861,5.4192,5.3216,5.2017,5.1824,5.1167,4.9983,4.9504,4.9192,4.8979,4.8954,4.9552,5.0524,5.0647,5.046,5.2027,5.1405,5.0529,5.0824,5.1261,5.1631,5.1598,5.2128,5.2461,5.2068,5.1799,5.1594,5.1492,5.1457,5.1678,5.2351,5.3119,5.3742,5.4236,5.5233,5.6665,5.8667,5.9486,6.0182,6.0969,6.1587,6.1795,6.1646,6.1925,6.2189,6.2381,6.2381,6.2381,6.2381,6.2381,6.2302,6.2076,6.2302,6.2223,6.187,6.1911,6.1709,6.1334,6.1169,6.1119,6.1053,6.039,5.9622,5.8921,5.8525,5.8055,5.7479,5.7242,5.7372,5.7654,5.7806,5.7871,5.803,5.8864,5.9498,6.0043,6.0536,6.1024,6.1342,6.0969,6.0844,6.0826,6.0811,6.0584,6.0433,6.0652,6.0891,6.1206,6.1508,6.2373,6.3153,6.3381,6.3649,6.3865,6.3817,6.3628,6.3437,6.3325,6.3002,6.2421,6.1523,6.1752,6.2016,6.2116,6.1446,6.054,5.9501,5.8677,5.7832,5.6937,5.6323,5.5717,5.5054,5.4331,5.347,5.2442,5.1879,5.1379,5.0896,5.0116,4.9937,5.0243,5.027,5.109,5.0193,5.0786,5.1576,5.2869,5.3134,5.328,5.3986,5.3616,5.3279,5.3811,5.3231,5.2461,5.2068,5.2001,5.1934,5.1731,5.1866,5.2067,5.2277,5.3541,5.4464,5.4464,5.6186,5.7552,5.8069,5.8778,5.9607,6.0549,6.1706,6.2268,6.2003,6.2229,6.2381,6.2381,6.2381,6.2381,6.2381,6.2381,6.2381,6.2381,6.2381,6.2381,6.2341,6.1911,6.1499,6.1119,6.1119,6.1119,6.1119,6.1086,6.0886,6.0544,5.9894,5.9807,5.987,5.9186,5.8343,5.7676,5.8313,5.8572,5.8799,6.0168,6.0652,6.0811,6.1473,6.1547,6.1383,6.1383,6.1252,6.1168,6.165,6.1074,6.0738,6.2179,6.1774,6.1555,6.3183,6.3555,6.3817,6.4538,6.4669,6.461,6.4333,6.4254,6.41,6.3628,6.358,6.3293,6.245,6.2135,6.2116,6.2365,6.2135,6.142,6.0069,5.9456,5.8572,5.7177,5.639,5.575,5.5119,5.4582,5.4016,5.3471,5.2943,5.2497,5.2156,5.1612,5.1567,5.2113,5.2743,5.361,5.154,5.2172,5.2619,5.3725,5.3022,5.223,5.2842,5.2775,5.2538,5.2235,5.2203,5.2135,5.1658,5.1929,5.2134,5.1934,5.2371,5.2603,5.22,5.2788,5.3369,5.373,5.477,5.5826,5.6749,5.8599,5.9978,6.0649,6.1616,6.2101,6.1877,6.2227,6.2381,6.2381,6.2381,6.2381,6.2381,6.2381,6.2381,6.2381,6.2381,6.2381,6.2381,6.207,6.183,6.1709,6.1383,6.1293,6.1293,6.1161,6.0696,6.0059,6.0289,5.9971,5.9424,5.9653,5.9415,5.9036,5.9263,5.936,5.948,6.0397,6.0717,6.0844,6.1506,6.1669,6.1547,6.1293,6.1617,6.2016,6.207,6.2302,6.2643,6.314,6.3395,6.3605,6.4013,6.4508,6.486,6.509,6.5066,6.4963,6.4872,6.4702,6.4426,6.3912,6.3003,6.2444,6.2646,6.2199,6.2007,6.2383,6.2315,6.1649,6.0118,5.9537,5.8603,5.7177,5.639,5.6111,5.6305,5.5418,5.4825,5.4457,5.3658,5.314,5.2832,5.2265,5.2519,5.3471,5.349,5.399,5.2299,5.3066,5.3591,5.4426,5.3404,5.224,5.2461,5.2292,5.1888,5.1254,5.1589,5.182,5.1296,5.1802,5.2286,5.2265,5.2842,5.3245,5.3177,5.3567,5.4016,5.4345,5.5042,5.5758,5.652,5.8529,5.9975,6.0427,6.1394,6.2115,6.2395,6.2402,6.2618,6.3159,6.2651,6.2516,6.2787,6.2516,6.2381,6.2381,6.2381,6.2341,6.2229,6.2076,6.1957,6.1877,6.1547,6.1383,6.1383,6.1169,6.0738,6.0249,6.0679,6.037,5.967,6.0128,6.0195,5.9935,5.976,5.9716,5.9848,6.0591,6.0811,6.0936,6.1709,6.2072,6.2152,6.194,6.2432,6.3033,6.3173,6.3363,6.3663,6.4205,6.4617,6.4928,6.5227,6.5625,6.5957,6.5957,6.5624,6.5279,6.5099,6.4918,6.461,6.4286,6.2869,6.2093,6.2826,6.2252,6.1996,6.2597,6.2513,6.1845,6.0359,5.992,5.9091,5.7693,5.6905,5.6625,5.6769,5.5692,5.49,5.4533,5.379,5.3503,5.3652,5.3301,5.3641,5.4741,5.4678,5.4928,5.2332,5.3329,5.4262,5.4769,5.4117,5.3291,5.2978,5.2301,5.1595,5.1151,5.1466,5.1596,5.0974,5.1696,5.2421,5.268,5.3273,5.3991,5.4917,5.5616,5.6065,5.6167,5.6807,5.7249,5.7363,5.8633,5.9668,6.0122,6.1204,6.2263,6.3408,6.2826,6.3091,6.4512,6.3193,6.2753,6.3463,6.2787,6.2415,6.2381,6.2415,6.2336,6.2104,6.207,6.1951,6.1776,6.1539,6.1424,6.1383,6.121,6.1119,6.1119,6.1119,6.0961,6.0717,6.0717,6.0591,6.0335,5.9892,5.9793,5.9924,6.076,6.1086,6.1285,6.2245,6.287,6.3283,6.3242,6.3657,6.4229,6.489,6.4291,6.3932,6.5536,6.5603,6.5544,6.6678,6.6945,6.6945,6.6945,6.6346,6.567,6.5255,6.4918,6.4748,6.4748,6.3128,6.2234,6.3132,6.2364,6.2077,6.3084,6.279,6.2024,6.0868,6.0701,6.004,5.865,5.7826,5.7212,5.6768,5.5466,5.4546,5.4059,5.3511,5.367,5.4575,5.4555,5.5049,5.5988,5.6308,5.6336,5.1229,5.2408,5.3478,5.3451,5.3142,5.2889,5.282,5.2646,5.2328,5.1917,5.1885,5.1899,5.1724,5.2354,5.2898,5.2866,5.3845,5.45,5.4102,5.4816,5.5497,5.5923,5.686,5.7722,5.8281,5.9468,6.0359,6.0964,6.1623,6.2233,6.2644,6.3033,6.3396,6.3768,6.3429,6.3057,6.2685,6.3057,6.2956,6.2381,6.2956,6.3187,6.3113,6.2539,6.2566,6.2993,6.2186,6.1756,6.1588,6.1417,6.1252,6.1119,6.1119,6.0961,6.0717,6.0717,6.0591,6.0378,6.0249,6.0565,6.111,6.1712,6.2372,6.3057,6.3631,6.4133,6.443,6.4106,6.4604,6.5345,6.5713,6.6009,6.6412,6.7212,6.7355,6.7297,6.7405,6.7438,6.7438,6.7438,6.6841,6.6299,6.6163,6.5507,6.5008,6.5008,6.3916,6.329,6.3768,6.2485,6.1962,6.31,6.3276,6.2796,6.1615,6.1325,6.0683,5.9416,5.8301,5.8009,5.8664,5.6805,5.5952,5.6355,5.5352,5.4902,5.5184,5.5409,5.619,5.734,5.6967,5.7254,5.1308,5.2627,5.3697,5.3232,5.2796,5.2256,5.1444,5.1354,5.1115,5.002,5.039,5.086,5.0758,5.1758,5.2571,5.2658,5.415,5.5312,5.542,5.5928,5.6572,5.7201,5.7823,5.8373,5.8777,5.9936,6.087,6.1465,6.2108,6.2737,6.3346,6.377,6.4275,6.4952,6.4343,6.3802,6.3362,6.3768,6.3632,6.2888,6.3632,6.3632,6.3024,6.326,6.3226,6.3024,6.2649,6.2213,6.1669,6.1465,6.1293,6.1119,6.1119,6.1002,6.0877,6.0877,6.0793,6.0708,6.0708,6.14,6.2243,6.1829,6.2264,6.2997,6.3334,6.4371,6.5395,6.5144,6.6044,6.7082,6.7348,6.7665,6.7936,6.8238,6.8471,6.8614,6.8478,6.8432,6.8186,6.7463,6.7127,6.6916,6.6585,6.6052,6.5697,6.5697,6.4889,6.4289,6.4268,6.3034,6.2497,6.3436,6.3469,6.3036,6.2061,6.1753,6.1061,5.9697,5.8721,5.8324,5.8532,5.6819,5.605,5.6338,5.5719,5.5504,5.5796,5.6275,5.7069,5.8204,5.7856,5.8118,5.172,5.2873,5.3683,5.3097,5.2251,5.1122,4.9493,4.9354,4.9174,4.7551,4.859,4.9752,4.9519,5.0921,5.2204,5.2497,5.4375,5.623,5.7538,5.7881,5.8189,5.8893,5.9062,5.9167,5.9167,6.033,6.1336,6.2002,6.2689,6.3524,6.4593,6.4722,6.5365,6.6651,6.5365,6.4654,6.4613,6.4681,6.4377,6.3666,6.4309,6.3937,6.2719,6.3903,6.3768,6.2584,6.3026,6.2663,6.1656,6.1513,6.1309,6.1036,6.1094,6.1119,6.1119,6.1119,6.1119,6.1119,6.1119,6.1947,6.2808,6.1748,6.1914,6.2629,6.2898,6.451,6.6253,6.6407,6.751,6.8772,6.9127,6.9039,6.8829,6.893,6.9244,6.9566,6.9566,6.9532,6.904,6.7623,6.7551,6.7546,6.6916,6.6717,6.6684,6.6684,6.594,6.5317,6.5043,6.3909,6.3372,6.3959,6.3612,6.3068,6.2412,6.2214,6.1514,5.9978,5.9284,5.8577,5.7878,5.6555,5.5792,5.5771,5.5723,5.5942,5.6533,5.7212,5.7967,5.892,5.8832,5.8869,5.0667,5.0632,5.0433,5.0637,4.9431,4.8201,4.807,4.8449,4.8915,4.9274,5.0504,5.1511,5.149,5.2384,5.3308,5.3846,5.5254,5.6814,5.8359,5.8424,5.8409,5.8744,5.9426,5.9911,5.9911,6.1115,6.2252,6.3142,6.3742,6.4341,6.4994,6.5481,6.5875,6.6113,6.5298,6.4782,6.4613,6.5189,6.5121,6.441,6.4546,6.4478,6.4208,6.3869,6.3565,6.3328,6.3423,6.2719,6.1545,6.1635,6.1341,6.0878,6.106,6.1119,6.1119,6.1119,6.1119,6.1119,6.1119,6.1285,6.1649,6.261,6.3899,6.527,6.5946,6.6556,6.7211,6.8024,6.8449,6.8796,6.948,6.9648,6.9693,7.0071,7.0109,7.0103,7.0103,6.9883,6.9722,6.963,6.9025,6.8473,6.8341,6.7811,6.74,6.74,6.7083,6.6785,6.6551,6.5278,6.4295,6.4038,6.4085,6.38,6.3084,6.3019,6.2516,6.1321,6.0129,5.9675,6.0188,5.8196,5.7567,5.8644,5.7986,5.7683,5.7802,5.8243,5.8977,5.9936,5.935,5.9825,5.0876,5.0602,5.0144,5.0098,4.8494,4.6987,4.7358,4.7154,4.7182,4.817,4.9173,5.0065,5.0878,5.206,5.3108,5.3809,5.5454,5.7232,5.8798,5.8496,5.8564,5.9704,5.9876,6.0086,6.0495,6.1349,6.2515,6.3943,6.422,6.461,6.5372,6.6154,6.6636,6.6636,6.6385,6.6214,6.6133,6.635,6.5895,6.4742,6.5026,6.458,6.3463,6.4275,6.4005,6.2956,6.3734,6.3187,6.1728,6.1736,6.1468,6.1127,6.1119,6.1119,6.1119,6.1119,6.1351,6.1649,6.1649,6.2411,6.3471,6.4167,6.4718,6.5205,6.5801,6.6887,6.8123,6.8717,6.9221,6.9726,7.0445,7.0591,7.0614,7.0894,7.0733,7.0549,7.041,7.027,6.9996,6.9536,6.9423,6.9323,6.8818,6.8407,6.8175,6.8175,6.7942,6.7575,6.6977,6.6569,6.589,6.4654,6.4185,6.3723,6.3228,6.2954,6.2306,6.1133,6.036,5.9892,5.9747,5.8572,5.8206,5.8899,5.8668,5.8535,5.8535,5.9121,5.9787,6.0624,6.0298,6.0668,5.1398,5.0928,5.0251,4.9947,4.7872,4.6083,4.6695,4.6112,4.575,4.704,4.7927,4.8882,5.0167,5.1457,5.2755,5.3913,5.5759,5.7588,5.9254,5.906,5.9249,6.0583,6.0419,6.0386,6.0884,6.1532,6.2672,6.4341,6.4669,6.5192,6.603,6.684,6.7263,6.7346,6.751,6.7516,6.751,6.7346,6.661,6.5379,6.5488,6.4654,6.3159,6.458,6.4275,6.2685,6.3869,6.3558,6.2156,6.1877,6.1709,6.1547,6.1293,6.1227,6.1351,6.1351,6.1881,6.2685,6.2685,6.3912,6.5503,6.5636,6.5437,6.5194,6.5775,6.7209,6.8705,6.9323,6.9942,7.0595,7.1176,7.1312,7.1267,7.1222,7.1052,7.0825,7.0608,7.0515,7.0255,6.9364,6.973,6.9963,6.9177,6.8984,6.8937,6.8937,6.8668,6.8185,6.7484,6.7635,6.7198,6.5707,6.456,6.3725,6.3228,6.2759,6.2013,6.0883,6.0477,5.9978,5.9274,5.8868,5.8767,5.8889,5.9183,5.9271,5.9271,5.9917,6.0536,6.1241,6.1194,6.1367,5.1576,5.0277,4.8937,4.8993,4.6636,4.4655,4.5823,4.584,4.6085,4.7996,4.9416,5.0595,5.1327,5.1881,5.2974,5.5296,5.6656,5.806,6.0124,6.1061,6.1198,6.0279,6.1043,6.1427,6.0951,6.2002,6.3091,6.3991,6.5475,6.6679,6.7298,6.74,6.7591,6.7759,6.7759,6.7678,6.751,6.751,6.7319,6.6976,6.5617,6.5121,6.5358,6.4241,6.3599,6.3429,6.3565,6.3283,6.274,6.2195,6.2037,6.215,6.1588,6.1692,6.2122,6.2122,6.3017,6.4167,6.4167,6.4862,6.5869,6.6535,6.7032,6.7446,6.8406,6.8539,6.8663,7.0293,7.0515,7.0363,7.1131,7.1312,7.1222,7.0961,7.0916,7.087,7.087,7.0654,7.0561,7.0678,7.0423,7.0176,7.011,6.9841,6.9699,6.9699,6.9235,6.896,6.9169,6.8063,6.728,6.7346,6.5837,6.4432,6.3292,6.2905,6.2432,6.1539,6.0896,6.0582,6.0578,6.0024,5.9942,6.0557,6.0359,6.0285,6.0285,6.0692,6.1261,6.191,6.1898,6.1945,5.1238,4.9697,4.8045,4.8303,4.6212,4.4662,4.6804,4.5697,4.523,4.8476,4.8942,4.9381,5.1522,5.226,5.3197,5.5175,5.586,5.6678,5.8123,5.8556,5.912,6.022,6.0808,6.1465,6.243,6.3102,6.3905,6.493,6.6092,6.6882,6.7304,6.7304,6.7428,6.7597,6.7719,6.7839,6.7879,6.7597,6.723,6.6705,6.5807,6.5237,6.5019,6.4884,6.4343,6.3565,6.4444,6.3792,6.2119,6.3005,6.2879,6.2171,6.259,6.3055,6.3547,6.3547,6.4432,6.5657,6.5657,6.6464,6.7629,6.8066,6.8665,6.9184,6.9328,6.9469,6.987,7.086,7.087,7.0733,7.1323,7.1367,7.1267,7.1176,7.1131,7.1131,7.0916,7.0916,7.0916,7.0733,7.0837,7.0984,7.089,7.0652,7.0461,7.0461,6.963,6.9042,6.914,6.852,6.7736,6.6761,6.5594,6.4546,6.3949,6.3209,6.2562,6.1885,6.1433,6.12,6.1277,6.0856,6.0825,6.1277,6.1206,6.1124,6.1124,6.1732,6.2179,6.2479,6.2903,6.2708,5.0911,4.96,4.8115,4.8312,4.661,4.5473,4.7826,4.6263,4.5265,4.8625,4.859,4.872,5.1328,5.2172,5.3125,0.0,5.5595,5.6178,5.7142,5.7846,5.8811,6.035,6.0909,6.1708,6.3022,6.3674,6.4517,6.5684,6.6377,6.6806,6.6923,6.7003,6.7222,6.751,6.7638,6.7799,6.7919,6.7638,6.7196,6.6643,6.6045,6.5508,6.4918,6.5222,6.4627,6.3419,6.4756,6.3962,6.1821,6.3586,6.3511,6.2421,6.3283,6.3952,6.4399,6.4597,6.5591,6.6883,6.7082,6.8069,6.9237,6.9423,6.9975,7.0482,7.0129,7.0284,7.0608,7.1199,7.1244,7.1222,7.1694,7.1751,7.1684,7.1921,7.1954,7.1909,7.1693,7.1818,7.1864,7.1463,7.1727,7.1935,7.1546,7.1228,7.097,7.0722,6.976,6.914,6.9237,6.8945,6.8258,6.7086,6.5902,6.49,6.4045,6.3241,6.2562,6.2016,6.1784,6.1683,6.1582,6.141,6.141,6.1582,6.1683,6.1683,6.1582,6.2621,6.31,6.307,6.3557,6.2957,5.0831,5.0108,4.9365,4.9228,4.7926,4.7074,4.8556,4.7618,4.6877,4.8401,4.8871,4.9428,5.0827,5.148,5.2597,5.5075,5.6296,5.7162,5.7971,6.0438,6.1767,6.0734,6.1779,6.243,6.203,6.3402,6.4791,6.5922,6.6388,6.6508,6.6348,6.6615,6.7022,6.751,6.751,6.7475,6.751,6.751,6.7428,6.718,6.6398,6.5902,6.5662,6.4952,6.4002,6.2992,6.4131,6.3645,6.2196,6.37,6.3807,6.3127,6.3484,6.3952,6.4465,6.516,6.6353,6.7665,6.8407,6.9463,7.0515,7.0515,7.087,7.1267,7.1267,7.0916,7.0654,7.1378,7.16,7.1726,7.2237,7.2394,7.2563,7.3274,7.3477,7.3477,7.3443,7.3477,7.3477,7.3477,7.3244,7.2868,7.2128,7.162,7.1056,7.0309,6.9751,6.9478,6.9751,6.9334,6.8994,6.8961,6.7475,6.5561,6.3405,6.2954,6.2562,6.2016,6.2016,6.1916,6.1582,6.1582,6.1582,6.1582,6.1866,6.1866,6.1582,6.3295,6.3933,6.3704,6.3803,6.2441,4.8687,4.836,4.7883,4.7292,4.672,4.6655,4.8022,4.7537,4.7118,4.8388,4.8732,4.9087,5.0028,5.1018,5.2305,5.4223,5.5351,5.5989,5.6175,5.8237,5.9639,5.9458,6.1465,6.3249,6.4146,6.4443,6.4907,6.5703,6.6253,6.6516,6.6432,6.6677,6.6938,6.7263,6.7304,6.7346,6.751,6.7387,6.7263,6.718,6.6743,6.6516,6.644,6.6203,6.5553,6.4674,6.553,6.4316,6.1923,6.4461,6.4337,6.2649,6.4428,6.5415,6.5922,6.6651,6.7546,6.844,6.9202,6.9694,7.0049,7.0376,7.0608,7.0825,7.1176,7.1176,7.1244,7.2157,7.289,7.3344,7.3425,7.3276,7.3206,7.3443,7.3477,7.3477,7.3477,7.3477,7.3477,7.3477,7.3696,7.3561,7.2633,7.2248,7.1727,7.0804,6.9953,6.943,6.9511,6.9382,6.8976,6.8144,6.7735,6.6793,6.5044,6.3772,6.2905,6.2562,6.2216,6.2066,6.2116,6.2437,6.2569,6.2414,6.2838,6.2838,6.2414,6.3703,6.4495,6.4622,6.3601,6.2411,4.741,4.7439,4.7273,4.678,4.6577,4.6787,4.7748,4.7446,4.7205,4.7945,4.8259,4.8682,4.9466,5.0376,5.1599,5.3465,5.4591,5.5472,5.6057,5.811,5.9804,6.06,6.1906,6.3322,6.479,6.5109,6.5371,6.5682,6.6733,6.7214,6.6944,6.7395,6.7743,6.803,6.7369,6.7316,6.7796,6.7672,6.78,6.8156,6.7641,6.7209,6.6972,6.6854,6.6102,6.4918,6.6104,6.4891,0.0,6.5287,6.5261,6.3593,6.5634,6.6687,6.697,6.7744,6.8354,6.8945,6.9675,7.0082,7.027,7.0595,7.0733,7.0904,7.1526,7.1853,7.2123,7.287,7.3606,7.4229,7.4309,7.4102,7.3984,7.4255,7.4322,7.4322,7.4322,7.4322,7.4322,7.4322,7.4553,7.4377,7.3225,7.3055,7.2582,7.0995,7.0391,7.0001,6.9592,6.9526,6.9169,6.8258,6.8045,6.741,6.5933,6.448,6.3387,6.2808,6.2414,6.2216,6.2365,6.2959,6.3072,6.2692,6.3341,6.339,6.2808,6.3784,6.4417,6.4717,6.3474,6.2424,0.0,4.7148,4.7327,4.7302,4.72,4.7251,4.756,4.7491,0.0,4.7238,4.7702,4.8363,4.9174,4.9751,5.0817,5.2991,5.4315,5.566,5.7457,5.9695,6.1782,6.3484,6.2906,6.2928,6.4304,6.5354,6.5935,6.5945,6.7624,6.8348,6.7719,6.8577,6.9166,6.939,6.7819,6.7447,6.8413,6.8413,6.8811,6.9678,6.8735,6.7902,6.7154,6.6938,6.5827,6.4244,6.5921,6.5372,6.3486,6.6019,6.6393,6.5471,6.7022,6.7612,6.7665,6.844,6.8892,6.9177,7.001,7.0556,7.0892,7.0938,7.1153,7.147,7.2213,7.2779,7.3229,7.3525,7.3946,7.4468,7.4956,7.4882,7.4864,7.554,7.5709,7.5709,7.5709,7.5709,7.5709,7.5709,7.5709,7.5236,7.3815,7.3966,7.3494,7.0984,7.1098,7.1061,7.0125,6.9945,6.9721,6.9157,6.8518,6.7556,6.6307,6.5044,6.3915,6.2888,6.2626,6.2509,6.2509,6.3236,6.3268,6.2559,6.3472,6.3652,6.2967,6.3634,6.4051,6.4109,6.3398,6.2402,4.5573,0.0,4.6664,4.6137,4.6373,4.6795,0.0,4.787,4.8436,4.7654,4.8528,4.9433,4.937,5.0343,5.1903,5.4274,5.5716,5.71,5.8672,6.0463,6.2368,6.4305,6.3692,6.3889,6.5731,6.5673,6.5988,6.703,6.7892,6.8417,6.8425,6.8847,6.9122,6.9166,6.8784,6.8854,6.9449,6.9449,6.9103,6.8401,6.8315,6.7755,6.6742,6.6792,6.65,6.5875,6.5275,6.4715,6.4295,6.5337,6.5581,6.5438,6.7246,6.7796,6.7665,6.844,6.8752,6.8964,7.0291,7.0818,7.0961,7.1339,7.1619,7.1984,7.2726,7.3286,7.3867,7.4753,7.5275,7.5705,7.6049,7.5803,7.5473,7.5676,7.5709,7.5709,7.5709,7.5709,7.5709,7.5709,7.5709,7.5357,7.429,7.4195,7.3735,7.22,7.2248,7.2314,7.1827,7.1294,7.0818,7.0497,6.9434,6.8372,6.7314,6.5627,6.4256,6.3453,6.3496,6.3567,6.3567,6.4539,6.4704,6.38,6.4286,6.4444,6.4398,6.4588,6.4545,6.4398,6.3531,6.2555,4.518,4.5954,4.6407,4.6061,4.6199,4.6434,4.657,4.7465,4.8135,4.7492,4.8805,5.0002,4.9883,5.0853,5.2353,5.4367,5.5715,5.7545,6.0378,6.1641,6.3184,6.5538,6.4923,6.4994,6.6862,6.6849,6.6945,6.7525,6.856,6.9164,6.9099,6.9625,7.0005,7.027,7.0357,7.0361,7.0277,6.9935,6.97,6.9595,6.8912,6.8241,6.7656,6.7195,6.693,6.6745,6.5345,6.5277,6.606,6.6086,6.6601,6.7463,6.856,6.8918,6.8812,6.9083,6.9589,7.0176,7.0866,7.1365,7.1775,7.2203,7.2391,7.2666,7.3548,7.4065,7.4558,7.5318,7.5875,7.6309,7.6309,7.5994,7.5709,7.5709,7.5805,7.5899,7.5899,7.5899,7.5899,7.5899,7.5805,7.5425,7.4573,7.4708,7.443,7.294,7.306,7.3064,7.2456,7.1912,7.1353,7.06,7.0042,6.9092,6.7557,6.6258,6.5207,6.4432,6.3785,6.3539,6.3889,6.4685,6.4926,6.4534,6.4831,6.4813,6.4461,6.453,6.4429,6.4026,6.318,6.2494,4.5409,4.6171,4.6672,4.6313,4.6301,4.6341,4.6316,4.6884,4.7397,4.7308,4.8889,5.0396,5.0712,5.1538,5.2773,5.4496,5.6067,5.8295,6.1987,6.3041,6.4376,6.6839,6.6343,6.6424,6.7946,6.8304,6.8302,6.8082,6.943,7.0096,6.9724,7.0489,7.1143,7.1556,7.181,7.1634,7.1063,7.0319,7.0366,7.1201,6.9639,6.8801,6.8601,6.7667,6.718,6.7112,6.567,0.0,6.7827,6.7285,6.8132,6.9828,7.0109,7.0223,7.0162,7.0026,7.0648,7.1546,7.1442,7.1989,7.2797,7.2935,7.3063,7.3312,7.4283,7.4835,7.5179,7.5635,7.6088,7.6402,7.6216,7.5947,7.5709,7.5709,7.5852,7.6028,7.6028,7.613,7.6164,7.6028,7.5954,7.5642,7.4897,7.5303,7.5175,7.3642,7.3869,7.3878,7.2968,7.241,7.1704,7.0634,7.0371,6.9501,6.7622,6.6826,6.6242,6.5696,6.3991,6.3348,6.4157,6.4577,6.4862,6.5116,6.5418,6.513,6.4257,6.4505,6.4356,6.3874,6.3128,6.278,4.6052,4.7323,4.7808,4.6026,4.6321,4.6936,4.6405,4.6869,4.7542,4.8097,4.9596,5.1099,5.2153,5.2996,5.4373,5.7056,5.9824,6.1831,6.2581,6.4843,6.6598,6.7051,6.7748,6.8508,6.9438,6.9176,6.9269,7.0009,7.0289,7.0528,7.0657,7.1064,7.1267,7.1356,7.1546,7.1742,7.1814,7.1412,7.0821,7.0045,6.9285,6.8372,6.748,6.7277,6.718,6.7112,6.5583,6.6072,6.7827,6.7327,6.8175,6.9873,7.0293,7.0363,7.0229,7.059,7.084,7.1087,7.1669,7.2414,7.2994,7.2607,7.2904,7.3551,7.4085,7.4891,7.5635,7.5913,7.6122,7.6216,7.6402,7.6041,7.5709,7.5709,7.5757,7.5757,7.5757,7.6299,7.6569,7.5892,7.6299,7.6454,7.5676,7.5642,7.5512,7.5022,7.5234,7.5315,7.4892,7.3577,7.2582,7.2434,7.0499,6.9059,6.8765,6.7135,6.6516,6.736,6.5279,6.437,6.5298,6.5784,6.602,6.6071,6.6406,6.6341,6.5911,6.6044,6.5943,6.5587,6.4856,6.4506,4.5697,4.7583,4.8744,4.6907,4.7434,4.8403,4.8162,4.8454,4.8897,4.9565,5.1025,5.2421,5.32,5.4412,5.6232,5.9087,6.13,6.2954,6.3785,6.5645,6.7216,6.7989,6.8809,6.9569,7.0217,7.0041,7.0042,7.0436,7.0515,7.0608,7.087,7.1007,7.1176,7.1312,7.1501,7.1644,7.1776,7.1328,7.0987,7.0713,7.0049,6.9457,6.8927,6.8823,6.8747,6.8678,0.0,6.7509,6.9228,6.8276,6.8956,7.0614,7.0989,7.1025,7.1051,7.1945,7.2231,7.2232,7.3258,7.3658,7.3741,7.3772,7.3954,7.4172,7.453,7.5152,7.5757,7.5852,7.6122,7.6356,7.6449,7.6216,7.5899,7.5899,7.5899,7.6035,7.6408,7.6781,7.7052,7.7086,7.7329,7.7232,7.6487,7.6352,7.6169,7.5633,7.5518,7.547,7.5325,7.4079,7.2986,7.2408,7.0796,6.9518,6.883,6.7606,6.6534,6.5625,6.5425,6.5299,6.5231,6.5784,6.6129,6.6281,6.6818,6.6759,6.5956,6.6273,6.6089,6.5637,6.5116,6.5058,4.5486,4.7603,4.9281,4.8166,4.8955,5.0071,5.0119,5.0206,5.046,5.1062,5.249,5.3749,5.4051,5.5964,5.833,6.0771,6.2309,6.367,6.5051,6.6471,6.7768,6.8939,6.9659,7.0265,7.0803,7.0603,7.0515,7.0515,7.0515,7.0561,7.0825,7.087,7.1007,7.1312,7.1501,7.1644,7.1688,7.1318,7.1208,7.1415,7.0657,7.0353,7.0394,7.0189,7.0106,6.9996,6.8672,6.9005,7.0444,6.9458,6.9998,7.1514,7.1714,7.188,7.2052,7.3074,7.3409,7.3459,7.4305,7.439,7.4239,7.4472,7.4539,7.4556,7.4821,7.5179,7.56,7.5865,7.6313,7.6675,7.6768,7.6445,7.6156,7.6373,7.6407,7.653,7.7074,7.7434,7.776,7.8133,7.8258,7.801,7.7266,7.6995,7.669,7.6082,7.5619,7.5373,7.5325,7.4165,7.3007,7.2165,7.0913,6.9649,6.8388,6.7866,6.668,6.432,6.546,6.5802,6.5039,6.5886,6.6499,6.6863,6.7459,6.7304,6.6413,6.6841,6.6644,6.5888,6.5687,6.5838,4.6237,4.7704,4.9166,4.9606,5.0657,5.1593,5.1396,5.157,5.187,5.2277,5.3631,5.4677,5.4732,5.779,6.0762,6.2063,6.3673,6.5114,6.608,6.7776,6.9117,6.9501,7.0307,7.094,7.121,7.0791,7.0515,7.0515,7.0515,7.0515,7.0515,7.0779,7.1007,7.1312,7.1501,7.1688,7.1942,7.1951,7.1705,7.1198,7.0477,7.0223,7.0394,7.0189,7.0106,7.0065,6.9509,6.9739,7.0503,7.067,7.1231,7.198,7.2233,7.2594,7.2995,7.3078,7.3541,7.4056,7.3459,7.3658,7.4122,7.3459,7.3691,7.4272,7.4523,7.4821,7.5299,7.641,7.6951,7.7237,7.7473,7.682,7.6339,7.7255,7.7332,7.7142,7.721,7.8138,7.8754,7.816,7.8551,7.8788,7.8044,7.7333,7.6893,7.6826,7.6183,7.5614,7.5325,7.3874,7.273,7.2423,7.0402,6.8601,6.7426,6.7612,6.7272,6.5983,6.582,6.5589,6.5276,6.6791,6.7971,6.8698,6.8763,6.8731,6.8686,6.8698,6.8344,6.7585,6.7585,6.7737,4.5732,4.753,4.9324,4.9384,5.1266,5.3113,5.3014,5.3192,5.3744,5.5044,5.585,5.6634,5.7574,5.9938,6.2071,6.3222,6.4926,6.6391,6.7165,6.8605,6.9579,6.9722,7.0276,7.0779,7.1007,7.087,7.0825,7.0961,7.1007,7.1007,7.1007,7.1098,7.1131,7.1052,7.1278,7.1367,7.1323,7.1457,7.1542,7.1454,7.1311,7.1472,7.1808,7.1599,7.1472,7.1507,7.1609,7.1766,7.1896,7.2144,7.2557,7.2953,7.3208,7.3458,7.3773,7.3773,7.3939,7.4188,7.4073,7.409,7.4188,7.4073,7.4123,7.4221,7.4322,7.4771,7.5396,7.6332,7.7019,7.7597,7.831,7.8148,7.7835,7.8392,7.8319,7.8218,7.8584,7.9031,7.9325,7.9379,7.96,7.9566,7.8822,7.845,7.7893,7.6834,7.6526,7.614,7.5198,7.4146,7.3198,7.2456,7.0765,6.9189,6.7927,6.7939,6.7713,6.6841,6.6767,6.6598,6.6231,6.7529,6.8447,6.8859,6.8859,6.8963,6.9117,6.8543,6.8207,6.8301,6.7949,6.805,4.5971,4.7758,4.9626,4.9852,5.1924,5.3953,5.4266,5.4603,5.5149,5.6429,5.6999,5.7868,5.9909,6.1542,6.2989,6.4336,6.5916,6.7277,6.8046,6.9086,6.9828,7.0018,7.026,7.0549,7.087,7.0779,7.0825,7.1176,7.1131,7.1052,7.1052,7.1052,7.1007,7.0916,7.1052,7.1143,7.1143,7.1267,7.1412,7.16,7.1484,7.1789,7.2459,7.2167,7.2261,7.2579,7.2785,7.2937,7.2983,7.3218,7.3466,7.3701,7.39,7.4057,7.4221,7.4221,7.4171,7.412,7.4372,7.4272,7.412,7.4372,7.4322,7.4221,7.4221,7.4805,7.5732,7.6604,7.7513,7.8463,7.9548,7.9329,7.8939,7.9415,7.939,7.9242,7.9644,7.9805,7.9914,8.0258,8.0259,7.9972,7.9228,7.9126,7.8519,7.6754,7.665,7.6332,7.502,7.4235,7.3205,7.1817,7.0618,6.9432,6.8165,6.8327,6.8133,6.7454,6.7714,6.758,6.6931,6.81,6.8936,6.9369,6.9369,6.9472,6.9626,6.8812,6.8428,6.8451,6.8251,6.8351,4.7252,4.8516,5.0018,5.1332,5.2746,5.4073,5.5076,5.5631,5.5959,5.6005,5.6641,5.8142,6.1405,6.2529,6.3601,6.5406,6.6636,6.7698,6.858,6.9334,6.9984,7.0415,7.0316,7.0363,7.087,7.0456,7.041,7.087,7.0687,7.0515,7.0515,7.0515,7.0608,7.087,7.0916,7.1143,7.16,7.1367,7.1367,7.16,7.0666,7.0866,7.1985,7.1688,7.2141,7.3034,7.2621,7.2834,7.3485,7.3721,7.3972,7.4221,7.4221,7.4221,7.4171,7.4221,7.4019,7.3848,7.412,7.4052,7.3848,7.412,7.4221,7.4255,7.4255,7.5105,7.6291,7.7295,7.8517,7.9839,8.1043,8.0261,7.9393,8.0337,8.0415,8.0226,8.0226,8.0409,8.061,8.061,8.041,7.9972,7.9261,7.9126,7.8519,7.6754,7.6469,7.6053,7.4772,7.394,7.2613,7.0371,6.9858,6.9213,6.7945,6.8473,6.857,6.7861,6.8473,6.8401,6.7262,6.8557,6.9626,7.0371,7.0403,7.0403,7.0403,6.9932,6.9216,6.8201,6.8748,6.8847,4.6694,4.8021,4.9596,5.0439,5.2065,5.3765,5.5016,5.647,5.7987,5.939,6.004,6.0913,6.2538,6.3235,6.4019,6.5467,6.7176,6.8408,6.8661,6.9489,7.0129,7.0283,7.0082,7.0129,7.0561,7.0363,7.0456,7.1131,7.0916,7.087,7.1052,7.1052,7.1007,7.0916,7.1052,7.1143,7.1143,7.1267,7.1267,7.1098,7.1356,7.1458,7.1433,7.1378,7.1695,7.2382,7.3278,7.371,7.3754,7.4381,7.4472,7.4221,7.4423,7.4221,7.3917,7.412,7.3917,7.3525,7.4019,7.4196,7.4314,7.4779,7.5194,7.5436,7.561,7.634,7.7328,7.8368,7.9284,8.0241,8.1413,8.1371,8.1061,8.1397,8.1384,8.1241,8.1098,8.1077,8.1054,8.0659,8.056,8.0342,7.9954,7.928,7.8405,7.7179,7.6558,7.5806,7.4722,7.3642,7.2612,7.1731,7.136,7.0759,6.9717,6.9847,6.9653,6.8909,6.8586,6.823,6.791,6.9302,6.9917,6.9626,7.0144,7.0144,6.9626,6.8982,6.8728,6.8748,6.8748,6.8896,4.74,4.904,5.0669,5.1337,5.3058,5.4898,5.6346,5.7142,5.8144,6.0041,6.0572,6.1306,6.3397,6.4194,6.5013,6.6347,6.8104,6.9221,6.8998,6.9733,7.027,7.0035,6.9893,6.9941,7.0363,7.027,7.041,7.0916,7.0825,7.0779,7.0858,7.0858,7.0825,7.0733,7.0825,7.087,7.0916,7.0961,7.087,7.0641,7.1123,7.1304,7.109,7.1484,7.2055,7.2747,7.386,7.425,7.4137,7.4521,7.4473,7.4221,7.4221,7.4103,7.3797,7.3866,7.3525,7.3214,7.3679,7.3924,7.4026,7.439,7.4936,7.5529,7.579,7.6704,7.7799,7.8824,7.9756,8.0714,8.1434,8.1715,8.181,8.181,8.181,8.1715,8.1442,8.1297,8.1102,8.0709,8.051,8.0308,7.9803,7.9483,7.8708,7.7045,7.5957,7.5122,7.4539,7.334,7.2474,7.2321,7.1388,7.0558,6.9827,7.019,6.9898,6.8761,6.896,6.8946,6.8655,6.9756,7.0047,6.9302,7.0015,7.0099,6.9473,6.8809,6.8699,6.8994,6.9042,6.9188,4.8659,5.0688,5.2449,5.3305,5.5004,5.6846,5.8298,5.77,5.7329,5.8987,5.9272,6.0381,6.3897,6.5121,6.6102,6.7658,6.9069,6.9872,6.9456,7.0001,7.0283,6.9846,6.9846,6.9941,7.0176,7.0176,7.027,7.0515,7.0515,7.041,7.0223,7.0223,7.0316,7.0469,7.0316,7.0376,7.0769,7.0574,7.041,7.0176,7.0543,7.0837,7.1123,7.1996,7.2904,7.3867,7.4322,7.4523,7.4523,7.4272,7.4171,7.412,7.3899,7.3797,7.3661,7.3422,7.311,7.2932,7.3214,7.3299,7.3364,7.3482,7.4163,7.4963,7.5426,7.6664,7.8059,7.896,8.0066,8.1005,8.1297,8.1538,8.1715,8.1715,8.1763,8.1715,8.1442,8.12,8.0906,8.0659,8.041,8.0056,7.9329,7.9651,7.9112,7.6408,7.5055,7.4288,7.4221,7.312,7.2368,7.2368,7.0731,6.9459,6.9201,6.9989,6.9814,6.8183,6.9537,7.0144,6.9496,7.0079,7.0079,6.9399,7.0112,7.0266,6.9773,6.937,6.9157,6.9141,6.9658,6.9721,4.7169,4.9133,5.1393,5.3073,5.5375,5.7327,5.781,5.8216,5.8846,6.0078,6.0847,6.1969,6.3997,6.4592,6.5452,6.7557,6.8368,6.8864,6.931,6.9723,6.9941,6.9798,6.9988,7.0176,7.0376,7.0316,7.0363,7.0779,7.0456,7.0316,7.0423,7.0423,7.0469,7.0515,7.0469,7.0201,6.9803,7.0293,7.041,7.0209,7.1423,7.2211,7.2614,7.2428,7.2976,7.414,7.4256,7.4272,7.4272,7.4221,7.407,7.3899,7.3848,7.3506,7.3142,7.3266,7.3005,7.2635,7.3162,7.3416,7.3684,7.4719,7.5406,7.6093,7.7437,7.8173,7.886,7.9685,8.0324,8.0759,8.1005,8.1151,8.1151,8.1151,8.1345,8.1442,8.1393,8.12,8.0906,8.0659,8.056,8.0392,8.0056,7.9246,7.7948,7.5836,7.5234,7.4833,7.4288,7.3548,7.3089,7.3089,7.2306,7.169,7.1424,7.1281,7.0979,7.034,7.0377,7.0565,7.0954,7.0598,7.0338,7.0177,7.0857,7.1013,7.0522,7.0493,7.0302,7.019,7.032,7.0087,4.6305,4.8851,5.1699,5.4344,5.6501,5.7946,5.7702,5.8733,5.9809,5.9889,6.0859,6.2219,6.3817,6.5043,6.6339,6.8027,6.8987,6.9602,6.9879,7.0049,7.0049,6.9846,6.9941,7.0168,7.0642,7.0376,7.039,7.0864,7.047,7.0176,7.0176,7.0143,7.019,7.0363,7.0236,6.9976,6.9656,6.9976,7.0248,7.0328,7.1633,7.2729,7.3608,7.336,7.3592,7.4221,7.4221,7.4221,7.4221,7.4221,7.4019,7.3797,7.3609,7.3299,7.2932,7.29,7.2741,7.2562,7.2794,7.3282,7.3912,7.4591,7.5353,7.6299,7.7453,7.8212,7.885,7.9562,8.0175,8.0659,8.0759,8.0906,8.1005,8.1005,8.1102,8.1151,8.1054,8.0808,8.056,8.0259,8.0209,8.0158,7.9853,7.8889,7.7525,7.5752,7.5367,7.4999,7.4118,7.3281,7.2906,7.3077,7.2156,7.1581,7.1745,7.1528,7.1225,7.0744,7.0817,7.0889,7.0921,7.0921,7.0889,7.0889,7.1245,7.1292,7.0986,7.0986,7.1092,7.1226,7.1226,7.1077,4.5277,4.8742,5.2431,5.5561,5.7432,5.8343,5.7793,5.9098,6.0238,5.9485,6.061,6.2149,6.3517,6.5541,6.7301,6.8438,6.9648,7.0385,7.0436,7.0423,7.0236,6.9846,6.9846,7.0125,7.0708,7.0448,7.0348,7.0659,7.0306,6.9941,6.9703,6.9655,6.9751,6.9988,6.9798,6.9589,6.9457,6.9589,6.9922,7.0453,7.1722,7.2962,7.4221,7.4221,7.4221,7.4221,7.4221,7.4221,7.4171,7.4171,7.3968,7.3661,7.3422,7.311,7.2827,7.2798,7.2724,7.2703,7.2832,7.3468,7.4203,7.43,7.5147,7.6234,7.7017,7.7907,7.8691,7.9269,8.0023,8.061,8.061,8.0759,8.0857,8.0857,8.0857,8.0808,8.0659,8.041,8.0158,7.9904,7.9853,7.9665,7.9273,7.8478,7.737,7.5821,7.5418,7.493,7.3947,7.3032,7.256,7.2867,7.1727,7.1148,7.1569,7.1784,7.1557,7.0824,7.1233,7.1265,7.0792,7.118,7.1472,7.1601,7.1654,7.1623,7.1549,7.16,7.1869,7.2183,7.2183,7.2117,4.2977,4.7591,5.2488,5.4737,5.6761,5.8112,5.8069,5.8946,5.9878,6.0104,6.1684,6.3126,6.3325,6.4794,6.6512,6.8104,6.8371,6.8836,7.0056,7.0035,6.9893,6.9798,6.9988,7.0196,7.0262,7.0243,7.0115,6.9978,6.964,6.9382,6.9091,6.9091,6.9091,6.914,6.914,6.8796,6.814,6.8796,6.9452,7.0157,7.2494,7.3803,7.4221,7.4221,7.4221,7.4221,7.4221,7.4221,7.4171,7.395,7.3661,7.337,7.3318,7.3005,7.268,7.3456,7.3663,7.3512,7.4095,7.4605,7.505,7.5636,7.5962,7.6387,7.7858,7.8571,7.9008,7.987,8.036,8.061,8.061,8.046,8.0309,8.0309,8.0309,8.036,8.056,8.041,8.0209,8.0158,7.9955,7.9497,7.8603,7.8144,7.7318,7.5599,7.5315,7.493,7.3947,7.3408,7.3116,7.29,7.3057,7.2929,7.2411,7.3143,7.3261,7.2249,7.1994,7.1929,7.2184,7.1699,7.1699,7.2346,7.2559,7.2842,7.3023,7.3314,7.3272,7.2945,7.2945,7.2614,4.3919,4.7075,4.9994,5.268,5.4559,5.5903,5.6415,5.7942,5.9282,5.9411,6.1202,6.2818,6.3249,6.4884,6.6478,6.7335,6.8123,6.8844,6.9477,6.9722,6.9751,6.9607,6.9559,6.9739,7.0313,6.9838,6.9724,7.0169,6.9564,6.914,6.8994,6.8994,6.919,6.9583,6.9223,6.8977,6.8928,6.9403,7.0173,7.1287,7.2766,7.3577,7.3679,7.3679,7.3884,7.4221,7.4221,7.4221,7.4171,7.407,7.3866,7.3558,7.337,7.3057,7.2753,7.3078,7.3328,7.3609,7.3933,7.4658,7.5514,7.6191,7.6495,7.6887,7.7981,7.8564,7.8955,7.9355,8.0023,8.056,8.041,8.041,8.041,8.0259,8.0209,8.0259,8.036,8.0158,7.9955,7.9801,7.951,7.8883,7.7643,7.7551,7.7111,7.5547,7.5161,7.4823,7.4182,7.3528,7.2952,7.2721,7.3263,7.3285,7.2573,7.3263,7.3414,7.2541,7.1934,7.1674,7.1893,7.199,7.199,7.1893,7.2546,7.3005,7.3285,7.3609,7.3785,7.3707,7.3707,7.3491,4.4474,4.6234,4.7508,5.0633,5.2357,5.3614,5.4792,5.66,5.8204,5.8774,6.0531,6.2179,6.315,6.4763,6.6133,6.6711,6.7887,6.8785,6.8951,6.9429,6.9655,6.9526,6.9188,6.9321,7.0173,6.9468,6.9272,6.9977,6.9288,6.8847,6.8797,6.8797,6.9059,6.9581,6.9091,6.9058,6.9574,7.0134,7.1004,7.2134,7.2854,7.3266,7.3285,7.3285,7.3577,7.3968,7.4268,7.4286,7.4204,7.4518,7.4298,7.3797,7.3619,7.3325,7.2912,7.3111,7.3437,7.3901,7.4257,7.5154,7.6141,7.6692,7.7052,7.7422,7.8025,7.8564,7.8902,7.9094,7.9768,8.046,8.036,8.0546,8.0732,8.053,8.0615,8.0648,8.0276,8.0057,7.9801,7.9544,7.9251,7.8588,7.7322,7.7129,7.6722,7.5463,7.4841,7.4451,7.4157,7.3416,7.2892,7.2821,7.3469,7.3653,7.2939,7.3609,7.3663,7.2647,7.1739,7.1265,7.1407,7.1763,7.1849,7.1545,7.2489,7.311,7.3285,7.3712,7.3968,7.4221,7.412,7.3968,4.3028,4.4607,4.5968,4.9075,5.0712,5.2117,5.3956,5.5102,5.642,5.8707,6.0215,6.1583,6.305,6.3935,6.4929,6.6287,6.7181,6.791,6.8652,6.9112,6.9511,6.9751,6.9334,6.9124,6.9448,6.9173,6.8928,6.8715,6.8682,6.8501,6.8251,6.8251,6.8251,6.8316,6.8251,6.8608,6.9321,7.0682,7.1499,7.1909,7.2574,7.3057,7.3285,7.3285,7.3318,7.3403,7.4352,7.4544,7.427,7.537,7.5035,7.3862,7.4176,7.3783,7.3095,7.4463,7.4767,7.4743,7.6135,7.6822,7.7134,7.7434,7.7577,7.7719,7.8296,7.8691,7.9008,7.9562,8.0006,8.0309,8.051,8.0919,8.1275,8.1224,8.1765,8.19,8.0513,8.0209,8.0107,7.9853,7.9544,7.905,7.8022,7.703,7.6125,7.5397,7.4497,7.3727,7.3403,7.309,7.3087,7.3501,7.4432,7.4724,7.3954,7.4808,7.4666,7.2997,7.1597,7.1038,7.1375,7.0857,7.0948,7.1857,7.2802,7.3285,7.3285,7.3884,7.4171,7.4171,7.395,7.3797,4.1172,4.2485,4.4129,4.6483,4.8313,4.9945,5.1348,5.3846,5.6179,5.736,5.9072,6.0854,6.2354,6.3537,6.4664,6.5657,6.6419,6.7016,6.7247,6.7932,6.8547,6.8785,6.8747,6.8896,6.9334,6.8994,6.865,6.8435,6.8389,6.8206,6.7768,6.8042,6.8428,6.8881,6.846,6.8784,6.9982,7.0954,7.1719,7.2278,7.2538,7.2688,7.2827,7.3282,7.3616,7.3841,7.5123,7.4964,7.4016,7.487,7.4724,7.4151,7.5048,7.4734,7.3979,7.4778,7.5212,7.539,7.5909,7.6451,7.7008,7.7255,7.7366,7.7477,7.8079,7.8862,7.9708,8.011,8.0681,8.1139,8.1038,8.0953,8.0783,8.0631,8.1156,8.1426,8.0412,8.0209,8.0107,7.9853,7.9699,7.9257,7.8107,7.7585,7.6997,7.6111,7.4969,7.4143,7.4006,7.3584,7.3231,7.2897,7.4463,7.4842,7.3187,7.4659,7.4789,7.2765,7.2181,7.1966,7.212,7.1893,7.1966,7.2541,7.3489,7.3881,7.3609,7.4019,7.4221,7.4221,7.412,7.3968,4.0044,4.0866,4.2192,4.4414,4.5996,4.7575,4.9667,5.24,5.4919,5.6325,5.8102,5.9923,6.1609,6.2818,6.3935,6.4895,6.5889,6.6519,6.6519,6.7405,6.8152,6.839,6.8583,6.8896,6.9334,6.8994,6.8699,6.8547,6.8405,6.8206,6.7916,6.8092,6.8428,6.8914,6.8946,6.9399,7.0403,7.1205,7.1863,7.2401,7.2401,7.2445,7.2703,7.3296,7.3815,7.4237,7.5179,7.5114,7.4431,7.5352,7.5293,7.4724,7.5615,7.5435,7.4698,7.5126,7.5492,7.5747,7.6006,7.6394,7.6839,7.7088,7.7199,7.7311,7.7774,7.8845,7.9948,8.0215,8.1047,8.1766,8.1715,8.1648,8.1495,8.1342,8.1494,8.1528,8.1054,8.0547,8.0107,7.975,7.9647,7.9324,7.8284,7.7879,7.7395,7.6424,7.5424,7.4661,7.4432,7.4149,7.3739,7.3253,7.4648,7.4994,7.3318,7.4453,7.4702,7.3285,7.2541,7.2346,7.2832,7.2379,7.2355,7.29,7.3775,7.4222,7.4126,7.4434,7.4586,7.4535,7.4647,7.4305,0.0,0.0,0.0,4.3012,4.3878,4.5081,4.8993,5.0738,5.2424,5.5638,5.7331,5.8881,6.095,6.1816,6.2685,6.4111,6.5492,6.6452,6.644,6.7479,6.8324,6.8639,6.8873,6.9058,6.9382,6.914,6.8994,6.8961,6.8748,6.86,6.8567,6.8351,6.8234,6.8234,6.9658,7.0436,7.0436,7.1563,7.2133,7.2133,7.2133,7.2487,7.3131,7.3468,7.3998,7.4613,7.4646,7.5006,7.5656,7.702,7.6758,7.5558,7.5973,7.5734,7.5158,7.5598,7.5747,7.5844,7.6556,7.6783,7.6839,7.7088,7.7199,7.7255,7.7532,7.8574,7.9658,7.9981,8.1029,8.2076,8.2304,8.2949,8.349,8.3456,8.2915,8.2408,8.2374,8.1224,8.0057,7.9526,7.9422,7.9232,7.8617,7.7914,7.7185,7.6457,7.5885,7.5251,7.453,7.4572,7.4613,7.4581,7.519,7.5298,7.4636,7.4505,7.4461,7.4538,7.2605,7.212,7.3512,7.2249,7.1934,7.2965,7.3681,7.4306,7.4851,7.5143,7.5297,7.533,7.5418,7.4853,3.8935,0.0,0.0,0.0,0.0,0.0,4.6472,4.8391,5.0476,5.3518,5.5595,5.7453,5.9458,6.1119,6.223,6.2257,6.3756,6.516,6.5657,6.6291,6.6991,6.7797,6.8258,6.8822,6.9589,6.943,6.9184,6.88,6.8844,6.8667,6.8143,6.8679,6.8978,6.8978,7.0371,7.1148,7.1148,7.2002,7.2401,7.2401,7.2401,7.2757,7.3468,7.4095,7.471,7.5455,7.5973,7.6312,7.6424,7.6483,7.6115,7.559,7.6747,7.6615,7.5929,7.6535,7.666,7.6524,7.6718,7.6783,7.6783,7.6896,7.6896,7.7049,7.7874,7.9166,8.0575,8.1379,8.2328,8.2979,8.2491,8.2949,8.3355,8.2847,8.2543,8.2272,8.1731,8.0698,7.9987,8.0423,7.9913,7.9284,7.8883,7.8611,7.8159,7.7219,7.6642,7.6004,7.5284,7.5321,7.5196,7.4646,7.5719,7.5719,7.4052,7.481,7.468,7.3156,7.3026,7.3156,7.3577,7.3188,7.3586,7.4784,7.4799,7.5165,7.5889,7.5766,7.5713,7.5746,7.5575,7.52,0.0,0.0,4.0598,4.1739,0.0,0.0,4.5435,4.7361,4.9422,5.1833,5.3991,5.5781,5.7184,5.8763,5.9917,5.998,6.1434,6.3124,6.4741,6.5721,6.6502,6.7069,6.7936,6.8696,6.9268,6.9457,6.9457,6.9169,6.9055,6.8748,6.8225,6.8713,6.9181,6.9473,7.0455,7.1148,7.1407,7.2046,7.2348,7.2348,7.2348,7.2703,7.3414,7.4202,7.5002,7.5747,7.6491,7.6783,7.6751,7.6498,7.6242,7.6114,7.6929,7.6883,7.6424,7.6902,7.6952,7.6783,7.6783,7.6783,7.6783,7.6783,7.6977,7.7358,7.7918,7.9524,8.1304,8.1846,8.2979,8.3809,8.3298,8.3554,8.3761,8.305,8.2777,8.2537,8.215,8.1163,8.0431,8.067,8.0125,7.9561,7.9242,7.9189,7.8717,7.7424,7.7094,7.6703,7.5875,7.5992,7.5876,7.5131,7.5923,7.5793,7.4127,7.4626,7.4658,7.3868,7.3383,7.3545,7.4419,7.416,7.441,7.5352,7.5907,7.6658,7.7576,7.6634,7.6371,7.658,7.6156,7.5973,0.0,0.0,0.0,4.1314,4.1789,0.0,4.5205,4.7016,4.8627,5.0408,5.2306,5.3901,5.4528,5.5688,5.6733,5.7315,5.8764,6.0813,6.3677,6.5205,6.6166,6.6353,6.7546,6.8407,6.8672,6.9268,6.9699,6.9798,6.9334,6.8945,6.8649,6.8665,6.9056,6.9755,7.0215,7.0857,7.1537,7.1918,7.2133,7.2133,7.2133,7.2487,7.3164,7.4083,7.4872,7.5649,7.6362,7.6686,7.6686,7.6783,7.6783,7.6783,7.6783,7.6783,7.6783,7.6783,7.6783,7.6783,7.6783,7.6783,7.6815,7.688,7.7301,7.7852,7.8038,7.9837,8.1757,8.2023,8.3293,8.45,8.4265,8.4372,8.4365,8.3689,8.3274,8.308,8.308,8.2013,8.0988,8.0755,8.0342,7.9974,7.9637,7.9703,7.9131,7.7355,7.7446,7.7369,7.632,7.6563,7.6556,7.5909,7.6034,7.5764,7.483,7.4377,7.454,7.552,7.3814,7.3652,7.5649,7.5076,7.5015,7.544,7.7073,7.834,7.9186,7.7575,7.7096,7.7653,7.6965,7.6834,4.2067,4.1731,4.1812,4.2242,4.2426,0.0,4.4306,4.5234,4.6465,4.8875,5.0269,5.1296,5.2258,5.4081,5.5141,5.4084,5.6402,5.9254,6.1788,6.2949,6.4057,6.547,6.5889,6.6751,6.8506,6.8804,6.9136,6.9765,6.9478,6.9188,6.8945,6.9303,6.9704,7.028,7.0857,7.1569,7.2282,7.239,7.2455,7.2455,7.2455,7.2811,7.3523,7.3706,7.416,7.4872,7.5585,7.5941,7.5973,7.6556,7.6783,7.6783,7.6783,7.6783,7.6783,7.6783,7.6783,7.6783,7.6783,7.6783,7.688,7.7431,7.769,7.8071,7.9469,8.0624,8.1689,8.3318,8.3968,8.4265,8.4211,8.4102,8.3905,8.3771,8.3214,8.2757,8.2757,8.1851,8.1234,8.1755,8.1137,8.0354,7.9736,8.0101,7.9859,7.8134,7.8256,7.8121,7.7125,7.6855,7.6751,7.6589,7.6645,7.6353,7.5552,7.5191,7.491,7.484,7.4525,7.4759,7.5659,7.5854,7.6508,7.7655,7.8215,7.8509,7.847,7.8135,7.8061,7.8159,7.7194,7.6822,4.3047,4.26,4.2704,4.3133,4.3145,0.0,0.0,4.5191,4.611,4.807,4.8963,4.9672,5.054,5.1968,5.2627,5.1512,5.3908,5.6235,5.7139,6.0097,6.2607,6.368,6.4221,6.5194,6.6883,6.714,6.7691,6.8994,6.928,6.9285,6.8994,6.9317,6.9779,7.0338,7.0894,7.1552,7.2262,7.2455,7.2455,7.2294,7.2455,7.2649,7.2897,7.3361,7.3771,7.416,7.5229,7.5714,7.5779,7.6491,7.6783,7.6783,7.6783,7.6783,7.6783,7.6783,7.6783,7.6783,7.6783,7.701,7.7366,7.769,7.8305,7.9076,8.0048,8.123,8.233,8.3421,8.3884,8.3993,8.3829,8.3775,8.3775,8.3775,8.3397,8.302,8.302,8.2499,8.2112,8.2477,8.2465,8.1933,8.0641,8.0476,8.0002,7.8441,7.8383,7.8126,7.7162,7.7188,7.7172,7.6848,7.667,7.6233,7.5523,7.529,7.5073,7.4718,7.4871,7.5257,7.5749,7.6811,7.7945,7.9119,7.9048,7.9015,7.9119,7.9119,7.8682,7.7753,7.7114,7.7228,4.4285,4.3742,4.3997,4.464,4.4474,4.4473,0.0,0.0,0.0,4.736,4.7806,4.8214,4.8846,4.9618,4.9952,4.9222,5.1249,5.2731,5.2183,5.6461,6.0029,6.1043,6.1924,6.2991,6.4374,6.486,6.5935,6.7796,6.8342,6.8594,6.8568,6.9036,6.9575,7.0202,7.0683,7.1285,7.2025,7.2369,7.2434,7.2218,7.2595,7.2628,7.2551,7.3349,7.3717,7.3836,7.5164,7.5714,7.5779,7.6491,7.6783,7.6783,7.6783,7.6783,7.6783,7.6783,7.6783,7.6815,7.6945,7.7366,7.7852,7.8143,7.9231,8.0477,8.0736,8.182,8.2996,8.322,8.3499,8.3665,8.3388,8.3443,8.3609,8.3609,8.3443,8.322,8.322,8.3052,8.2883,8.2883,8.338,8.3233,8.1595,8.1077,8.0382,7.8746,7.86,7.8291,7.7163,7.7463,7.756,7.688,7.6467,7.6038,7.5459,7.5313,7.5143,7.5003,7.5246,7.5566,7.5995,7.7537,7.8855,7.9879,7.9469,7.9502,8.0074,7.9886,7.9036,7.7706,7.7382,7.7901,4.6772,4.6898,4.7308,4.7582,4.7166,4.6874,4.7631,0.0,4.5787,4.629,0.0,4.6484,4.6565,0.0,0.0,4.6755,4.8426,4.9667,4.9269,5.1216,5.3855,5.6886,5.7928,5.9131,6.1159,6.2371,6.4057,6.6506,6.613,6.6133,6.698,6.8484,6.9472,6.9922,7.0418,7.0962,7.1612,7.2307,7.2682,7.2627,7.3267,7.3668,7.3978,7.4098,7.4296,7.4516,7.5358,7.5714,7.5779,7.6491,7.6783,7.6783,7.6783,7.6783,7.6783,7.6783,7.6783,7.688,7.7495,7.7754,7.8014,7.9309,8.0659,8.1836,8.2124,8.2671,8.3276,8.3276,8.3332,8.3332,8.3332,8.3165,8.2996,8.2996,8.294,8.294,8.294,8.2883,8.2883,8.2883,8.2983,8.2638,8.1496,8.2329,8.2198,7.9627,7.974,7.956,7.7909,7.7754,7.756,7.688,7.6467,7.6264,7.6167,7.565,7.5449,7.5707,7.5846,7.62,7.6737,7.7826,7.8746,7.9422,7.9094,7.9419,8.0334,7.9484,7.927,7.9659,7.9011,7.8726,5.0909,5.0808,5.0773,4.9885,4.9025,4.8219,4.7602,4.6454,4.5658,4.6291,0.0,0.0,0.0,0.0,0.0,0.0,4.7604,4.8194,4.7057,4.8368,5.0758,5.4261,5.4898,5.5869,5.7934,5.9683,6.1483,6.3378,6.3438,6.4144,6.5843,6.71,6.8325,6.9415,7.0042,7.0722,7.1369,7.1822,7.2173,7.2389,7.2876,7.3315,7.3699,7.3868,7.3948,7.4148,7.5024,7.5402,7.5467,7.6435,7.6783,7.6848,7.7236,7.7139,7.6783,7.6783,7.7042,7.7431,7.7722,7.837,7.9302,8.0483,8.1356,8.2025,8.228,8.268,8.3052,8.3052,8.3052,8.3052,8.3052,8.2996,8.2883,8.2883,8.2883,8.2883,8.2883,8.2883,8.2959,8.3218,8.3227,8.3013,8.2196,8.1992,8.1475,7.9925,7.9996,7.9776,7.8564,7.8435,7.8118,7.7267,7.6496,7.5951,7.5777,7.5577,7.5401,7.5279,7.5772,7.6462,7.744,7.7906,7.8421,7.9062,7.9367,7.9724,8.0191,8.0145,8.028,8.0572,7.9406,7.9115,5.441,5.4291,5.3974,5.2244,5.0907,4.9692,4.8256,4.6941,4.6241,4.6783,4.6704,0.0,0.0,0.0,4.71,4.65,0.0,4.7122,4.5754,4.6488,4.8283,5.1344,5.2234,5.3278,5.5113,5.6475,5.8025,5.989,6.0158,6.1258,6.3608,6.5288,6.6786,6.8182,6.9486,7.0353,7.0775,7.1354,7.1863,7.2394,7.2843,7.332,7.3874,7.4104,7.4218,7.4331,7.5071,7.5378,7.5442,7.633,7.6613,7.6621,7.7356,7.7414,7.6993,7.7301,7.769,7.8143,7.8337,7.9212,8.0404,8.1336,8.1792,8.2083,8.2428,8.2713,8.295,8.3148,8.3215,8.3248,8.3446,8.3347,8.3215,8.3215,8.3049,8.2883,8.2883,8.2992,8.3176,8.3474,8.3424,8.3224,8.2666,8.1741,8.0892,8.0366,8.0086,7.9795,7.9244,7.9179,7.8739,7.7545,7.6618,7.5911,7.5433,7.5533,7.5514,7.5466,7.625,7.703,7.7856,7.8167,7.8592,7.9179,7.9698,8.0054,8.028,8.0993,8.1317,8.1284,8.0054,7.9762,5.6564,5.6876,5.6699,5.4777,5.3165,5.1704,5.0559,4.8978,4.7713,4.7664,4.7704,4.7713,4.7623,0.0,0.0,0.0,0.0,0.0,0.0,4.5344,4.5863,4.7483,4.9773,5.173,5.2904,5.2605,5.3504,5.6348,5.6029,5.6934,5.9728,6.2934,6.5137,6.6071,6.8723,6.999,6.977,7.1073,7.2116,7.278,7.3507,7.4378,7.5337,7.5337,7.5481,7.5739,7.5771,7.5771,7.5829,7.6149,7.6092,7.5957,7.6953,7.7358,7.7513,7.8448,7.8823,7.8953,7.9665,8.0378,8.1052,8.1792,8.1967,8.2083,8.2713,8.2883,8.3049,8.3778,8.3976,8.4142,8.4838,8.4506,8.3976,8.3976,8.3413,8.2883,8.2883,8.3218,8.3482,8.3482,8.325,8.2897,8.2666,8.1955,8.1375,8.0993,8.041,8.0015,7.9957,7.9924,7.9289,7.7609,7.7067,7.6454,7.5465,7.574,7.6224,7.6856,7.7858,7.8257,7.7888,7.8886,7.9629,7.9924,8.0015,8.0313,8.0933,8.1738,8.2062,8.2062,8.1317,8.0993,0.0,0.0,6.1265,5.9119,5.7711,5.6336,5.4656,5.3503,5.2395,5.075,5.1698,0.0,0.0,0.0,0.0,0.0,0.0,0.0,0.0,4.4734,4.4973,4.5235,4.7815,4.9476,4.9254,4.9759,5.0958,5.2975,5.3507,5.4979,5.7807,6.0257,6.2844,6.5655,6.7092,6.8654,7.0378,7.0884,7.1705,7.2811,7.3064,7.3849,7.5075,7.5075,7.5134,7.5252,7.5428,7.58,7.6182,7.5995,7.6438,7.7243,7.7821,7.8356,7.8743,7.8635,7.9004,7.9698,8.0173,8.0652,8.1085,8.1558,8.185,8.2181,8.3308,8.3645,8.3778,8.454,8.4738,8.4805,8.5037,8.4573,8.401,8.401,8.3446,8.2883,8.2883,8.3423,8.3854,8.3907,8.3434,8.3034,8.2984,8.1626,8.0593,8.0961,8.0831,8.0669,8.0669,7.9859,7.9069,7.8538,7.7526,7.6751,7.6497,7.6569,7.673,7.6983,7.7921,7.8321,7.7888,7.9368,8.0311,8.0669,8.1155,8.1738,8.245,8.2709,8.2684,8.2501,8.2458,8.2191,6.4424,6.4413,0.0,6.1502,6.0323,0.0,5.7395,0.0,5.5758,0.0,0.0,0.0,0.0,0.0,0.0,0.0,0.0,0.0,0.0,4.4584,4.4384,4.4068,4.627,4.7481,4.6733,4.75,4.8763,5.0476,5.1211,5.2817,5.5633,5.8518,6.1487,6.4393,6.6543,6.854,7.0378,7.0884,7.1705,7.2811,7.3064,7.3791,7.4897,7.4897,7.5024,7.5276,7.5546,7.5986,7.6617,7.6469,7.6879,7.7648,7.8203,7.8707,7.9152,7.9317,7.9747,8.041,8.0625,8.0906,8.1263,8.1558,8.2072,8.2749,8.3672,8.4175,8.454,8.5268,8.55,8.5533,8.5798,8.5335,8.4705,8.444,8.3844,8.3281,8.3281,8.3705,8.4141,8.4418,8.3754,8.3128,8.3159,8.1608,8.0507,8.0961,8.0831,8.0637,8.0637,7.9859,7.9107,7.8647,7.7819,7.7266,7.736,7.7362,7.7457,7.771,7.8806,7.9176,7.8715,8.0485,8.1432,8.1414,8.2126,8.2742,8.3195,8.3422,8.3428,8.3243,8.3428,8.3292]}]]